     2.11           OBSERVATION DATA    G (GPS)             RINEX VERSION / TYPE
teqc 2010Oct21 OPUS Account 20111027 20:49:48UTC            PGM / RUN BY / DATE
F 1526                                                      MARKER NAME
3042                                                        MARKER NUMBER
CSMIDDLETON NGS                                             OBSERVER / AGENCY
0220280359 TRIMBLE 5700 NP 2.32 / SP 2.32                   REC # / TYPE / VERS
11885611 TRM41249.00 NONE                                   ANT # / TYPE
  -755449.7025 -5565126.6490  3013065.7741                  APPROX POSITION XYZ
        1.9990        0.0000        0.0000                  ANTENNA: DELTA H/E/N
     1     1                                                WAVELENGTH FACT L1/2
     5    L1    L2    C1    P1    P2                        # / TYPES OF OBSERV
    15                                                      LEAP SECONDS
  2011     8    20     0     0   30.0000000     GPS         TIME OF FIRST OBS
                                                            END OF HEADER
 11  8 20  0  0 30.0000000  0  7G12G17G10G05G04G09G02
 -28969751.43057 -22532053.78955  22100340.0394                   22100338.0664
 -82665867.71156 -64371993.57454  22936052.3054                   22936050.8674
 -45056655.33657 -34433516.23855  21115825.9224                   21115823.9924
 -20241509.15256 -15729777.36754  22829034.0474                   22829034.0744
 -67936244.09457 -51407671.78555  21279228.7504                   21279227.2034
 -38761046.78556 -28775577.07053  23223112.2424                   23223111.6024
 -53610886.52057 -40903523.55955  20801236.3054                   20801231.8164
 11  8 20  0  1  0.0000000  0  7G12G17G10G05G04G09G02
 -29139537.71947 -22664354.77745  22068030.7894                   22068028.6374
 -82713672.13346 -64409243.82044  22926955.5084                   22926953.9804
 -45175289.48047 -34525958.41445  21093250.7424                   21093248.5274
 -20435388.00046 -15880851.71144  22792139.8914                   22792139.5864
 -67960952.07847 -51426924.77745  21274526.8754                   21274525.1414
 -38786817.55946 -28795658.25843  23218207.9614                   23218207.8794
 -53717672.64547 -40986733.51646  20780915.7664                   20780911.3634
 11  8 20  0  1 30.0000000  0  7G12G17G10G05G04G09G02
 -29308949.66047 -22796364.05945  22035793.5944                   22035790.5784
 -82761299.49646 -64446356.09844  22917892.0234                   22917890.8594
 -45293279.61747 -34617898.76645  21070797.2814                   21070796.0204
 -20629033.10946 -16031743.90644  22755291.1414                   22755290.6764
 -67985393.15247 -51445969.78545  21269875.9454                   21269874.2704
 -38812240.57846 -28815468.48443  23213370.5084                   23213370.2304
 -53824083.95747 -41069651.41046  20760666.3914                   20760661.6174
 11  8 20  0  2  0.0000000  0  7G12G17G10G05G04G09G02
 -29477999.92247 -22928091.51245  22003623.9844                   22003621.6684
 -82808764.20346 -64483341.62944  22908859.8984                   22908858.6134
 -45410639.53547 -34709348.03145  21048465.3674                   21048462.9064
 -20822456.59846 -16182463.43044  22718483.5234                   22718482.6254
 -68009584.87547 -51464820.50045  21265272.5394                   21265270.6844
 -38837334.59046 -28835022.31643  23208595.3674                   23208595.2664
 -53930136.37547 -41152289.64846  20740485.1804                   20740481.0314
 11  8 20  0  2 30.0000000  0  7G12G17G10G05G04G09G02
 -29646687.01247 -23059535.96945  21971524.0164                   21971521.4064
 -82856067.12546 -64520201.09044  22899858.4774                   22899856.9224
 -45527369.20347 -34800306.19945  21026251.9774                   21026249.8954
 -21015656.59046 -16333008.79344  22681719.1334                   22681717.9264
 -68033530.50847 -51483479.45345  21260716.1094                   21260714.1804
 -38862103.98446 -28854323.23843  23203882.2664                   23203881.8674
 -54035832.07847 -41234649.93046  20720371.7734                   20720367.3324
 11  8 20  0  3  0.0000000  0  7G12G17G10G05G04G09G02
 -29815007.79347 -23190694.98845  21939493.3674                   21939490.3714
 -82903206.60246 -64556933.18044  22890887.9774                   22890886.6764
 -45643466.49647 -34890771.60545  21004158.9694                   21004157.1454
 -21208629.51246 -16483377.21544  22644996.4614                   22644996.3954
 -68057231.61347 -51501947.85945  21256205.5864                   21256203.5354
 -38886551.46546 -28873373.28943  23199229.2504                   23199230.0274
 -54141171.34047 -41316732.46546  20700326.2194                   20700321.9774
 11  8 20  0  3 30.0000000  0  7G12G17G10G05G04G09G02
 -29982954.05147 -23321562.17645  21907534.2814                   21907531.5164
 -82950176.64146 -64593533.26644  22881949.7584                   22881948.6454
 -45758924.76647 -34980739.06245  20982187.7974                   20982186.5474
 -21401366.78947 -16633562.00844  22608319.8984                   22608319.8054
 -68080685.00847 -51520223.24645  21251742.2424                   21251740.7074
 -38910675.04346 -28892170.94943  23194639.3054                   23194639.4414
 -54246149.19547 -41398533.37146  20680349.4614                   20680345.4654
 11  8 20  0  4  0.0000000  0  7G12G17G10G05G04G09G02
 -30150522.52347 -23452134.98045  21875647.1644                   21875644.6024
 -82996975.54746 -64630000.02044  22873044.2664                   22873043.3874
 -45873741.98047 -35070206.99645  20960339.5394                   20960337.3364
 -21593864.43747 -16783560.07844  22571689.4064                   22571688.8954
 -68103892.16847 -51538306.76245  21247326.2814                   21247324.5594
 -38934477.34846 -28910718.26243  23190110.1954                   23190109.8834
 -54350765.76647 -41480052.77346  20660442.0164                   20660437.2974
 11  8 20  0  4 30.0000000  0  7G12G17G10G05G04G09G02
 -30317710.90647 -23582411.62545  21843832.4454                   21843829.7974
 -83043603.38346 -64666333.44944  22864172.1254                   22864170.2774
 -45987917.17247 -35159174.65645  20938612.5634                   20938610.6454
 -21786119.98846 -16933369.52344  22535103.8674                   22535103.4734
 -68126855.48447 -51556200.27345  21242957.2894                   21242954.8554
 -38957961.54346 -28929017.71943  23185640.7974                   23185641.3134
 -54455022.46947 -41561291.75045  20640602.1954                   20640598.0354
 11  8 20  0  5  0.0000000  0  8G12G17G10G30G05G04G09G02
 -30484519.48047 -23712392.29345  21812089.7974                   21812086.9064
 -83090062.10946 -64702535.10244  22855331.1024                   22855329.4964
 -46101452.01247 -35247643.33245  20917007.4694                   20917005.5634
   -291244.53515                  24315598.258
 -21978132.93047 -17082989.89844  22498565.4064                   22498564.8284
 -68149579.95747 -51573907.68045  21238632.7344                   21238630.7234
 -38981134.09846 -28947074.32043  23181231.2734                   23181231.5864
 -54558923.03547 -41642253.23045  20620830.8364                   20620826.4654
 11  8 20  0  5 30.0000000  0  8G12G17G10G30G05G04G09G02
 -30650946.59047 -23842075.73445  21780419.8204                   21780417.1994
 -83136351.67646 -64738604.93744  22846522.4534                   22846520.9064
 -46214345.62547 -35335612.35545  20895523.7814                   20895522.4654
   -490508.957 5                  24277678.758
 -22169901.42247 -17232419.80544  22462072.1484                   22462072.0944
 -68172068.89547 -51591431.53945  21234352.8444                   21234351.0784
 -39003999.17646 -28964891.34844  23176880.2114                   23176880.4844
 -54662469.39547 -41722938.69546  20601126.8134                   20601122.1054
 11  8 20  0  6  0.0000000  0  8G12G17G10G30G05G04G09G02
 -30816994.46547 -23971463.65645  21748821.9614                   21748819.5274
 -83182476.72746 -64774546.55944  22837745.7894                   22837743.6684
 -46326602.27347 -35423085.04745  20874162.5634                   20874160.5084
   -689571.95345   -144752.37552  24239799.5084                   24239799.4454
 -22361427.41446 -17381660.73444  22425626.0084                   22425626.2114
 -68194329.37547 -51608777.37945  21230116.8984                   21230114.8244
 -39026565.10946 -28982475.27043  23172586.6414                   23172586.3014
 -54765667.48847 -41803352.78546  20581488.6414                   20581484.3364
 11  8 20  0  6 30.0000000  0  8G12G17G10G30G05G04G09G02
 -30982658.37947 -24100552.38345  21717296.6174                   21717294.0124
 -83228434.57046 -64810357.91044  22828999.8204                   22828998.4064
 -46438218.91447 -35510059.03545  20852922.6644                   20852920.6254
   -888428.68445   -299705.63342  24201957.4454                   24201957.9614
 -22552705.88746 -17530708.82044  22389226.6724                   22389226.0354
 -68216361.76247 -51625945.48845  21225923.8834                   21225922.5554
 -39048833.41046 -28999827.25843  23168348.7194                   23168348.9804
 -54868516.13347 -41883494.57846  20561917.1954                   20561912.9804
 11  8 20  0  7  0.0000000  0  8G12G17G10G30G05G04G09G02
 -31147937.74647 -24229341.47345  21685845.3444                   21685842.4924
 -83274226.18746 -64846039.72344  22820285.8134                   22820284.5004
 -46549196.04747 -35596534.70745  20831804.3754                   20831803.0204
  -1087078.00845   -454497.25042  24164155.9304                   24164156.8714
 -22743735.58247 -17679563.03944  22352875.2424                   22352874.8634
 -68238169.52347 -51642938.57445  21221774.4694                   21221772.6804
 -39070809.06646 -29016951.21143  23164166.8364                   23164166.9774
 -54971017.97747 -41963366.13346  20542411.6564                   20542407.5984
 11  8 20  0  7 30.0000000  0  9G12G17G10G30G05G04G25G09G02
 -31312829.32447 -24357828.39145  21654467.5004                   21654464.6804
 -83319850.05946 -64881590.83644  22811604.0234                   22811602.8674
 -46659531.90647 -35682510.67645  20810808.2194                   20810806.3634
  -1285516.23045   -609124.39542  24126393.5554                   24126395.5554
 -22934512.78947 -17828220.52744  22316571.5004                   22316571.2504
 -68259754.27347 -51659757.87545  21217666.8134                   21217665.4414
   -288368.34856   -161139.72353  24534423.9614                   24534425.3794
 -39092494.61746 -29033849.14143  23160040.4614                   23160040.9344
 -55073173.02347 -42042967.46146  20522972.5234                   20522968.1094
 11  8 20  0  8  0.0000000  0  9G12G17G10G30G05G04G25G09G02
 -31477332.19547 -24486012.41845  21623163.5004                   21623160.9024
 -83365307.35946 -64917012.12544  22802954.0554                   22802952.5944
 -46769226.97347 -35767987.31645  20789933.4454                   20789932.1604
  -1483742.58645   -763586.41042  24088672.7504                   24088673.7774
 -23125035.94147 -17976680.04344  22280316.7034                   22280315.5784
 -68281120.22747 -51676406.69145  21213600.6564                   21213599.6024
   -485497.86346   -314747.07842  24496911.1254                   24496913.4224
 -39113895.22346 -29050524.98843  23155969.3594                   23155968.5784
 -55174984.09447 -42122300.76246  20503598.4064                   20503593.8834
 11  8 20  0  8 30.0000000  0  9G12G17G10G30G05G04G25G09G02
 -30066022.79747 -23386290.79345  21891726.4454                   21891724.2034
 -81835180.53946 -63724705.53944  23094126.9844                   23094125.8754
 -45302861.35547 -34625364.73845  21068973.6174                   21068972.3594
   -106332.12945    309720.50442  24350785.2504                   24350786.5434
 -21739880.43746 -16897338.01244  22543903.1644                   22543901.8014
 -66726853.03947 -50465289.41845  21509368.5634                   21509366.5594
    892927.46545    759350.62143  24759216.7974                   24759218.4694
 -37559598.30946 -27839384.63743  23451741.0234                   23451741.6644
 -53701033.57047 -40973767.87946  20784081.9144                   20784077.5634
 11  8 20  0  9  0.0000000  0  9G12G17G10G30G05G04G25G09G02
 -30229749.63347 -23513870.11345  21860570.6644                   21860567.9024
 -81880311.92246 -63759872.89144  23085538.8204                   23085537.6054
 -45411281.46547 -34709847.91445  21048342.1564                   21048340.2464
   -304135.32045    155588.19942  24313144.1024                   24313145.0234
 -21929895.98047 -17045401.99644  22507743.7034                   22507742.6334
 -66747796.48847 -50481609.00445  21505382.8914                   21505381.4384
    696056.89145    605945.02742  24721753.8054                   24721755.5984
 -37580448.54346 -27855631.66043  23447773.6174                   23447773.9184
 -53802169.05547 -41052574.74646  20764836.6644                   20764831.9614
 11  8 20  0  9 30.0000000  0  9G12G17G10G30G05G04G25G09G02
 -30393080.77047 -23641141.10545  21829489.8054                   21829487.1764
 -81925275.55546 -63794909.51244  23076983.6724                   23076981.6484
 -45519058.76647 -34793830.21545  21027832.8754                   21027831.1804
   -501718.81646      1627.10242  24275546.1484                   24275546.0514
 -22119649.32047 -17193261.66444  22471634.9844                   22471634.2664
 -66768528.00847 -50497763.45745  21501437.7424                   21501436.5474
    499323.35545    452646.23442  24684315.9304                   24684318.9884
 -37601024.44146 -27871664.89543  23443858.3914                   23443858.6054
 -53902964.28147 -41131116.46546  20745655.3204                   20745651.3094
 11  8 20  0 10  0.0000000  0  9G12G17G10G30G05G04G25G09G02
 -30556012.91847 -23768101.20345  21798485.0864                   21798482.0704
 -81970070.06646 -63829814.34844  23068458.9844                   23068457.4534
 -45626191.14547 -34877309.96545  21007446.4304                   21007444.5204
   -699079.07046   -152160.03543  24237989.2424                   24237989.5474
 -22309136.86347 -17340914.21944  22435576.3134                   22435575.3874
 -66789049.21547 -50513754.02745  21497532.6484                   21497531.2624
    302730.41045    299457.00042  24646905.8524                   24646907.9414
 -37621328.81646 -27887486.59043  23439993.8204                   23439995.1334
 -54003419.47347 -41209393.22745  20726539.7194                   20726535.4024
 11  8 20  0 10 30.0000000  0  9G12G17G10G30G05G04G25G09G02
 -30718543.66847 -23894748.51645  21767556.7274                   21767553.6094
 -82014694.46946 -63864586.64144  23059966.9454                   23059965.7464
 -45732677.99647 -34960286.71945  20987182.4144                   20987180.4694
   -896213.21546   -305771.00843  24200475.9224                   24200475.7704
 -22498355.31647 -17488357.08644  22399569.3524                   22399568.4804
 -66809362.20747 -50529582.34845  21493667.5314                   21493665.7464
    106280.32846    146379.04742  24609523.0474                   24609524.4104
 -37641364.71946 -27903099.06643  23436181.3984                   23436182.4304
 -54103535.33647 -41287405.57446  20707488.4614                   20707483.6414
 11  8 20  0 11  0.0000000  0  9G12G17G10G30G05G04G25G09G02
 -30880666.57847 -24021078.03545  21736705.4384                   21736702.6524
 -82059144.74646 -63899223.22343  23051508.8204                   23051506.9024
 -45838514.94547 -35042757.05945  20967042.2424                   20967040.7774
  -1093114.88346   -459200.84043  24163006.5474                   24163006.7194
 -22687298.33247 -17635585.34044  22363615.2114                   22363614.3054
 -66829465.25847 -50545247.08645  21489841.8054                   21489840.7234
    -90020.69545     -6582.67243  24572167.4844                   24572170.0234
 -37661132.19146 -27918502.36743  23432419.8364                   23432420.3324
 -54203309.62947 -41365151.75846  20688501.5474                   20688497.5084
 11  8 20  0 11 30.0000000  0  9G12G17G10G30G05G04G25G09G02
 -31042377.51247 -24147086.53145  21705932.8134                   21705929.3054
 -82103418.09446 -63933721.96543  23043082.8524                   23043082.0124
 -45943698.86747 -35124718.53945  20947026.2194                   20947024.5784
  -1289779.18046   -612445.70343  24125582.9384                   24125582.3594
 -22875960.79347 -17782594.97745  22327712.7814                   22327712.6374
 -66849358.66447 -50560748.46545  21486056.4614                   21486054.8634
   -286168.00446   -159424.72743  24534842.4924                   24534843.6844
 -37680632.72346 -27933697.68743  23428709.3134                   23428710.0234
 -54302741.16047 -41442630.85946  20669580.5784                   20669576.0554
 11  8 20  0 12  0.0000000  0  9G12G17G10G30G05G04G25G09G02
 -31203673.29747 -24272771.54345  21675239.0164                   21675236.2854
 -82147513.70046 -63968082.21043  23034691.6024                   23034690.9924
 -46048228.51247 -35206170.19545  20927135.2894                   20927133.2584
  -1486202.80546   -765502.96542  24088205.0164                   24088203.9614
 -23064339.46547 -17929383.47345  22291866.3204                   22291865.3094
 -66869043.98047 -50576087.69145  21482310.3204                   21482309.1294
   -482158.72346   -312144.65243  24497546.9844                   24497548.4264
 -37699869.15646 -27948687.19943  23425048.8524                   23425049.7114
 -54401830.68047 -41519843.45346  20650724.5004                   20650719.9184
 11  8 20  0 12 30.0000000  0  9G12G17G10G30G05G04G25G09G02
 -31364551.69947 -24398131.32845  21644624.7734                   21644622.5904
 -82191431.24246 -64002303.70344  23026335.3444                   23026333.9184
 -46152103.60247 -35287111.81645  20907368.4384                   20907366.5234
  -1682383.41446   -918370.94143  24050872.5234                   24050872.1954
 -23252431.05146 -18075948.27044  22256072.4144                   22256072.3674
 -66888523.78147 -50591266.77345  21478603.7504                   21478602.1134
   -677990.66446   -464740.91043  24460281.1094                   24460282.5704
 -37718845.20746 -27963473.82843  23421437.6804                   23421438.6214
 -54500579.34047 -41596790.44946  20631933.0634                   20631929.1374
 11  8 20  0 13  0.0000000  0  9G12G17G10G30G05G04G25G09G02
 -31525008.16447 -24523162.31245  21614090.8134                   21614088.3134
 -82235167.63746 -64036384.06243  23018011.8834                   23018011.1134
 -46255321.16847 -35367541.07045  20887727.2344                   20887724.8524
  -1878315.94946  -1071045.57842  24013588.1884                   24013587.8094
 -23440231.00847 -18222285.82044  22220336.2734                   22220335.7114
 -66907798.08247 -50606285.72745  21474936.2344                   21474934.2304
   -873659.23846   -617209.85943  24423046.2194                   24423048.0824
 -37737562.29746 -27978058.67243  23417876.6884                   23417876.6954
 -54598986.15247 -41673471.06246  20613206.6954                   20613202.4304
 11  8 20  0 13 30.0000000  0  9G12G17G10G30G05G04G25G09G02
 -31685041.79347 -24647863.83245  21583637.4774                   21583634.8984
 -82278723.79746 -64070323.97343  23009723.2814                   23009722.7734
 -46357881.64547 -35447458.32045  20868209.9614                   20868207.8364
  -2073999.06646  -1223525.85942  23976350.9774                   23976350.2114
 -23627738.07847 -18368395.14144  22184654.7504                   22184653.3054
 -66926870.37147 -50621147.27345  21471306.6804                   21471304.6724
  -1069163.23446   -769550.57843  24385842.9694                   24385844.9384
 -37756025.17246 -27992445.39843  23414363.3524                   23414363.2384
 -54697053.68447 -41749887.30946  20594545.5864                   20594541.0234
 11  8 20  0 14  0.0000000  0  9G12G17G10G30G05G04G25G09G02
 -31844648.53947 -24772232.71145  21553265.2974                   21553262.8524
 -82322097.80946 -64104121.92244  23001470.8444                   23001469.2664
 -46459783.17647 -35526862.10245  20848819.2734                   20848817.1094
  -2269428.44146  -1375808.44542  23939161.2504                   23939161.6644
 -23814947.53947 -18514272.56245  22149029.8134                   22149028.8874
 -66945741.31247 -50635851.91045  21467715.6564                   21467713.7814
  -1264498.69146   -921759.94943  24348672.2894                   24348673.8754
 -37774235.69146 -28006635.50843  23410897.4534                   23410898.2344
 -54794781.35947 -41826038.73446  20575948.6564                   20575944.0514
 11  8 20  0 14 30.0000000  0  9G12G17G10G30G05G04G25G09G02
 -32003823.84447 -24896265.39845  21522975.1884                   21522972.3094
 -82365286.84046 -64137775.75444  22993251.0314                   22993250.7734
 -46561023.19147 -35605750.42245  20829554.0314                   20829551.6454
  -2464599.25045  -1527889.53942  23902022.4924                   23902021.7894
 -24001853.60947 -18659913.58644  22113462.9304                   22113461.4104
 -66964410.94947 -50650399.70344  21464162.9924                   21464161.4024
  -1459660.96246  -1073834.38543  24311533.3204                   24311535.1844
 -37792195.05546 -28020629.91043  23407480.1334                   23407480.4224
 -54892168.09447 -41901924.48846  20557416.1484                   20557411.9304
 11  8 20  0 15  0.0000000  0  9G12G17G10G30G05G04G25G09G02
 -32162569.28147 -25019963.13345  21492766.8284                   21492764.2504
 -82408294.39546 -64171288.16443  22985068.4534                   22985066.3444
 -46661604.87947 -35684125.74645  20810413.5944                   20810411.8094
  -2659512.73445  -1679770.09842  23864930.2274                   23864931.2774
 -24188458.34846 -18805319.80144  22077953.0394                   22077951.8984
 -66982885.43747 -50664795.42245  21460647.4454                   21460645.3244
  -1654651.59046  -1225775.07843  24274428.1334                   24274429.8134
 -37809910.84046 -28034434.52043  23404109.0554                   23404109.7384
 -54989219.20747 -41977548.71146  20538948.1414                   20538943.7344
 11  8 20  0 15 30.0000000  0  9G12G17G10G30G05G04G25G09G02
 -32320880.75047 -25143322.70745  21462640.9144                   21462638.5554
 -82451118.31646 -64204657.48443  22976918.9144                   22976916.9574
 -46761526.11347 -35761986.45345  20791399.4614                   20791397.0594
  -2854164.40646  -1831446.64542  23827889.2974                   23827889.8634
 -24374757.39547 -18950487.80944  22042501.9534                   22042500.4104
 -67001165.27347 -50679039.46145  21457168.6884                   21457166.7074
  -1849466.48846  -1377578.84943  24237356.3444                   24237357.0594
 -37827384.83646 -28048050.68743  23400783.7504                   23400784.2034
 -55085934.12147 -42052910.98046  20520543.7894                   20520539.7384
 11  8 20  0 16  0.0000000  0  9G12G17G10G30G05G04G25G09G02
 -32478752.96547 -25266340.01245  21432599.6884                   21432597.0634
 -82493754.96546 -64237880.89843  22968804.5784                   22968803.7894
 -46860783.39147 -35839329.77345  20772511.2344                   20772509.2734
  -3048548.61746  -1982914.82842  23790899.8054                   23790899.5944
 -24560744.41846 -19095412.68445  22007108.9304                   22007108.0354
 -67019249.55147 -50693131.12544  21453727.5634                   21453725.7384
  -2044100.08246  -1529241.34443  24200318.2504                   24200319.7154
 -37844617.69546 -28061478.97743  23397504.2584                   23397505.2074
 -55182311.02747 -42128009.85546  20502204.1024                   20502199.5354
 11  8 20  0 16 30.0000000  0  9G12G17G10G30G05G04G25G09G02
 -32636186.75047 -25389015.67645  21402640.2734                   21402638.0204
 -82536206.68046 -64270960.20743  22960726.3134                   22960725.5744
 -46959379.06247 -35916157.57045  20753749.1094                   20753747.1604
  -3242665.57845  -2134174.72342  23753960.3834                   23753960.0354
 -24746419.74247 -19240094.67644  21971776.0704                   21971775.2074
 -67037143.73047 -50707074.66044  21450322.1414                   21450320.6524
  -2238553.02046  -1680763.07043  24163315.4694                   24163316.5824
 -37861615.88746 -28074724.39143  23394269.8134                   23394270.5474
 -55278353.91847 -42202848.45746  20483927.8914                   20483923.5084
 11  8 20  0 17  0.0000000  0  9G12G17G10G30G05G04G25G09G02
 -31217758.99647 -24283747.27745  21672558.5394                   21672555.2544
 -81003056.36346 -63076297.68443  23252476.1884                   23252474.5434
 -45481894.35247 -34764870.76245  21034904.6414                   21034902.8634
  -1861090.47346  -1057622.60542  24016865.6804                   24016865.1804
 -23356358.76247 -18156930.20345  22236296.0944                   22236294.7464
 -65479433.34847 -49493274.36744  21746745.1564                   21746743.3134
   -857400.68446   -604540.39543  24426139.0944                   24426141.3484
 -36302966.37146 -26860192.37543  23690871.3984                   23690872.1914
 -53798645.44947 -41049828.85946  20765506.9924                   20765502.3754
 11  8 20  0 17 30.0000000  0  9G12G17G10G30G05G04G25G09G02
 -31374309.79747 -24405734.89145  21642767.5704                   21642765.2974
 -81045138.26246 -63109088.82443  23244467.6094                   23244466.5554
 -45579167.24247 -34840667.81645  21016394.2584                   21016392.3594
  -2054665.63346  -1208460.33242  23980028.9144                   23980029.0394
 -23541402.90647 -18301120.37945  22201083.6174                   22201081.8834
 -65496954.13347 -49506926.95345  21743410.5394                   21743408.7934
  -1051485.64846   -755775.37142  24389206.2344                   24389208.2274
 -36319506.32446 -26873080.75043  23687723.7504                   23687724.5744
 -53894025.08247 -41124150.63746  20747356.4384                   20747352.3244
 11  8 20  0 18  0.0000000  0  9G12G17G10G30G05G04G25G09G02
 -31530416.62147 -24527376.56245  21613061.3524                   21613058.9924
 -81087035.42246 -63141735.99244  23236494.8594                   23236493.8364
 -45675778.93447 -34915949.64545  20998009.8054                   20998007.8324
  -2247966.89846  -1359084.61743  23943245.6564                   23943244.8444
 -23726128.30147 -18445062.16045  22165931.0944                   22165930.4024
 -65514292.54747 -49520437.41844  21740110.9774                   21740109.3524
  -1245384.07846   -906865.00442  24352308.7424                   24352310.4614
 -36335823.50046 -26885795.49643  23684619.2664                   23684619.5234
 -53989076.22747 -41198216.45346  20729269.0634                   20729264.4264
 11  8 20  0 18 30.0000000  0  9G12G17G10G30G05G04G25G09G02
 -31686073.61747 -24648667.71545  21583440.5944                   21583438.5514
 -81128743.73846 -63174236.02044  23228558.8594                   23228557.4804
 -45771725.53547 -34990713.22745  20979751.3984                   20979749.7974
  -2440987.87146  -1509490.54743  23906515.0944                   23906513.5044
 -23910528.50047 -18588750.55945  22130840.1414                   22130839.5984
 -65531447.18047 -49533804.68744  21736847.0634                   21736845.6214
  -1439089.79346  -1057804.47742  24315447.5784                   24315449.2774
 -36351917.67646 -26898336.51243  23681556.5784                   23681557.2734
 -54083796.22747 -41272024.22346  20711244.5234                   20711240.0234
 11  8 20  0 19  0.0000000  0  9G12G17G10G30G05G04G25G09G02
 -31841281.77347 -24769609.11345  21553906.2344                   21553903.0084
 -81170266.19946 -63206591.22744  23220657.1954                   23220655.6214
 -45867010.38747 -35064961.14845  20961620.0864                   20961617.6604
  -2633729.10946  -1659678.46543  23869836.2974                   23869836.3754
 -24094604.35547 -18732186.21945  22095812.4384                   22095811.2584
 -65548423.53547 -49547033.03944  21733616.5784                   21733614.8914
  -1632603.62146  -1208594.43043  24278624.3444                   24278624.8164
 -36367796.02046 -26910709.31643  23678535.4064                   23678536.0634
 -54178189.47747 -41345577.39846  20693281.8674                   20693277.4774
 11  8 20  0 19 30.0000000  0  9G12G17G10G30G05G04G25G09G02
 -31996036.04747 -24890196.83645  21524457.1254                   21524454.2854
 -81211599.39546 -63238798.96144  23212791.2664                   23212790.3554
 -45961630.36747 -35138690.99645  20943614.3524                   20943612.2034
  -2826185.28546  -1809644.28943  23833213.7344                   23833212.8404
 -24278350.08247 -18875364.64145  22060846.2504                   22060845.5784
 -65565220.87147 -49560121.88344  21730419.8284                   21730418.5394
  -1825920.44546  -1359230.85943  24241836.0704                   24241837.9924
 -36383459.16446 -26922914.46143  23675554.6024                   23675555.1454
 -54272254.48847 -41418874.79346  20675382.1644                   20675377.5234
 11  8 20  0 20  0.0000000  0  9G12G17G10G30G05G04G25G09G02
 -32150336.46947 -25010430.91445  21495094.4144                   21495091.9414
 -81252745.11346 -63270860.59043  23204961.3984                   23204960.3834
 -46055587.32047 -35211904.20345  20925734.6334                   20925732.5514
  -3018355.53946  -1959387.30143  23796645.0864                   23796644.4344
 -24461764.88747 -19018285.18745  22025944.0004                   22025942.5784
 -65581843.52047 -49573074.62544  21727256.6254                   21727255.0864
  -2019039.71946  -1509713.35243  24205086.9694                   24205088.3094
 -36398912.41846 -26934956.04743  23672613.4454                   23672614.2304
 -54365994.79747 -41491919.17646  20657543.6954                   20657539.2584
 11  8 20  0 20 30.0000000  0  9G12G17G10G30G05G04G25G09G02
 -32304181.70747 -25130310.30145  21465819.2424                   21465815.7854
 -81293703.82846 -63302776.55543  23197166.7274                   23197166.4804
 -46148882.13747 -35284601.45345  20907981.8054                   20907979.3914
  -3210238.62546  -2108906.52743  23760130.0704                   23760130.0434
 -24644847.33647 -19160946.77045  21991104.2814                   21991103.6094
 -65598294.89147 -49585893.90644  21724126.4774                   21724124.4774
  -2211960.35246  -1660041.05143  24168375.8524                   24168376.4494
 -36414160.87946 -26946838.06643  23669712.3204                   23669712.8954
 -54459412.64847 -41564712.30146  20639767.2274                   20639762.4694
 11  8 20  0 21  0.0000000  0  9G12G17G10G30G05G04G25G09G02
 -32457567.21547 -25249831.45745  21436630.3674                   21436628.1954
 -81334472.42246 -63334544.34043  23189409.4924                   23189408.4224
 -46241512.28947 -35356780.78145  20890354.3204                   20890352.3284
  -3401828.91446  -2258197.60943  23723671.8984                   23723671.5004
 -24827591.68447 -19303344.89144  21956329.4454                   21956328.0634
 -65614574.43047 -49598579.28944  21721028.5314                   21721026.9184
  -2404677.06246  -1810209.85943  24131702.5864                   24131703.9224
 -36429205.26646 -26958561.03143  23666849.3284                   23666850.4414
 -54552506.70747 -41637253.10946  20622051.9844                   20622047.1804
 11  8 20  0 21 30.0000000  0  9G12G17G10G30G05G04G25G09G02
 -32610487.77347 -25368990.30145  21407530.9384                   21407528.4064
 -81375047.89846 -63366161.64543  23181688.6804                   23181686.9534
 -46333474.77047 -35428439.85245  20872854.8834                   20872852.8014
  -3593121.06646  -2407256.38343  23687270.1954                   23687268.8674
 -25009992.82447 -19445475.57845  21921618.8444                   21921618.1054
 -65630681.30947 -49611130.14144  21717963.8444                   21717961.8524
  -2597184.53546  -1960215.64543  24095069.2584                   24095070.6994
 -36444046.14146 -26970125.47343  23664025.9224                   23664026.2234
 -54645275.39547 -41709540.39146  20604398.3364                   20604394.2464
 11  8 20  0 22  0.0000000  0  9G12G17G10G30G05G04G25G09G02
 -32762943.99647 -25487787.34845  21378519.7974                   21378516.5664
 -81415432.66446 -63397630.29343  23174003.6884                   23174002.0864
 -46424772.23047 -35499580.73045  20855481.6954                   20855479.3164
  -3784115.16846  -2556082.89542  23650924.6484                   23650924.1604
 -25192050.57847 -19587338.69145  21886975.3834                   21886973.9264
 -65646620.57447 -49623550.37944  21714930.0944                   21714928.8054
  -2789483.25846  -2110058.73843  24058476.2344                   24058477.3364
 -36458690.10546 -26981536.43743  23661239.2894                   23661239.4304
 -54737722.88347 -41781577.39546  20586806.2584                   20586801.7734
 11  8 20  0 22 30.0000000  0  9G12G17G10G30G05G04G25G09G02
 -32914934.84047 -25606221.75045  21349596.1254                   21349594.0704
 -81455627.45346 -63428950.94144  23166354.8134                   23166353.3244
 -46515405.58247 -35570204.10945  20838234.8364                   20838232.3164
  -3974809.50446  -2704675.78543  23614637.2194                   23614636.7074
 -25373763.52347 -19728933.11345  21852395.7734                   21852394.6724
 -65662395.26647 -49635842.38344  21711928.4924                   21711926.7854
  -2981571.75846  -2259738.05143  24021922.7194                   24021924.5554
 -36473141.53946 -26992797.39843  23658488.1804                   23658489.6954
 -54829851.27047 -41853365.74646  20569274.4694                   20569270.4804
 11  8 20  0 23  0.0000000  0  9G12G17G10G30G05G04G25G09G02
 -33066457.00447 -25724290.94945  21320763.1414                   21320760.0784
 -81495630.43046 -63460122.12144  23158742.6024                   23158740.9804
 -46605373.97347 -35640309.34445  20821114.0394                   20821111.9224
  -4165200.35946  -2853032.23442  23578407.2424                   23578406.7074
 -25555127.62947 -19870255.73045  21817883.2584                   21817882.1914
 -65678006.61747 -49648007.09444  21708957.4694                   21708955.9614
  -3173446.43046  -2409250.69543  23985410.1334                   23985411.6374
 -36487403.01246 -27003910.34443  23655774.4694                   23655775.7704
 -54921660.75047 -41924905.59446  20551803.9844                   20551799.4144
 11  8 20  0 23 30.0000000  0  9G12G17G10G30G05G04G25G09G02
 -33217503.90647 -25841989.81645  21292019.8364                   21292016.7814
 -81535436.57446 -63491139.94544  23151167.6174                   23151166.6134
 -46694672.82047 -35709892.85545  20804120.8444                   20804119.3834
  -4355280.43046  -3001146.48442  23542236.0634                   23542235.6844
 -25736135.66847 -20011300.88345  21783437.9844                   21783437.9064
 -65693451.80947 -49660042.35244  21706018.6174                   21706016.8874
  -3365100.27346  -2558591.30143  23948940.1414                   23948941.2544
 -36501473.54346 -27014874.52043  23653096.9844                   23653098.8164
 -55013148.34047 -41996194.62146  20534394.5394                   20534389.7664
 11  8 20  0 24  0.0000000  0  9G12G17G10G30G05G04G25G09G02
 -33368075.33647 -25959318.18045  21263366.7664                   21263363.7584
 -81575047.84046 -63522005.89844  23143629.8834                   23143629.0434
 -46783304.46547 -35778956.47345  20787254.6884                   20787252.5984
  -4545049.12146  -3149018.18042  23506123.8524                   23506124.0514
 -25916786.93047 -20152068.03545  21749061.9774                   21749060.6024
 -65708735.40647 -49671951.67244  21703109.9144                   21703108.6094
  -3556532.80946  -2707759.44143  23912511.4534                   23912513.0514
 -36515358.71946 -27025694.24643  23650455.4304                   23650456.6454
 -55104317.32847 -42067235.38746  20517045.6334                   20517040.9224
 11  8 20  0 24 30.0000000  0  9G12G17G10G30G05G04G25G09G02
 -33518170.04747 -26076275.08645  21234804.4384                   21234802.0274
 -81614464.33246 -63552720.14543  23136128.9774                   23136128.1524
 -46871269.41047 -35847500.58245  20770515.7274                   20770513.3754
  -4734504.55546  -3296645.71942  23470072.1804                   23470071.1174
 -26097079.75847 -20292555.88745  21714753.2814                   21714752.2074
 -65723860.18747 -49683737.24644  21700232.0704                   21700230.5634
  -3747742.58646  -2856754.01643  23876125.9384                   23876126.8594
 -36529062.85546 -27036372.89543  23647846.9844                   23647849.1374
 -55195169.98447 -42138029.66045  20499756.7194                   20499752.1884
 11  8 20  0 25  0.0000000  0  9G12G17G10G30G05G04G25G09G02
 -33667786.09847 -26192859.00045  21206333.2274                   21206330.7464
 -81653685.96946 -63583282.51643  23128665.1094                   23128664.7584
 -46958567.86347 -35915525.34445  20753903.4224                   20753901.2544
  -4923644.18046  -3444027.18443  23434080.5314                   23434079.1254
 -26277011.43447 -20432762.31645  21680513.7274                   21680512.3204
 -65738828.32447 -49695400.75444  21697383.3204                   21697382.3524
  -3938727.02746  -3005572.97743  23839782.4534                   23839783.4804
 -36542589.45746 -27046913.21143  23645273.3444                   23645275.1294
 -55285707.63347 -42208578.47346  20482528.2344                   20482523.6804
 11  8 20  0 25 30.0000000  0  9G12G17G10G30G05G04G25G09G02
 -32241497.39547 -25081465.18045  21477747.2344                   21477743.8754
 -80117291.75846 -62386092.27343  23421031.8204                   23421030.8984
 -45469778.49647 -34755429.72345  21037210.3524                   21037208.7894
  -3537040.03546  -2363556.37543  23697942.0864                   23697941.1564
 -24881154.43447 -19345081.47745  21946137.2974                   21946134.6604
 -64178222.62147 -48479344.41044  21994357.6484                   21994356.0354
  -2554058.46146  -1926610.36343  24103276.3524                   24103277.2304
 -34980522.91046 -25829718.59443  23942524.9144                   23942526.4534
 -53800509.39847 -41051281.14846  20765151.7194                   20765147.6804
 11  8 20  0 26  0.0000000  0  9G12G17G10G30G05G04G25G09G02
 -32390148.32847 -25197297.06645  21449460.0314                   21449457.0004
 -80156121.03546 -62416348.91043  23413642.8984                   23413641.5204
 -45555743.85947 -34822415.71545  21020851.6724                   21020849.8754
  -3725538.47346  -2510438.22743  23662071.9844                   23662071.3094
 -25060354.80947 -19484718.07045  21912035.7894                   21912034.0904
 -64192882.53147 -48490767.73444  21991567.4614                   21991566.2974
  -2744583.56646  -2075071.44943  24067019.9774                   24067020.9184
 -34993704.09846 -25839989.74243  23940016.8284                   23940018.3554
 -53890419.27047 -41121340.78546  20748042.1174                   20748038.5124
 11  8 20  0 26 30.0000000  0  9G12G17G10G30G05G04G25G09G02
 -32538312.61347 -25312749.74245  21421265.1484                   21421262.4264
 -80194752.84046 -62446451.64843  23406291.9224                   23406290.2894
 -45641041.80547 -34888881.63345  21004619.5554                   21004618.0394
  -3913711.50046  -2657066.50443  23626263.7194                   23626263.0044
 -25239184.51647 -19624065.82845  21878004.7114                   21878003.6604
 -64207390.40647 -48502072.60544  21988806.9224                   21988805.2774
  -2934874.38346  -2223349.91443  24030808.5864                   24030810.0354
 -35006716.62146 -25850129.48443  23937540.9774                   23937542.0434
 -53980016.41447 -41191156.72746  20730992.3914                   20730988.4064
 11  8 20  0 27  0.0000000  0  9G12G17G10G30G05G04G25G09G02
 -32685989.35947 -25427822.51645  21393163.3524                   21393160.5744
 -80233187.52346 -62476400.75443  23398977.3524                   23398975.8014
 -45725673.65247 -34954828.51245  20988515.4534                   20988512.9264
  -4101557.28946  -2803439.79743  23590518.1644                   23590516.9574
 -25417641.77347 -19763123.37545  21844046.0864                   21844044.6374
 -64221749.06647 -48513261.19544  21986074.3984                   21986073.2234
  -3124929.39146  -2371444.66843  23994642.5634                   23994643.6054
 -35019565.00046 -25860141.31643  23935095.3284                   23935097.1214
 -54069303.01247 -41260730.69546  20714002.4694                   20713997.6604
 11  8 20  0 27 30.0000000  0  9G12G17G10G30G05G04G25G09G02
 -32833175.83647 -25542513.26245  21365154.3204                   21365151.8484
 -80271423.84846 -62506195.31243  23391701.1644                   23391699.6804
 -45809639.31247 -35020256.29745  20972536.9454                   20972534.9884
  -4289072.66446  -2949555.64843  23554834.7894                   23554833.5784
 -25595723.51247 -19901888.31245  21810158.2034                   21810157.0164
 -64235960.15647 -48524334.79744  21983370.7664                   21983368.8484
  -3314745.43446  -2519353.22343  23958522.1094                   23958522.6294
 -35032252.28546 -25870027.62143  23932681.9454                   23932683.4964
 -54158279.91847 -41330063.34046  20697070.6414                   20697066.0084
 11  8 20  0 28  0.0000000  0  9G12G17G10G30G05G04G25G09G02
 -32979868.69147 -25656819.38745  21337239.7584                   21337237.1174
 -80309460.59446 -62535834.37543  23384463.3914                   23384461.8794
 -45892937.48047 -35085163.96145  20956686.1334                   20956683.6294
  -4476253.64546  -3095410.91843  23519215.4224                   23519213.5704
 -25773425.76647 -20040357.53945  21776342.0704                   21776341.3204
 -64250024.68047 -48535294.18444  21980693.8914                   21980692.0474
  -3504318.98846  -2667072.83243  23922446.7344                   23922447.8444
 -35044781.03946 -25879790.35943  23930296.9614                   23930299.7504
 -54246947.30147 -41399154.79345  20680197.7034                   20680193.2384
 11  8 20  0 28 30.0000000  0  9G12G17G10G30G05G04G25G09G02
 -33126066.18747 -25770739.50045  21309419.3914                   21309416.6294
 -80347298.23046 -62565318.28543  23377263.2114                   23377261.7704
 -45975569.15647 -35149552.26645  20940961.3984                   20940959.3444
  -4663098.24646  -3241004.06243  23483660.5004                   23483659.3984
 -25950746.66047 -20178529.60545  21742599.5554                   21742597.8594
 -64263945.01647 -48546141.22744  21978045.3204                   21978043.7034
  -3693647.97746  -2814601.88743  23886418.4304                   23886419.6454
 -35057155.27346 -25889432.72343  23927943.7974                   23927944.5784
 -54335307.40247 -41468006.81646  20663383.3134                   20663378.7074
 11  8 20  0 29  0.0000000  0  9G12G17G10G30G05G04G25G09G02
 -33271764.64547 -25884270.76645  21281694.0164                   21281690.8634
 -80384933.59046 -62594644.61743  23370101.8364                   23370100.2274
 -46057532.30147 -35213419.64145  20925364.5704                   20925362.5234
  -4849601.23846  -3386331.03943  23448170.3984                   23448169.1174
 -26127680.82447 -20316400.33245  21708929.8284                   21708928.2544
 -64277720.81647 -48556875.63744  21975423.3134                   21975422.0634
  -3882727.52346  -2961936.55543  23850438.6644                   23850439.1684
 -35069375.94946 -25898955.41043  23925617.1174                   23925618.6564
 -54423358.56247 -41536618.10246  20646627.5164                   20646623.0784
 11  8 20  0 29 30.0000000  0  9G12G17G10G30G05G04G25G09G02
 -33416962.34847 -25997411.82845  21254063.6024                   21254060.9774
 -80422366.99646 -62623813.58643  23362977.7034                   23362976.9264
 -46138828.21147 -35276767.09845  20909894.7894                   20909892.3324
  -5035760.60246  -3531390.23843  23412745.2584                   23412743.7624
 -26304226.47747 -20453968.31645  21675334.2114                   21675332.7424
 -64291354.79347 -48567499.52344  21972828.9924                   21972827.7194
  -4071555.76246  -3109075.39843  23814505.7344                   23814506.2624
 -35081447.25046 -25908361.73043  23923320.6884                   23923321.6094
 -54511102.82047 -41604990.24646  20629930.3754                   20629925.8364
 11  8 20  0 30  0.0000000  0  9G12G17G10G30G05G04G25G09G02
 -33561659.04747 -26110162.49645  21226528.5004                   21226526.3754
 -80459599.99646 -62652826.40243  23355893.4304                   23355892.6414
 -46219459.09047 -35339596.33645  20894551.2114                   20894548.6024
  -5221575.72346  -3676181.18743  23377385.1414                   23377384.1094
 -26480383.10947 -20591233.16045  21641812.3834                   21641811.4224
 -64304850.95747 -48578016.03944  21970260.5784                   21970259.3324
  -4260132.20746  -3256018.03543  23778620.3834                   23778621.8834
 -35093374.50846 -25917655.78143  23921050.5394                   23921051.7274
 -54598543.50047 -41673125.83646  20613291.3284                   20613286.5164
 11  8 20  0 30 30.0000000  0  9G12G17G10G30G05G04G25G09G02
 -33705852.94147 -26222521.37145  21199089.9454                   21199086.7034
 -80496632.19946 -62681682.71943  23348846.9384                   23348845.3754
 -46299425.12147 -35401907.52045  20879333.9144                   20879331.8404
  -5407043.68046  -3820701.62943  23342091.9534                   23342090.7344
 -26656148.09447 -20728192.82845  21608365.5634                   21608364.1914
 -64318211.05547 -48588426.52344  21967718.1644                   21967717.2544
  -4448454.12146  -3402762.35244  23742784.3914                   23742785.1214
 -35105161.17246 -25926840.26243  23918808.4304                   23918809.1804
 -54685681.82847 -41741025.83646  20596709.3054                   20596704.6374
 11  8 20  0 31  0.0000000  0  9G12G17G10G30G05G04G25G09G02
 -33849541.42247 -26334486.41845  21171746.1484                   21171743.8244
 -80533462.27746 -62710381.52743  23341837.5554                   23341836.7274
 -46378725.99647 -35463700.38745  20864243.2894                   20864241.4414
  -5592161.08646  -3964948.89143  23306865.3914                   23306864.2304
 -26831518.05947 -20864844.68745  21574993.7114                   21574992.3794
 -64331436.41447 -48598732.02344  21965201.6564                   21965200.2774
  -4636518.29746  -3549305.81243  23706996.4454                   23706997.5204
 -35116810.05946 -25935917.44943  23916590.9454                   23916592.9184
 -54772518.69547 -41808690.91846  20580184.9614                   20580180.6024
 11  8 20  0 31 30.0000000  0  9G12G17G10G30G05G04G25G09G02
 -33992720.31647 -26446054.38345  21144500.6254                   21144497.9494
 -80570088.26246 -62738921.29743  23334867.9694                   23334866.4614
 -46457360.53147 -35524974.03945  20849280.0784                   20849277.7544
  -5776923.44146  -4108919.51243  23271706.5944                   23271705.0634
 -27006488.25847 -21001185.03945  21541698.2344                   21541696.6294
 -64344526.96147 -48608932.46144  21962711.4774                   21962709.6054
  -4824320.37146  -3695645.04743  23671258.7734                   23671260.3094
 -35128322.90246 -25944888.57443  23914400.4844                   23914402.1334
 -54859053.52047 -41876120.64846  20563717.8834                   20563713.1024
 11  8 20  0 32  0.0000000  0  9G12G17G10G30G05G04G25G09G02
 -34135391.90247 -26557227.03945  21117350.6804                   21117348.2774
 -80606513.92646 -62767304.94943  23327936.5004                   23327934.8554
 -46535333.23447 -35585731.97745  20834441.8594                   20834439.8284
  -5961332.05146  -4252614.46943  23236613.7664                   23236612.6644
 -27181060.44547 -21137215.25845  21508477.7344                   21508476.1484
 -64357488.78147 -48619032.59844  21960244.5314                   21960242.9224
  -5011861.75846  -3841781.16443  23635571.6484                   23635571.9804
 -35139706.94946 -25953759.35243  23912233.7194                   23912235.5474
 -54945291.21147 -41943318.82846  20547307.5234                   20547302.7344
 11  8 20  0 32 30.0000000  0  9G12G17G10G30G05G04G25G09G02
 -34277548.35247 -26667998.28945  21090299.6094                   21090297.0634
 -80642732.97746 -62795527.63343  23321044.5004                   23321042.8524
 -46612638.98847 -35645970.20345  20819731.1724                   20819729.3094
  -6145378.22746  -4396027.03943  23201590.8834                   23201590.2624
 -27355225.77747 -21272928.44945  21475335.1954                   21475334.1954
 -64370317.74647 -48629029.22744  21957803.0474                   21957801.5704
  -5199134.05146  -3987707.57443  23599933.5864                   23599934.7034
 -35150959.68046 -25962527.85243  23910093.5084                   23910095.2464
 -55031227.82847 -42010282.42246  20530954.4224                   20530949.6524
 11  8 20  0 33  0.0000000  0  9G12G17G10G30G05G04G25G09G02
 -34419190.01647 -26778368.41445  21063346.2034                   21063343.2544
 -80678747.15246 -62823590.68443  23314190.2424                   23314189.7704
 -46689280.74247 -35705691.03545  20805146.9774                   20805144.7774
  -6329061.85246  -4539157.09043  23166637.6024                   23166636.0044
 -27528984.24647 -21408324.60545  21442269.7814                   21442268.7034
 -64383018.33647 -48638925.80144  21955386.5704                   21955385.0044
  -5386137.19546  -4133424.25443  23564348.8754                   23564349.9654
 -35162086.98446 -25971198.56642  23907976.3364                   23907977.6684
 -55116866.71947 -42077014.02046  20514657.3444                   20514653.1604
 11  8 20  0 33 30.0000000  0  9G12G17G10G30G05G04G25G09G02
 -34560317.31647 -26888337.72745  21036490.4844                   21036487.6684
 -80714558.71546 -62851495.87143  23307375.7114                   23307375.1414
 -46765261.27347 -35764896.63345  20790688.3594                   20790686.3404
  -6512382.62146  -4682004.34043  23131752.6334                   23131751.1644
 -27702335.81247 -21543403.68745  21409282.7664                   21409281.0554
 -64395594.73447 -48648725.60944  21952992.9144                   21952991.4574
  -5572870.87546  -4278930.96543  23528814.6644                   23528815.3634
 -35173094.75846 -25979776.13743  23905881.2114                   23905882.6374
 -55202211.57447 -42143516.48846  20498416.7974                   20498412.6524
 11  8 20  0 34  0.0000000  0  9G12G17G10G30G05G04G25G09G02
 -33125501.64147 -25770299.53145  21309526.7504                   21309523.6804
 -79174744.16446 -61651640.46143  23600393.4774                   23600391.9614
 -45265156.50447 -34595983.80945  21076148.8444                   21076146.6564
  -5119909.49246  -3596960.32843  23396731.7344                   23396730.3324
 -26299849.75047 -20450557.34845  21676166.9304                   21676165.2194
 -62832626.36347 -47430828.20744  22250416.0704                   22250414.4614
  -4183904.24246  -3196619.24643  23793125.0704                   23793127.0204
 -33608563.91845 -24760661.33643  24203601.7974                   24203602.7734
 -53711838.66447 -40982186.93746  20782026.2664                   20782021.1724
 11  8 20  0 34 30.0000000  0  9G12G17G10G30G05G04G25G09G02
 -33265593.18747 -25879461.76645  21282868.0784                   21282865.5434
 -79210147.80146 -61679227.77743  23593656.0474                   23593655.4414
 -45339815.19547 -34654159.38745  21061941.7424                   21061939.6804
  -5302494.93746  -3739234.62943  23361986.7194                   23361984.8794
 -26472378.35947 -20584995.16845  21643335.1884                   21643333.6914
 -62844958.68047 -47440437.82844  22248069.2664                   22248067.7464
  -4370090.07046  -3341699.05943  23757695.8594                   23757697.0784
 -33619341.61346 -24769059.64543  24201550.5394                   24201552.7734
 -53796598.07447 -41048233.23045  20765895.8594                   20765891.4844
 11  8 20  0 35  0.0000000  0  9G12G17G10G30G05G04G25G09G02
 -33405161.78947 -25988216.50845  21256308.9534                   21256306.6954
 -79245344.30146 -61706653.70743  23586958.6804                   23586958.3524
 -45413811.60947 -34711818.90645  21047860.3594                   21047858.4494
  -5484706.37546  -3881217.52743  23327313.0704                   23327311.1254
 -26644489.45347 -20719107.64845  21610584.4454                   21610581.9304
 -62857169.46947 -47449952.76244  22245745.5474                   22245744.1094
  -4555995.84446  -3486560.61343  23722319.1334                   23722319.8484
 -33630007.12146 -24777370.53942  24199521.5554                   24199523.2114
 -53881064.64847 -41114051.32846  20749822.7734                   20749818.3134
 11  8 20  0 35 30.0000000  0  9G12G17G10G30G05G04G25G09G02
 -33544209.99247 -26096565.74645  21229848.6954                   21229846.5354
 -79280338.56646 -61733922.04343  23580298.9774                   23580299.2384
 -45487150.68447 -34768966.22345  21033904.2274                   21033902.3554
  -5666545.47746  -4022910.27743  23292710.1484                   23292708.1414
 -26816184.37547 -20852895.84445  21577911.1564                   21577909.8954
 -62869264.95347 -47459377.82044  22243443.6724                   22243442.5164
  -4741623.30546  -3631205.34443  23686995.7194                   23686996.7034
 -33640567.91446 -24785599.84843  24197511.6564                   24197513.4694
 -53965243.81647 -41179645.46546  20733803.7584                   20733799.3054
 11  8 20  0 36  0.0000000  0  9G12G17G10G30G05G04G25G09G02
 -33682729.96547 -26204503.37945  21203489.4064                   21203486.9694
 -79315123.78146 -61761027.47344  23573680.0554                   23573679.5704
 -45559827.31647 -34825597.34445  21020074.6954                   21020072.6254
  -5848003.66846  -4164306.21943  23258179.5474                   23258177.9614
 -26987455.23447 -20986353.60245  21545319.5234                   21545317.9454
 -62881240.92647 -47468709.79344  22241165.1254                   22241163.4024
  -4926963.99246  -3775626.61343  23651726.2894                   23651727.0784
 -33651021.59046 -24793745.65643  24195522.1484                   24195524.1294
 -54049130.94947 -41245012.05546  20717841.0004                   20717836.2154
 11  8 20  0 36 30.0000000  0  9G12G17G10G30G05G04G25G09G02
 -33820722.76647 -26312030.21945  21177230.4694                   21177227.8594
 -79349702.28946 -61787971.83244  23567100.5234                   23567099.4144
 -45631845.25847 -34881715.20345  21006370.2114                   21006368.1604
  -6029081.15646  -4305405.52343  23223721.6484                   23223720.4304
 -27158302.16047 -21119481.03145  21512808.2504                   21512807.0594
 -62893102.11347 -47477952.30144  22238908.2664                   22238906.4964
  -5112018.18046  -3919824.62944  23616512.3594                   23616512.4104
 -33661374.33646 -24801812.87143  24193552.1024                   24193553.9774
 -54132730.16047 -41310154.29345  20701932.7034                   20701927.8874
 11  8 20  0 37  0.0000000  0  9G12G17G10G30G05G04G25G09G02
 -33958185.92647 -26419144.37145  21151072.0784                   21151069.3244
 -79384073.84046 -61814754.92643  23560560.2274                   23560558.9224
 -45703204.72347 -34937319.96945  20992791.0164                   20992788.8364
  -6209774.85546  -4446205.77043  23189337.1094                   23189335.4064
 -27328722.36347 -21252275.94145  21480378.2034                   21480376.8524
 -62904849.96947 -47487106.50844  22236672.5164                   22236671.1564
  -5296782.95346  -4063797.11743  23581352.0634                   23581352.5004
 -33671629.21946 -24809803.79343  24191601.4774                   24191603.0744
 -54216042.74647 -41375073.18446  20686078.5394                   20686074.1174
 11  8 20  0 37 30.0000000  0  9G12G17G10G30G05G04G25G09G02
 -34095117.06247 -26525843.94945  21125015.1804                   21125012.1604
 -79418237.23046 -61841375.82443  23554058.7114                   23554057.9454
 -45773905.68747 -34992411.61345  20979336.7194                   20979334.5634
  -6390081.35246  -4586704.31243  23155025.4534                   23155024.2304
 -27498712.78547 -21384735.95345  21448030.0004                   21448028.6054
 -62916485.69947 -47496173.33644  22234458.2504                   22234456.9964
  -5481255.00846  -4207541.53543  23546248.0234                   23546248.6484
 -33681788.83646 -24817720.49643  24189668.1334                   24189669.6024
 -54299068.97347 -41439768.94145  20670279.3364                   20670274.4734
 11  8 20  0 38  0.0000000  0  9G12G17G10G30G05G04G25G09G02
 -34231514.82047 -26632127.91045  21099058.8524                   21099056.4694
 -79452192.45346 -61867834.51643  23547597.3284                   23547596.2344
 -45843949.67647 -35046991.32445  20966007.9064                   20966005.5864
  -6569998.53246  -4726899.47143  23120789.0944                   23120787.5904
 -27668271.20747 -21516859.34045  21415764.3834                   21415762.7974
 -62928011.31647 -47505154.35944  22232265.0004                   22232263.7974
  -5665432.24646  -4351056.19543  23511200.1174                   23511201.0474
 -33691857.01646 -24825565.93743  24187753.0314                   24187754.3984
 -54381810.68047 -41504242.99646  20654534.0634                   20654529.6174
 11  8 20  0 38 30.0000000  0  9G12G17G10G30G05G04G25G09G02
 -34367378.82847 -26737995.96945  21073205.5164                   21073202.6954
 -79485940.46546 -61894131.69143  23541174.8204                   23541173.6174
 -45913339.07047 -35101060.96545  20952803.4694                   20952801.6134
  -6749524.93046  -4866790.13743  23086625.9924                   23086624.6764
 -27837396.39147 -21648645.14845  21383580.8284                   21383579.1454
 -62939430.10547 -47514052.16444  22230091.7424                   22230090.5514
  -5849313.38746  -4494340.18043  23476208.1954                   23476209.5904
 -33701838.62946 -24833343.91843  24185852.1564                   24185854.7234
 -54464270.43047 -41568497.34846  20638842.2814                   20638837.8364
 11  8 20  0 39  0.0000000  0  9G12G17G10G30G05G04G25G09G02
 -34502706.49247 -26843446.08645  21047452.9774                   21047450.5314
 -79519480.12146 -61920266.55943  23534792.0004                   23534791.6644
 -45982073.78947 -35154620.46945  20939723.4454                   20939721.7154
  -6928656.95746  -5006373.50843  23052538.1644                   23052536.5274
 -28006084.91047 -21780090.69945  21351480.4144                   21351478.5394
 -62950742.91447 -47522867.34844  22227939.5634                   22227938.0084
  -6032895.00846  -4637390.75843  23441274.2424                   23441274.9494
 -33711735.94546 -24841056.19143  24183969.3594                   24183971.2854
 -54546448.94547 -41632532.55146  20623203.9144                   20623199.7234
 11  8 20  0 39 30.0000000  0  9G12G17G10G30G05G04G25G09G02
 -34637496.21147 -26948477.04345  21021803.9614                   21021800.5124
 -79552811.08246 -61946238.77343  23528449.8524                   23528448.8014
 -46050154.75847 -35207670.55545  20926768.0864                   20926765.6724
  -7107392.26246  -5145647.73843  23018526.0084                   23018523.9734
 -28174334.36747 -21911194.12145  21319463.4844                   21319461.7584
 -62961951.61747 -47531601.43744  22225806.6094                   22225805.0944
  -6216174.70746  -4780206.09444  23406397.3524                   23406398.0824
 -33721552.62146 -24848705.64543  24182101.2114                   24182103.5984
 -54628347.83647 -41696349.86346  20607619.3054                   20607615.0944
 11  8 20  0 40  0.0000000  0  9G12G17G10G30G05G04G25G09G02
 -34771745.25847 -27053086.68045  20996256.6484                   20996253.8594
 -79585932.42646 -61972047.64543  23522147.3984                   23522146.0824
 -46117582.12147 -35260211.34045  20913937.1174                   20913935.6484
  -7285727.25446  -5284610.03143  22984589.4774                   22984588.3054
 -28342141.95347 -22041953.22745  21287530.8754                   21287529.4694
 -62973057.34446 -47540255.28544  22223693.0944                   22223691.6524
  -6399148.99646  -4922783.41844  23371578.3914                   23371579.0314
 -33731290.84846 -24856293.94943  24180248.8054                   24180250.2384
 -54709967.35247 -41759949.48845  20592087.9924                   20592083.1644
 11  8 20  0 40 30.0000000  0  9G12G17G10G30G05G04G25G09G02
 -34905452.64847 -27157274.27345  20970813.0234                   20970810.2304
 -79618844.54346 -61997693.50443  23515883.5554                   23515882.7424
 -46184357.71147 -35312244.27045  20901230.4614                   20901228.0704
  -7463660.24246  -5423259.08243  22950730.2664                   22950728.5354
 -28509505.91447 -22172366.64845  21255682.3754                   21255680.9494
 -62984062.44947 -47548830.69944  22221599.4454                   22221597.5124
  -6581816.29746  -5065121.53944  23336817.9924                   23336818.5434
 -33740955.12146 -24863824.66443  24178409.7664                   24178411.2894
 -54791309.27747 -41823332.80145  20576608.7974                   20576604.5004
 11  8 20  0 41  0.0000000  0  9G12G17G10G30G05G04G25G09G02
 -35038617.45347 -27261039.05145  20945472.4454                   20945469.9774
 -79651547.91046 -62023176.72743  23509661.9224                   23509660.4964
 -46250483.07847 -35363770.50845  20888647.0084                   20888645.2344
  -7641188.91446  -5561593.08643  22916947.6334                   22916946.1724
 -28676424.28147 -22302432.85545  21223918.6644                   21223917.6954
 -62994969.16047 -47557329.46544  22219523.6484                   22219522.2624
  -6764174.32446  -5207218.65643  23302116.2424                   23302117.0354
 -33750549.41446 -24871300.80543  24176583.6564                   24176585.6804
 -54872375.70747 -41886501.44546  20561182.6644                   20561178.1954
 11  8 20  0 41 30.0000000  0  9G12G17G10G30G05G04G25G09G02
 -35171237.11347 -27364379.03945  20920236.3204                   20920233.2704
 -79684041.35246 -62048496.34043  23503478.1884                   23503476.8794
 -46315958.43047 -35414790.25445  20876187.6564                   20876185.2704
  -7818310.13346  -5699609.59443  22883242.4774                   22883241.0594
 -28842894.02047 -22432149.48845  21192240.5394                   21192239.0944
 -63005778.51647 -47565752.35244  22217466.0634                   22217464.7504
  -6946219.97346  -5349072.39144  23267473.9534                   23267474.8794
 -33760075.98846 -24878724.18743  24174771.1564                   24174772.9264
 -54953167.33247 -41949455.95745  20545808.4224                   20545803.6604
 11  8 20  0 42  0.0000000  0  9G12G17G10G30G05G04G25G09G02
 -35303310.71547 -27467293.53945  20895103.6414                   20895100.6214
 -79716325.19146 -62073652.64143  23497335.4614                   23497333.6374
 -46380785.67247 -35465304.98445  20863851.3984                   20863849.4574
  -7995021.80546  -5837306.96543  22849615.4844                   22849613.8014
 -29008913.07447 -22561514.93745  21160648.2734                   21160646.5234
 -63016492.85947 -47574101.23044  22215427.7664                   22215426.3134
  -7127951.25446  -5490681.12944  23232891.7034                   23232892.4924
 -33769538.74646 -24886097.89542  24172969.9384                   24172972.3554
 -55033686.24647 -42012197.97346  20530486.0004                   20530481.8244
 11  8 20  0 42 30.0000000  0  9G12G17G10G30G05G04G25G09G02
 -33859414.19547 -26342179.36745  21169867.8284                   21169864.9924
 -78172980.08646 -60871046.11343  23791022.9304                   23791022.6684
 -44869545.57047 -34287715.28545  21151429.9454                   21151428.5704
  -6595897.42646  -4747080.11343  23115860.0084                   23115858.6804
 -27599055.89847 -21462924.87545  21428934.8674                   21428933.4694
 -61451695.52747 -46354778.63744  22513198.6174                   22513197.4024
  -5733941.50846  -4404439.71144  23498163.6484                   23498163.9654
 -32203522.86746 -23665825.84443  24470973.7504                   24470975.5394
 -53538513.03147 -40847127.93046  20815007.8674                   20815003.7584
 11  8 20  0 43  0.0000000  0  9G12G17G10G30G05G04G25G09G02
 -33990392.69947 -26444240.53545  21144943.4454                   21144940.6374
 -78204846.17646 -60895876.87543  23784958.9614                   23784958.3094
 -44933081.45347 -34337223.75445  21139339.9144                   21139338.2154
  -6771784.20346  -4884134.70743  23082389.4454                   23082387.9454
 -27764169.02347 -21591584.40245  21397515.3834                   21397513.2704
 -61462227.06247 -46362985.07444  22511194.7034                   22511193.6414
  -5915038.36346  -4545554.10244  23463701.6804                   23463702.3484
 -32212870.62546 -23673109.98442  24469195.6884                   24469197.2504
 -53618492.59047 -40909449.67246  20799788.4694                   20799784.0864
 11  8 20  0 43 30.0000000  0  9G12G17G10G30G05G04G25G09G02
 -34120819.09847 -26545871.48045  21120124.1174                   21120121.1994
 -78236500.68746 -60920542.77743  23778935.4694                   23778934.8284
 -44995971.31247 -34386228.83245  21127372.2894                   21127370.5164
  -6947252.60946  -5020863.30543  23048999.5004                   23048997.1214
 -27928823.63747 -21719886.65245  21366182.4064                   21366180.9774
 -61472667.67646 -46371120.64144  22509207.7504                   22509206.2384
  -6095812.10546  -4686416.73844  23429300.6174                   23429302.3364
 -32222163.39146 -23680351.14142  24467426.6564                   24467428.8164
 -53698201.78947 -40971560.72345  20784620.1174                   20784615.6604
 11  8 20  0 44  0.0000000  0  9G12G17G10G30G05G04G25G09G02
 -34250692.17647 -26647071.27745  21095410.0084                   21095407.4494
 -78267943.80946 -60945043.95343  23772952.4694                   23772951.8324
 -45058216.72347 -34434731.75845  21115527.6254                   21115525.0864
  -7122300.21946  -5157264.00043  23015688.5314                   23015686.5864
 -28093017.62947 -21847829.97345  21334937.2034                   21334935.5704
 -61483019.23847 -46379186.80944  22507238.1254                   22507236.9144
  -6276260.36746  -4827025.70744  23394963.4694                   23394962.9064
 -32231404.60946 -23687552.23842  24465667.7424                   24465669.9804
 -53777642.53547 -41033462.60945  20769503.1254                   20769499.1764
 11  8 20  0 44 30.0000000  0  9G12G17G10G30G05G04G25G09G02
 -34380009.47347 -26747838.00045  21070801.8134                   21070798.9844
 -78299174.10946 -60969379.28143  23767009.9064                   23767008.5984
 -45119817.45347 -34482732.31645  21103804.6724                   21103803.6604
  -7296923.41846  -5293333.98843  22982459.3594                   22982457.3794
 -28256747.83247 -21975411.89845  21303780.5634                   21303778.7894
 -61493282.20747 -46387183.93744  22505285.1414                   22505283.4884
  -6456379.60246  -4967378.30543  23360687.9774                   23360688.1054
 -32240596.87545 -23694715.12942  24463919.0164                   24463920.9654
 -53856815.23447 -41095155.60945  20754437.0944                   20754432.5394
 11  8 20  0 45  0.0000000  0  9G12G17G10G30G05G04G25G09G02
 -34508768.27047 -26848169.51645  21046299.5394                   21046296.7424
 -78330190.44946 -60993547.90043  23761107.5784                   23761106.7154
 -45180774.15647 -34530231.03545  21092205.4304                   21092203.5554
  -7471118.74246  -5429070.55143  22949310.5864                   22949308.9304
 -28420010.82047 -22102629.76645  21272712.6024                   21272710.8444
 -61503457.52747 -46395112.77744  22503348.6254                   22503347.7734
  -6636166.31646  -5107471.81644  23326475.6954                   23326475.9344
 -32249742.47345 -23701841.70742  24462178.6954                   24462181.1484
 -53935720.04347 -41156639.87146  20739422.0864                   20739417.8014
 11  8 20  0 45 30.0000000  0  9G12G17G10G30G05G04G25G09G02
 -34636969.03147 -26948066.20345  21021903.8984                   21021900.8134
 -78360994.73046 -61017551.29343  23755245.7344                   23755244.6174
 -45241090.32447 -34577230.66445  21080727.3444                   21080725.7774
  -7644885.65746  -5564473.30343  22916243.6954                   22916242.0864
 -28582806.38747 -22229483.40645  21241733.2034                   21241731.9924
 -61513548.87946 -46402976.18744  22501428.5784                   22501427.2704
  -6815620.09046  -5247305.87544  23292326.0394                   23292326.6094
 -32258846.71145 -23708936.00842  24460446.1414                   24460449.2854
 -54014360.81247 -41217918.37945  20724457.4534                   20724452.7154
 11  8 20  0 46  0.0000000  0  9G12G17G10G30G05G04G25G09G02
 -34764609.14547 -27047526.02345  20997615.0084                   20997611.8834
 -78391585.18746 -61041388.04743  23749424.0784                   23749423.8984
 -45300765.55147 -34623730.83245  21069372.7814                   21069369.9414
  -7818220.18746  -5699539.13343  22883259.3594                   22883257.7074
 -28745130.64547 -22355969.78945  21210843.8594                   21210842.5664
 -61523556.48047 -46410774.34044  22499523.8524                   22499522.5824
  -6994736.82046  -5386877.30944  23258242.2664                   23258241.7034
 -32267911.50845 -23715999.61742  24458721.5704                   24458724.1724
 -54092737.28147 -41278990.95346  20709542.5474                   20709537.8164
 11  8 20  0 46 30.0000000  0  9G12G17G10G30G05G04G25G09G02
 -34891689.15647 -27146549.39545  20973431.9384                   20973429.3324
 -78421963.93046 -61065059.83243  23743642.2034                   23743643.0704
 -45359803.52347 -34669734.45345  21058137.8204                   21058135.3754
  -7991122.10246  -5834267.85243  22850357.7114                   22850355.9734
 -28906984.08247 -22482089.30545  21180044.3054                   21180042.3754
 -61533484.29346 -46418510.31244  22497634.8914                   22497633.6024
  -7173516.38346  -5526186.02043  23224221.2274                   23224221.3674
 -32276942.23845 -23723036.65242  24457002.3204                   24457005.7504
 -54170853.17247 -41339860.46145  20694677.7034                   20694673.0904
 11  8 20  0 47  0.0000000  0  9G12G17G10G30G05G04G25G09G02
 -35018205.55547 -27245133.59445  20949357.0634                   20949354.6214
 -78452128.87546 -61088565.04743  23737904.1644                   23737903.1414
 -45418203.67647 -34715241.06245  21047024.8754                   21047022.7234
  -8163587.11346  -5968656.12943  22817537.9384                   22817536.6414
 -29068362.27047 -22607838.49645  21149334.5164                   21149333.1804
 -61543332.01646 -46426183.88344  22495761.0004                   22495760.1884
  -7351954.47346  -5665228.64544  23190264.6884                   23190265.5354
 -32285940.57045 -23730048.44143  24455290.9454                   24455293.6374
 -54248707.48447 -41400526.14545  20679862.3674                   20679857.6884
 11  8 20  0 47 30.0000000  0  9G12G17G10G30G05G04G25G09G02
 -35144154.06247 -27343275.27345  20925389.8444                   20925386.8594
 -78482076.74646 -61111901.10243  23732205.9224                   23732204.2344
 -45475964.17247 -34760249.25045  21036032.9924                   21036031.0204
  -8335609.36346  -6102699.39143  22784802.1174                   22784801.8794
 -29229259.66847 -22733213.04745  21118717.2114                   21118715.9414
 -61553098.02046 -46433793.78144  22493902.7584                   22493901.5554
  -7530045.12946  -5804000.52343  23156375.9924                   23156375.6644
 -32294906.44145 -23737035.00442  24453583.6564                   24453587.9344
 -54326298.84847 -41460986.93445  20665097.4924                   20665092.8954
 11  8 20  0 48  0.0000000  0  9G12G17G10G30G05G04G25G09G02
 -35269537.43447 -27440976.58245  20901530.0084                   20901527.5594
 -78511811.52745 -61135071.15243  23726546.0944                   23726545.9924
 -45533090.53947 -34804763.29345  21025161.9304                   21025160.0004
  -8507190.41446  -6236398.87143  22752152.2344                   22752151.0864
 -29389678.55547 -22858214.72745  21088190.8524                   21088188.5664
 -61562788.13746 -46441344.53144  22492058.5784                   22492057.4344
  -7707790.09846  -5942503.08243  23122551.8134                   23122552.2464
 -32303847.38345 -23744002.06642  24451883.2814                   24451886.5784
 -54403632.32847 -41521246.76646  20650381.0394                   20650376.8324
 11  8 20  0 48 30.0000000  0  9G12G17G10G30G05G04G25G09G02
 -35394354.69947 -27538236.77745  20877778.0004                   20877775.0474
 -78541333.34845 -61158075.25443  23720928.0394                   23720928.3164
 -45589585.18047 -34848785.08645  21014411.3054                   21014409.5434
  -8678328.52346  -6369753.19144  22719585.9144                   22719584.3984
 -29549617.61347 -22982842.52045  21057755.4384                   21057753.4654
 -61572404.63746 -46448837.91443  22490228.8054                   22490227.6134
  -7885187.47346  -6080734.73444  23088794.1954                   23088794.4964
 -32312767.00845 -23750952.55542  24450186.0784                   24450188.8794
 -54480709.82047 -41581307.13346  20635714.1024                   20635709.5314
 11  8 20  0 49  0.0000000  0  9G12G17G10G30G05G04G25G09G02
 -35518599.41847 -27635050.82845  20854135.1564                   20854132.3714
 -78570637.15246 -61180909.42243  23715352.5084                   23715352.5434
 -45645444.29347 -34892311.67245  21003782.4384                   21003780.1844
  -8849015.97746  -6502756.35943  22687105.5704                   22687103.6804
 -29709068.88747 -23107090.21945  21027412.8054                   21027410.6454
 -61581943.87147 -46456271.09444  22488413.3754                   22488412.4224
  -8062229.57046  -6218689.56644  23055104.2584                   23055104.7974
 -32321663.50846 -23757885.05542  24448493.9384                   24448495.5704
 -54557528.27047 -41641165.65645  20621095.8594                   20621091.3594
 11  8 20  0 49 30.0000000  0  9G12G17G10G30G05G04G25G09G02
 -35642271.97347 -27731419.05545  20830601.2584                   20830597.8984
 -78599724.70746 -61203575.10943  23709816.9454                   23709816.7704
 -45700670.94147 -34935345.43445  20993272.6334                   20993270.2734
  -9019252.04346  -6635407.79344  22654710.2814                   22654708.5354
 -29868031.98447 -23230957.52045  20997163.0314                   20997161.2734
 -61591409.21147 -46463646.70344  22486612.7814                   22486610.8674
  -8238915.64146  -6356366.97744  23021481.0554                   23021482.3014
 -32330541.79746 -23764803.30143  24446803.0864                   24446806.2934
 -54634090.33247 -41700824.39145  20606526.7424                   20606522.0864
 11  8 20  0 50  0.0000000  0  9G12G17G10G30G05G04G25G09G02
 -35765372.53947 -27827341.55945  20807175.4454                   20807172.9734
 -78628596.84046 -61226072.94543  23704322.4694                   23704322.6804
 -45755267.78947 -34977888.43445  20982883.2664                   20982881.2854
  -9189035.54746  -6767706.57044  22622401.4774                   22622400.1994
 -30026506.62547 -23354444.20745  20967006.2424                   20967004.4414
 -61600803.51647 -46470966.95744  22484825.0784                   22484823.2384
  -8415244.48046  -6493766.03144  22987927.2734                   22987928.1914
 -32339406.56246 -23771711.03543  24445117.0634                   24445119.1524
 -54710398.47747 -41760285.27346  20592005.8284                   20592001.0274
 11  8 20  0 50 30.0000000  0  9G12G17G10G30G05G04G25G09G02
 -35887898.07047 -27922815.98045  20783859.7974                   20783856.9734
 -78657252.06646 -61248401.73043  23698870.3054                   23698869.7774
 -45809235.37147 -35019941.09445  20972613.7424                   20972611.5004
  -9358362.85546  -6899649.87943  22590180.2034                   22590178.0314
 -30184489.37947 -23477547.61345  20936943.0704                   20936941.2384
 -61610127.10547 -46478232.08643  22483050.7344                   22483048.9534
  -8591212.30946  -6630883.75044  22954442.5784                   22954442.3324
 -32348259.57846 -23778609.61743  24443433.0234                   24443434.4534
 -54786452.73847 -41819548.32046  20577533.1484                   20577528.5704
 11  8 20  0 51  0.0000000  0  9G12G17G10G30G05G04G25G09G02
 -34434426.03147 -26790240.35945  21060446.4454                   21060443.7934
 -77110271.64146 -60042962.47343  23993250.8524                   23993250.5904
 -44287155.73447 -33833905.01645  21262255.6884                   21262253.5904
  -7951808.18446  -5803633.19943  22857837.9694                   22857836.3014
 -28766555.20347 -22372663.79745  21206766.8914                   21206764.9414
 -60043963.57846 -45257844.94943  22781081.8914                   22781079.7504
  -7191393.25046  -5540115.60944  23220818.4144                   23220819.2384
 -30781686.13346 -22557903.17643  24741541.7034                   24741543.7584
 -53286834.75847 -40651014.81645  20862900.8984                   20862896.1214
 11  8 20  0 51 30.0000000  0  9G12G17G10G30G05G04G25G09G02
 -34555800.87947 -26884818.16045  21037349.3134                   21037346.8134
 -77138495.48045 -60064955.11343  23987879.8134                   23987879.8094
 -44339871.97347 -33874982.60245  21252223.9534                   21252222.4064
  -8120218.33246  -5934861.83243  22825790.5784                   22825788.8524
 -28923550.27347 -22494997.57045  21176891.2584                   21176889.6484
 -60053152.95346 -45265005.53144  22779332.7344                   22779331.2384
  -7366634.40247  -5676667.10544  23187471.6884                   23187471.6644
 -30790527.85946 -22564792.95343  24739858.8054                   24739861.1054
 -53362388.62947 -40709887.95346  20848523.6334                   20848518.5274
 11  8 20  0 52  0.0000000  0  9G12G17G10G30G05G04G25G09G02
 -34676599.60247 -26978947.01645  21014362.7664                   21014359.3834
 -77166504.48846 -60086780.36743  23982550.9454                   23982550.3834
 -44391965.98847 -33915575.33645  21242311.1024                   21242309.0274
  -8288167.16846  -6065730.99243  22793830.5084                   22793829.0514
 -29080049.17247 -22616944.71545  21147111.0784                   21147108.8754
 -60062278.54746 -45272116.39143  22777596.3444                   22777594.8954
  -7541509.35547  -5812933.26644  23154193.9304                   23154194.1954
 -30799369.78546 -22571682.95343  24738176.5394                   24738179.3054
 -53437695.10947 -40768568.32045  20834192.6954                   20834188.2074
 11  8 20  0 52 30.0000000  0  9G12G17G10G30G05G04G25G09G02
 -34796818.00847 -27072623.69545  20991485.7814                   20991483.1214
 -77194295.46146 -60108435.67243  23977262.0944                   23977261.4924
 -44443436.30947 -33955682.07445  21232516.7344                   21232514.1804
  -8455649.44946  -6196236.64143  22761960.4614                   22761958.2464
 -29236047.05947 -22738501.46145  21117425.3914                   21117423.4414
 -60071338.93746 -45279176.47343  22775871.5634                   22775871.1914
  -7716012.74247  -5948909.87544  23120986.6334                   23120987.0314
 -30808212.11346 -22578573.15242  24736494.5634                   24736497.2234
 -53512752.54747 -40827054.62946  20819909.6804                   20819905.2274
 11  8 20  0 53  0.0000000  0  9G12G17G10G30G05G04G25G09G02
 -34916456.37947 -27165848.39545  20968719.0394                   20968716.4534
 -77221869.78546 -60129922.16043  23972013.8054                   23972014.0204
 -44494286.25447 -33995305.40645  21222839.9924                   21222838.3404
  -8622664.27346  -6326378.00843  22730178.1804                   22730176.2274
 -29391543.62547 -22859667.57445  21087835.1804                   21087833.2664
 -60080337.29746 -45286188.19944  22774160.2424                   22774158.5824
  -7890143.68047  -6084596.26644  23087850.1884                   23087851.1254
 -30817059.64546 -22585467.46943  24734810.1884                   24734813.0434
 -53587563.98847 -40885349.24646  20805673.9304                   20805669.6524
 11  8 20  0 53 30.0000000  0  9G12G17G10G30G05G04G25G09G02
 -35035512.80547 -27258619.63345  20946063.3834                   20946060.6214
 -77249227.23045 -60151239.69143  23966808.7814                   23966808.1094
 -44544516.46547 -34034445.82445  21213281.7974                   21213279.7664
  -8789208.58246  -6456152.75443  22698485.5004                   22698484.0944
 -29546535.92647 -22980440.74245  21058341.0474                   21058339.7624
 -60089274.18446 -45293152.02043  22772459.3984                   22772457.6724
  -8063898.98047  -6219989.96144  23054786.5394                   23054786.6804
 -30825915.02045 -22592367.89843  24733125.8834                   24733128.7934
 -53662130.07447 -40943452.68445  20791484.0704                   20791479.7034
 11  8 20  0 54  0.0000000  0  9G12G17G10G30G05G04G25G09G02
 -35153986.09047 -27350936.47345  20923518.5314                   20923515.6644
 -77276367.05545 -60172387.66042  23961644.4384                   23961643.8094
 -44594129.01247 -34073104.95745  21203840.7894                   21203838.1884
  -8955280.05946  -6585559.05543  22666883.2664                   22666881.5394
 -29701022.19547 -23100819.60545  21028943.2504                   21028941.4104
 -60098151.44546 -45300069.36344  22770769.7894                   22770768.3714
  -8237276.24647  -6355089.07844  23021792.9144                   23021793.4924
 -30834781.34445 -22599276.85542  24731438.3204                   24731441.7384
 -53736452.04347 -41001365.89846  20777341.1174                   20777336.8444
 11  8 20  0 54 30.0000000  0  9G12G17G10G30G05G04G25G09G02
 -35271874.22347 -27442797.34445  20901085.1884                   20901082.0944
 -77303288.52046 -60193365.40643  23956520.6484                   23956521.0394
 -44643124.84047 -34111283.51645  21194517.1644                   21194515.1214
  -9120875.21946  -6714594.21543  22635371.3594                   22635369.4654
 -29854999.37547 -23220801.77745  20999642.1954                   20999640.3714
 -60106969.41846 -45306940.55543  22769091.4534                   22769090.8134
  -8410271.97747  -6489890.91444  22988873.0704                   22988873.2774
 -30843660.65645 -22606195.92242  24729747.7194                   24729752.0704
 -53810530.13747 -41059089.09046  20763244.8054                   20763240.3204
 11  8 20  0 55  0.0000000  0  9G12G17G10G30G05G04G25G09G02
 -35389177.68447 -27534202.63746  20878763.8134                   20878760.5984
 -77329993.19946 -60214174.25443  23951439.4384                   23951438.7814
 -44691507.42647 -34148984.23445  21185310.3524                   21185308.1804
  -9285993.46546  -6843257.74643  22603950.4454                   22603948.6844
 -30008467.19147 -23340387.04745  20970438.8204                   20970436.8794
 -60115731.12146 -45313767.87543  22767424.6484                   22767423.6764
  -8582885.41046  -6624394.86744  22956026.6174                   22956026.3874
 -30852557.82845 -22613128.91042  24728055.5234                   24728059.3444
 -53884367.71947 -41116624.85946  20749193.7814                   20749189.2774
 11  8 20  0 55 30.0000000  0  9G12G17G10G30G05G04G25G09G02
 -35505893.80547 -27625150.26645  20856553.1094                   20856549.8714
 -77356479.19546 -60234812.72743  23946399.4144                   23946399.0044
 -44739276.73447 -34186207.05545  21176219.9384                   21176217.6804
  -9450630.62146  -6971546.39844  22572621.0704                   22572619.2934
 -30161422.09447 -23459572.64145  20941332.3754                   20941330.2664
 -60124436.46546 -45320551.26244  22765767.9694                   22765766.9224
  -8755112.39546  -6758597.66043  22923252.2424                   22923252.6024
 -30861474.34445 -22620077.02042  24726358.6414                   24726363.3054
 -53957964.16047 -41173972.73045  20735188.9384                   20735184.9024
 11  8 20  0 56  0.0000000  0  9G12G17G10G30G05G04G25G09G02
 -35622022.59047 -27715640.22745  20834454.5864                   20834451.6094
 -77382747.92646 -60255281.89143  23941400.7974                   23941400.1484
 -44786435.69547 -34222954.28945  21167245.7034                   21167243.7624
  -9614785.90246  -7099459.57844  22541383.6174                   22541381.7424
 -30313863.57447 -23578358.16045  20912323.4304                   20912321.5704
 -60133088.29747 -45327292.97744  22764122.0314                   22764120.8484
  -8926951.80146  -6892498.47344  22890552.0314                   22890552.3954
 -30870414.47345 -22627043.48042  24724658.0634                   24724663.3134
 -54031322.06647 -41231134.73446  20721229.6954                   20721224.7344
 11  8 20  0 56 30.0000000  0  9G12G17G10G30G05G04G25G09G02
 -35737563.63347 -27805672.21545  20812467.5634                   20812465.1804
 -77408799.39346 -60275581.74743  23936443.2504                   23936442.9064
 -44832986.54747 -34259227.66045  21158387.4924                   21158385.5124
  -9778457.16446  -7226995.59044  22510237.7034                   22510235.9304
 -30465789.96147 -23696742.32045  20883413.1094                   20883410.9104
 -60141688.19546 -45333994.21544  22762485.5944                   22762484.0164
  -9098401.60247  -7026095.69544  22857927.3204                   22857926.6454
 -30879381.648 5                  24722952.008
 -54104443.22747 -41288112.25845  20707314.6954                   20707310.3874
 11  8 20  0 57  0.0000000  0  9G12G17G10G30G05G04G25G09G02
 -35852515.01647 -27895244.71945  20790593.2034                   20790590.5084
 -77434632.63746 -60295711.55943  23931527.4144                   23931526.6094
 -44878930.28547 -34295027.96545  21149644.5084                   21149642.8484
  -9941641.27347  -7354152.02044  22479185.2664                   22479183.3874
 -30617198.44547 -23814722.91445  20854600.5554                   20854598.6724
 -60150236.82046 -45340655.50443  22760858.8054                   22760857.4224
  -9269458.37947  -7159386.67644  22825375.5234                   22825375.8364
 -30888378.129 5                  24721239.984
 -54177328.14847 -41344905.71145  20693445.1094                   20693440.5634
 11  8 20  0 57 30.0000000  0  9G12G17G10G30G05G04G25G09G02
 -35966876.77747 -27984357.78146  20768831.1174                   20768827.9614
 -77460248.90246 -60315672.32043  23926652.7194                   23926652.0434
 -44924269.70347 -34330357.36745  21141017.1414                   21141015.0124
 -10104336.97346  -7480927.86744  22448224.8984                   22448223.0434
 -30768088.21147 -23932299.31645  20825887.4144                   20825885.6484
 -60158736.69946 -45347278.79344  22759241.0704                   22759239.7624
  -9440120.88347  -7292370.42244  22792899.5634                   22792899.7034
 -30897408.371 5                  24719521.320
 -54249979.10947 -41401516.85545  20679620.4774                   20679616.0124
 11  8 20  0 58  0.0000000  0  9G12G17G10G30G05G04G25G09G02
 -36080648.88747 -28073011.37145  20747180.9454                   20747177.8874
 -77485649.00046 -60335464.66443  23921818.9454                   23921818.8284
 -44969007.98847 -34365218.35245  21132503.9224                   21132502.0354
 -10266542.96946  -7607322.13344  22417358.3914                   22417356.2154
 -30918458.44547 -24049470.88745  20797273.1174                   20797270.9494
 -60167190.30146 -45353866.02743  22757632.3134                   22757631.3204
  -9610387.55946  -7425045.72344  22760498.6954                   22760499.4064
 -30906476.367 5                  24717795.633
 -54322398.23447 -41457947.33645  20665839.6254                   20665834.9924
 11  8 20  0 58 30.0000000  0  9G12G17G10G30G05G04G25G09G02
 -36193827.75447 -28161202.69545  20725643.0634                   20725640.5594
 -77510830.39146 -60355086.55143  23917026.7504                   23917026.5864
 -45013144.35947 -34399610.31645  21124104.6564                   21124102.4024
 -10428254.37146  -7733330.99244  22386585.4844                   22386584.0124
 -31068304.55947 -24166234.05145  20768758.2974                   20768756.0394
 -60175596.24246 -45360416.13343  22756033.0084                   22756031.5594
  -9780253.47347  -7557408.75844  22728174.6174                   22728175.1374
 -30915582.324 5                  24716063.094
 -54394584.68447 -41514196.51245  20652102.7034                   20652098.5434
 11  8 20  0 59  0.0000000  0  9G12G17G10G30G05G04G25G09G02
 -36306413.42247 -28248931.79345  20704219.1254                   20704216.0744
 -77535794.23046 -60374538.90243  23912276.6724                   23912276.5164
 -45056681.48447 -34433535.33245  21115820.0554                   21115818.0204
 -10589469.98446  -7858953.51644  22355906.8594                   22355905.7114
 -31217626.05147 -24282588.42245  20740342.8594                   20740340.8954
 -60183957.03146 -45366931.04344  22754442.4534                   22754440.9144
  -9949717.26247  -7689458.44544  22695926.6174                   22695927.0594
 -30924730.383 5                  24714322.695
 -54466540.64147 -41570266.10245  20638409.8674                   20638405.3714
 11  8 20  0 59 30.0000000  0  9G12G17G10G30G05G04G25G09G02
 -36418403.93747 -28336197.12945  20682907.6094                   20682905.2854
 -77560539.22345 -60393820.76243  23907567.7584                   23907568.1334
 -45099620.51647 -34466994.29745  21107648.4694                   21107646.4494
 -10750186.58646  -7984187.23444  22325324.0394                   22325322.0274
 -31366420.09847 -24398531.78945  20712028.9064                   20712026.7624
 -60192273.05946 -45373411.12143  22752859.6804                   22752858.3714
 -10118775.52747  -7821192.13344  22663756.2034                   22663756.3094
 -30933922.687 5                  24712572.617
 -54538265.99247 -41626155.99245  20624760.9694                   20624756.7194
 11  8 20  1  0  0.0000000  0  8G12G17G10G30G05G04G25G02
 -34954376.64147 -27195396.64546  20961503.3914                   20961500.3984
 -76009646.30545 -59185332.82042  24202693.7034                   24202693.2274
 -43566543.65247 -33272388.93445  21399383.6804                   21399381.6054
  -9334978.35246  -6881427.55544  22594628.1564                   22594626.9494
 -29939261.67647 -23286460.26245  20983607.3364                   20983605.9264
 -58625127.21946 -44152258.55543  23051077.6954                   23051075.8524
  -8712001.95747  -6725004.92644  22931456.0864                   22931456.3714
 -53034341.95347 -40454267.13345  20910948.4774                   20910943.6954
 11  8 20  1  0 30.0000000  0  8G12G17G10G30G05G04G25G02
 -35065176.36347 -27281734.08245  20940418.5554                   20940415.8364
 -76033955.35245 -59204274.98442  24198066.8524                   24198067.5744
 -43608294.40647 -33304921.96945  21391438.3914                   21391436.5394
  -9494691.94946  -7005879.69144  22564236.8594                   22564235.0234
 -30086997.07847 -23401578.71945  20955494.6484                   20955492.4344
 -58633359.40646 -44158673.27343  23049510.7194                   23049509.9614
  -8880243.77347  -6856102.43044  22899440.5394                   22899440.9884
 -53105612.43047 -40509802.55945  20897386.2894                   20897381.8674
 11  8 20  1  1  0.0000000  0  8G12G17G10G30G05G04G25G02
 -35175375.35547 -27367603.42245  20919448.4454                   20919445.5164
 -76058042.70745 -59223044.43742  24193484.1884                   24193483.9964
 -43649449.80547 -33336991.09845  21383607.0784                   21383605.2194
  -9653896.78546  -7129935.39144  22533940.5634                   22533938.9694
 -30234196.77347 -23516279.73445  20927483.9844                   20927481.4454
 -58641547.76246 -44165053.84843  23047952.3834                   23047951.7074
  -9048069.77747  -6986875.90644  22867504.0704                   22867504.7624
 -53176653.34847 -40565159.12545  20883867.7194                   20883862.9144
 11  8 20  1  1 30.0000000  0  8G12G17G10G30G05G04G25G02
 -35284970.91447 -27453002.56245  20898593.1174                   20898590.2544
 -76081906.43445 -59241639.57442  24188942.5084                   24188943.0824
 -43690010.31647 -33368596.68445  21375888.7974                   21375886.2624
  -9812588.93446  -7253591.60543  22503742.0944                   22503740.7774
 -30380856.99647 -23630560.39545  20899574.7034                   20899572.5434
 -58649692.16846 -44171400.16843  23046402.8594                   23046401.7624
  -9215475.95347  -7117322.27044  22835648.0864                   22835648.4024
 -53247464.87147 -40620336.93745  20870392.5864                   20870388.0664
 11  8 20  1  2  0.0000000  0  8G12G17G10G30G05G04G25G02
 -35393961.91447 -27537930.60946  20877852.9534                   20877849.8404
 -76105545.64145 -59260059.80543  24184444.9534                   24184444.3714
 -43729977.50447 -33399739.94945  21368282.9774                   21368281.0164
  -9970765.36346  -7376845.94944  22473642.9144                   22473641.1254
 -30526975.35247 -23744418.82045  20871768.9614                   20871767.3834
 -58657793.01246 -44177712.57843  23044861.6724                   23044860.3674
  -9382459.09847  -7247438.99644  22803871.8284                   22803872.5084
 -53318046.97747 -40675335.97745  20856960.9144                   20856956.8014
 11  8 20  1  2 30.0000000  0  8G12G17G10G30G05G04G25G02
 -35502348.61347 -27622387.77045  20857227.7504                   20857224.9414
 -76128962.09445 -59278306.44143  24179988.1254                   24179987.8954
 -43769354.34047 -33430423.19145  21360789.9384                   21360787.7464
 -10128425.34846  -7499697.88744  22443640.6564                   22443639.0124
 -30672551.91447 -23857855.06645  20844067.1954                   20844065.0434
 -58665852.82046 -44183992.97743  23043327.4064                   23043326.8324
  -9549018.21947  -7377225.28944  22772177.1804                   22772177.3364
 -53388402.22747 -40730158.25445  20843573.0634                   20843568.6174
 11  8 20  1  3  0.0000000  0  8G12G17G10G30G05G04G25G02
 -35610131.06647 -27706374.09046  20836717.2194                   20836714.1484
 -76152156.50045 -59296380.05543  24175575.3284                   24175574.2734
 -43808144.21547 -33460649.07444  21353408.4614                   21353406.5594
 -10285567.59446  -7622146.38344  22413738.1884                   22413735.8674
 -30817585.24247 -23970868.00446  20816467.8204                   20816466.0234
 -58673874.15646 -44190243.43743  23041801.9064                   23041799.7704
  -9715151.86747  -7506680.06644  22740563.1094                   22740563.1024
 -53458532.91447 -40784805.53945  20830227.7734                   20830223.2894
 11  8 20  1  3 30.0000000  0  8G12G17G10G30G05G04G25G02
 -35717310.70347 -27789890.68745  20816321.7894                   20816318.9654
 -76175131.09846 -59314282.38743  24171203.6024                   24171202.4384
 -43846351.11347 -33490420.68444  21346138.2814                   21346135.5664
 -10442192.02046  -7744191.38344  22383932.5474                   22383931.3834
 -30962076.18447 -24083458.31246  20788972.4454                   20788969.9574
 -58681859.88746 -44196466.12543  23040281.6644                   23040280.2504
  -9880859.76247  -7635803.07444  22709029.6644                   22709029.9414
 -53528442.21947 -40839280.31245  20816924.4774                   20816920.0634
 11  8 20  1  4  0.0000000  0  8G12G17G10G30G05G04G25G02
 -35823886.90247 -27872937.07845  20796040.8444                   20796038.1644
 -76197885.80146 -59332013.35943  24166873.1094                   24166872.8484
 -43883977.23847 -33519739.75044  21338977.9144                   21338975.8054
 -10598296.46146  -7865831.19944  22354227.7734                   22354225.6804
 -31106023.21147 -24195624.78945  20761579.7894                   20761578.3324
 -58689811.52746 -44202662.25843  23038768.6024                   23038767.3594
 -10046139.56247  -7764592.52744  22677578.3054                   22677578.1564
 -53598131.64547 -40893583.76245  20803662.9614                   20803658.6684
 11  8 20  1  4 30.0000000  0  8G12G17G10G30G05G04G25G02
 -35929859.32047 -27955512.98445  20775875.0314                   20775871.8204
 -76220420.81246 -59349573.12543  24162584.4304                   24162584.1414
 -43921025.27747 -33548608.35245  21331928.2194                   21331925.8594
 -10753879.18746  -7987064.49244  22324620.7194                   22324619.2114
 -31249424.77347 -24307366.23846  20734291.7734                   20734289.2774
 -58697730.55946 -44208833.00043  23037261.8984                   23037260.9224
 -10210989.28547  -7893046.82444  22646208.0864                   22646208.5004
 -53667602.89147 -40947717.19145  20790442.7974                   20790438.6524
 11  8 20  1  5  0.0000000  0  8G12G17G10G30G05G04G25G02
 -36035230.60247 -28037620.48046  20755823.3754                   20755820.9264
 -76242739.62546 -59366964.43043  24158336.7424                   24158337.5274
 -43957500.71947 -33577030.77744  21324987.1094                   21324984.6134
 -10908941.48846  -8107892.24644  22295113.1724                   22295112.0204
 -31392282.84847 -24418684.18045  20707106.5314                   20707104.2464
 -58705621.77046 -44214982.03143  23035760.5234                   23035759.3794
 -10375409.90647  -8021166.78544  22614919.7504                   22614919.9654
 -53736860.27747 -41001683.98445  20777263.6174                   20777259.4734
 11  8 20  1  5 30.0000000  0  8G12G17G10G30G05G04G25G02
 -36139997.05547 -28119256.68445  20735887.2664                   20735884.3094
 -76264839.75446 -59384185.35943  24154131.9454                   24154131.9884
 -43993402.67647 -33605006.32445  21318154.9844                   21318152.9344
 -11063478.36346  -8228310.56644  22265706.6724                   22265704.3954
 -31534593.00847 -24529575.18046  20680025.6414                   20680023.6214
 -58713483.44546 -44221108.04343  23034263.9224                   23034262.8914
 -10539396.18047  -8148948.28144  22583714.1884                   22583714.5944
 -53805902.28147 -41055482.94545  20764125.5164                   20764121.3714
 11  8 20  1  6  0.0000000  0  8G12G17G10G30G05G04G25G02
 -36244160.28147 -28200422.84045  20716065.5864                   20716062.6174
 -76286722.92246 -59401237.20743  24149967.5004                   24149968.0044
 -44028735.30947 -33632538.25445  21311431.9454                   21311429.1414
 -11217489.62946  -8348319.32844  22236399.1094                   22236396.8444
 -31676355.42247 -24640039.35946  20653049.4924                   20653047.0984
 -58721318.74646 -44227213.53143  23032773.3524                   23032772.2504
 -10702947.91047  -8276391.17244  22552591.1804                   22552591.1604
 -53874732.29747 -41109116.72745  20751027.7734                   20751023.3364
 11  8 20  1  6 30.0000000  0  8G12G17G10G30G05G04G25G02
 -36347719.39147 -28281118.25446  20696358.9774                   20696355.6644
 -76308388.87546 -59418119.78943  24145845.5234                   24145844.7384
 -44063500.57847 -33659628.08245  21304815.4384                   21304813.6604
 -11370973.00846  -8467916.73044  22207191.7034                   22207190.5354
 -31817568.45747 -24750075.45345  20626177.1954                   20626175.3054
 -58729128.68446 -44233299.25843  23031287.0164                   23031285.5744
 -10866062.43747  -8403493.38744  22521552.0474                   22521551.7464
 -53943351.08247 -41162585.91045  20737969.6644                   20737965.5434
 11  8 20  1  7  0.0000000  0  8G12G17G10G30G05G04G25G02
 -36450672.42647 -28361341.39845  20676767.3984                   20676764.6054
 -76329836.25846 -59434832.02342  24141763.4064                   24141763.1054
 -44097699.19147 -33686276.35544  21298308.1254                   21298305.9804
 -11523924.84846  -8587099.96144  22178086.3284                   22178084.5274
 -31958228.97347 -24859681.00846  20599410.4534                   20599408.3164
 -58736912.62946 -44239364.70343  23029805.9384                   23029804.2664
 -11028735.83647  -8530251.84844  22490596.2664                   22490596.3634
 -54011758.31247 -41215890.23845  20724952.5554                   20724947.9414
 11  8 20  1  7 30.0000000  0  8G12G17G10G30G05G04G25G02
 -36553019.77047 -28441092.58246  20657291.4384                   20657289.0554
 -76351066.06645 -59451374.77042  24137723.8674                   24137723.9804
 -44131334.96947 -33712486.05545  21291907.5394                   21291905.4924
 -11676344.60246  -8705868.55544  22149081.2114                   22149079.5664
 -32098337.03947 -24968856.09046  20572748.8444                   20572746.6994
 -58744673.46146 -44245412.13343  23028329.1094                   23028327.8874
 -11190967.32847  -8656665.98044  22459724.4924                   22459724.5944
 -54079956.72347 -41269031.86345  20711974.4924                   20711970.2584
 11  8 20  1  8  0.0000000  0  8G12G17G10G30G05G04G25G02
 -36654762.57447 -28520372.69545  20637930.3134                   20637927.5314
 -76372080.48045 -59467749.69942  24133725.1484                   24133725.3794
 -44164411.60247 -33738260.05545  21285613.3594                   21285610.6134
 -11828231.69146  -8824222.08844  22120178.4454                   22120177.0824
 -32237892.54747 -25077600.60546  20546191.9384                   20546190.1804
 -58752413.71146 -44251443.53543  23026855.1254                   23026855.2894
 -11352756.12147  -8782735.12544  22428936.9924                   22428937.1994
 -54147949.05947 -41322012.90645  20699035.6414                   20699031.7934
 11  8 20  1  8 30.0000000  0  8G12G17G10G30G05G04G25G02
 -35180475.29747 -27371577.43045  20918478.3834                   20918475.5824
 -74817456.80945 -58256354.62142  24429560.6334                   24429560.2464
 -42621508.19147 -32535997.65645  21579217.7894                   21579215.6484
 -10404157.18746  -7714553.60244  22391170.3594                   22391168.7424
 -30801467.52347 -23958308.34445  20819534.5394                   20819532.8324
 -57184712.28146 -43029858.04343  23325179.4224                   23325178.7624
  -9938672.50847  -7680851.77344  22698027.8834                   22698028.3524
 -52640312.03947 -40147230.80945  20985930.2194                   20985925.4534
 11  8 20  1  9  0.0000000  0  8G12G17G10G30G05G04G25G02
 -35281007.06247 -27449913.87545  20899347.6334                   20899344.6884
 -74838039.754 5                  24425643.195
 -42653472.31247 -32560904.76245  21573134.8204                   21573133.3554
 -10554972.16846  -7832071.72744  22362471.5864                   22362469.7154
 -30939912.87547 -24066187.80546  20793189.4844                   20793187.3204
 -57192414.07846 -43035859.48043  23323714.8914                   23323712.8484
 -10099568.09847  -7806224.92644  22667410.8054                   22667410.8984
 -52707894.81647 -40199892.71945  20973069.2504                   20973065.0744
 11  8 20  1  9 30.0000000  0  8G12G17G10G30G05G04G25G02
 -35380932.33647 -27527777.72745  20880332.3914                   20880329.4454
 -74858407.082 5                  24421767.367
 -42684883.95347 -32585381.36345  21567158.1334                   21567155.7154
 -10705248.25446  -7949169.92244  22333874.5234                   22333873.2034
 -31077800.88747 -24173632.97346  20766950.0704                   20766948.0744
 -57200098.61746 -43041847.48443  23322251.3524                   23322250.8984
 -10260013.80947  -7931247.51244  22636878.4924                   22636879.0664
 -52775274.62947 -40252396.45745  20960247.5314                   20960243.0124
 11  8 20  1 10  0.0000000  0  8G12G17G10G30G05G04G25G02
 -35480252.26247 -27605169.89145  20861432.6804                   20861429.7034
 -74878560.37546 -58262102.80952  24417932.2194                   24417931.9454
 -42715746.76647 -32609430.29745  21561284.9224                   21561282.6994
 -10854984.91446  -8065847.79744  22305379.8364                   22305379.0164
 -31215132.06647 -24280644.24246  20740817.0004                   20740814.5044
 -57207768.23046 -43047823.85243  23320792.5164                   23320791.2664
 -10420008.91847  -8055918.98044  22606432.8284                   22606433.1254
 -52842454.25447 -40304744.22745  20947463.6804                   20947459.4224
 11  8 20  1 10 30.0000000  0  9G12G17G10G30G05G04G25G29G02
 -35578966.30147 -27682089.92245  20842648.1174                   20842645.2194
 -74898499.14846 -58277639.54743  24414139.0864                   24414138.5124
 -42746062.85247 -32633053.22345  21555515.3524                   21555513.7384
 -11004179.74246  -8182103.46544  22276990.0864                   22276988.2704
 -31351903.99647 -24387219.74245  20714790.2814                   20714787.9614
 -57215423.55146 -43053789.09043  23319335.8054                   23319335.1724
 -10579550.71947  -8180237.22344  22576072.5234                   22576073.4654
  12356316.50056   9691564.11352  24719067.9774                   24719067.9964
 -52909434.40247 -40356936.54745  20934717.6804                   20934713.3284
 11  8 20  1 11  0.0000000  0  9G12G17G10G30G05G04G25G29G02
 -35677076.50047 -27758539.43045  20823978.0394                   20823975.1524
 -74918226.39846 -58293011.46543  24410384.8754                   24410384.3244
 -42775836.86347 -32656253.73845  21549850.5474                   21549848.1094
 -11152833.57446  -8297937.59044  22248702.3984                   22248700.7814
 -31488118.12147 -24493360.57846  20688869.4064                   20688867.2774
 -57223068.68046 -43059746.34843  23317880.3364                   23317879.8954
 -10738639.60247  -8304202.53144  22545799.1884                   22545799.5904
  12187087.84446   9559697.67242  24686864.4774                   24686865.1024
 -52976218.87947 -40408976.39545  20922008.9534                   20922004.4804
 11  8 20  1 11 30.0000000  0  9G12G17G10G30G05G04G25G29G02
 -35774586.01647 -27834520.87546  20805422.6644                   20805419.7734
 -74937745.75445 -58308221.41042  24406670.5474                   24406669.6214
 -42805074.98447 -32679036.68044  21544285.8834                   21544284.6094
 -11300947.77046  -8413351.19944  22220517.1254                   22220515.6134
 -31623776.98847 -24599068.75446  20663054.3524                   20663052.0984
 -57230708.01646 -43065699.10243  23316427.1024                   23316426.3134
 -10897276.82447  -8427815.90644  22515611.3674                   22515611.4884
  12017801.24245   9427786.11342  24654651.5004                   24654651.4184
 -53042812.52347 -40460867.55545  20909336.6484                   20909332.0204
 11  8 20  1 12  0.0000000  0  9G12G17G10G30G05G04G25G29G02
 -35871493.83247 -27910033.45345  20786981.4304                   20786978.7344
 -74957056.33245 -58323268.65643  24402995.2114                   24402994.6564
 -42833778.56647 -32701403.10244  21538823.7034                   21538822.4144
 -11448519.88346  -8528342.42244  22192434.5084                   22192433.2934
 -31758878.32847 -24704342.48845  20637345.2974                   20637343.2734
 -57238341.61346 -43071647.41443  23314974.4534                   23314973.2974
 -11055459.50447  -8551075.09844  22485510.3204                   22485510.6564
  11848458.02745   9295830.41842  24622426.6254                   24622426.5004
 -53109215.61347 -40512610.21945  20896700.4384                   20896695.8204
 11  8 20  1 12 30.0000000  0  9G12G17G10G30G05G04G25G29G02
 -35967800.45747 -27985077.57445  20768655.0234                   20768652.2664
 -74976159.62545 -58338154.36743  24399359.8914                   24399360.0004
 -42861951.30147 -32723355.86344  21533462.6484                   21533461.2304
 -11595549.04346  -8642910.57044  22164456.5234                   22164454.5704
 -31893421.84447 -24809181.55946  20611742.7894                   20611740.6174
 -57245971.96946 -43077593.13743  23313522.7274                   23313522.1954
 -11213186.37147  -8673979.09844  22455495.9534                   22455496.1054
  11679057.45345   9163830.00842  24590189.6804                   24590191.5044
 -53175430.53947 -40564206.25845  20884100.7894                   20884095.6094
 11  8 20  1 13  0.0000000  0  9G12G17G10G30G05G04G25G29G02
 -36063504.60947 -28059652.24245  20750443.1414                   20750440.3364
 -74995054.59445 -58352877.75843  24395764.8984                   24395764.6914
 -42889594.44147 -32744895.96544  21528202.9534                   21528201.1294
 -11742032.28946  -8757053.33644  22136581.2274                   22136579.3794
 -32027405.46547 -24913584.34846  20586246.5234                   20586244.1684
 -57253598.98046 -43083536.31243  23312071.6804                   23312070.4734
 -11370454.21947  -8796525.44544  22425568.5474                   22425568.9654
  11509601.28545   9031786.35942  24557943.1954                   24557944.4534
 -53241457.21947 -40615655.62145  20871535.6724                   20871531.6054
 11  8 20  1 13 30.0000000  0  9G12G17G10G30G05G04G25G29G02
 -36158605.12947 -28133756.53945  20732345.9844                   20732343.2774
 -75013740.66845 -58367438.38742  24392208.3674                   24392209.2624
 -42916709.52047 -32766024.59044  21523043.2504                   21523040.8874
 -11887967.01247  -8870768.69944  22108811.0704                   22108809.0004
 -32160826.90247 -25017549.07446  20560857.3054                   20560854.4414
 -57261222.85946 -43089476.99643  23310619.9614                   23310619.4184
 -11527260.08647  -8918711.79744  22395730.2584                   22395729.7934
  11340090.75845   8899700.32842  24525686.8594                   24525687.4654
 -53307296.07447 -40666958.61345  20859007.1644                   20859002.4804
 11  8 20  1 14  0.0000000  0  9G12G17G10G30G05G04G25G29G02
 -36253099.18447 -28207388.27745  20714364.0704                   20714361.4964
 -75032214.89545 -58381833.91842  24388693.2194                   24388693.9264
 -42943296.09447 -32786741.38744  21517983.2344                   21517981.4774
 -12033348.44947  -8984052.92244  22081145.7344                   22081143.6804
 -32293681.91047 -25121072.41845  20535575.3364                   20535573.2544
 -57268841.78146 -43095413.82043  23309170.0634                   23309169.6054
 -11683598.79747  -9040534.13344  22365979.4064                   22365979.4774
  11170529.22345   8767574.53942  24493420.4304                   24493420.7114
 -53372945.31247 -40718113.86345  20846514.6174                   20846510.1484
 11  8 20  1 14 30.0000000  0  9G12G17G10G30G05G04G25G29G02
 -36346984.48047 -28280545.64845  20696498.7974                   20696495.6174
 -75050476.02345 -58396063.37942  24385219.2894                   24385218.8594
 -42969355.18447 -32807047.16844  21513024.5554                   21513022.5204
 -12178173.27347  -9096903.41844  22053586.2734                   22053584.3634
 -32425967.93447 -25224152.40246  20510402.2344                   20510400.3134
 -57276455.09046 -43101346.25043  23307721.8674                   23307720.7234
 -11839466.78147  -9161989.67645  22336318.3054                   22336318.7704
  11000918.52345   8635410.46942  24461144.7114                   24461145.0394
 -53438404.40647 -40769120.94545  20834058.1804                   20834053.4344
 11  8 20  1 15  0.0000000  0  9G12G17G10G30G05G04G25G29G02
 -36440264.51647 -28353231.39545  20678747.8594                   20678745.2464
 -75068526.91445 -58410129.05542  24381783.7274                   24381783.8794
 -42994892.16447 -32826946.10244  21508165.1254                   21508162.8444
 -12322442.60947  -9209321.07844  22026133.1954                   22026130.6564
 -32557686.67247 -25326790.34846  20485336.9924                   20485334.9734
 -57284066.84846 -43107277.51243  23306273.1724                   23306272.0124
 -11994864.75847  -9283078.98844  22306746.8594                   22306746.7584
  10831256.39145   8503206.32043  24428858.8914                   24428859.1334
 -53503677.61347 -40819983.18445  20821637.1484                   20821632.4924
 11  8 20  1 15 30.0000000  0  9G12G17G10G30G05G04G25G29G02
 -36532936.91047 -28425443.64545  20661112.8204                   20661110.0984
 -75086366.34045 -58424029.89843  24378389.1414                   24378389.1094
 -43019908.02347 -32846438.98444  21503405.0704                   21503402.8054
 -12466152.97747  -9321303.18744  21998785.1564                   21998783.5554
 -32688834.96147 -25428983.78946  20460380.1564                   20460378.1414
 -57291676.16046 -43113206.85943  23304824.5164                   23304824.4104
 -12149788.84847  -9403799.03144  22277265.9924                   22277265.9534
  10661545.03545   8370963.76643  24396564.0084                   24396563.7034
 -53568764.17647 -40870699.97345  20809251.2344                   20809246.6994
 11  8 20  1 16  0.0000000  0  9G12G17G10G30G05G04G25G29G02
 -36625001.55947 -28497182.33246  20643593.6334                   20643591.2424
 -75103994.37145 -58437766.01642  24375034.0084                   24375034.2384
 -43044404.90247 -32865527.45344  21498742.3834                   21498740.6954
 -12609302.44147  -9432848.21544  21971545.0314                   21971543.0824
 -32819411.91447 -25530732.03546  20435532.3054                   20435529.8364
 -57299284.08646 -43119135.12943  23303377.1954                   23303376.7934
 -12304236.85547  -9524148.10544  22247875.5084                   22247876.1454
  10491784.98046   8238683.23043  24364260.0234                   24364259.0004
 -53633665.30947 -40921272.27345  20796900.8754                   20796896.7114
 11  8 20  1 16 30.0000000  0  9G12G17G10G30G05G04G25G29G02
 -36716457.95347 -28568447.05945  20626190.1564                   20626187.5084
 -75121410.91446 -58451337.34043  24371719.7504                   24371720.3834
 -43068385.13347 -32884213.34444  21494180.0234                   21494177.8794
 -12751889.28547  -9543954.84044  21944411.6484                   21944409.5274
 -32949416.04747 -25632033.91446  20410793.0784                   20410791.1914
 -57306891.46946 -43125062.96143  23301930.4304                   23301928.9104
 -12458206.51247  -9644124.45344  22218576.6884                   22218576.3874
  10321976.93846   8106365.34043  24331946.1254                   24331946.1724
 -53698381.90247 -40971700.77745  20784585.9924                   20784581.4694
 11  8 20  1 17  0.0000000  0  8G12G10G30G05G04G25G29G02
 -36807305.35947 -28639237.25046  20608903.2734                   20608899.7814
 -43091850.49647 -32902498.05144  21489714.2584                   21489712.5594
 -12893910.76647  -9654620.93044  21917385.5394                   21917384.1684
 -33078845.58647 -25732888.06646  20386163.8284                   20386161.4264
 -57314498.24246 -43130990.28543  23300482.8444                   23300482.0204
 -12611694.79747  -9763725.71144  22189367.8284                   22189368.1724
  10152122.38746   7974011.18843  24299624.3984                   24299623.6414
 -53762914.26247 -41021985.73045  20772305.8204                   20772301.0204
 11  8 20  1 17 30.0000000  0  8G12G10G30G05G04G25G29G02
 -35322120.66847 -27481950.47345  20891523.8674                   20891520.9024
 -41539382.69147 -31692782.87544  21785139.6024                   21785137.3164
 -11459940.55147  -8537241.53944  22190261.4614                   22190259.5784
 -31632275.06247 -24605690.22746  20661437.1724                   20661434.9224
 -55746685.32346 -41909317.89843  23598827.4774                   23598826.6954
 -11189274.61347  -8655346.33245  22460046.1884                   22460046.0084
  11557647.61746   9069225.69943  24567086.6334                   24567086.2074
 -52251841.18047 -39844526.18045  21059853.6254                   21059848.4144
 11  8 20  1 18  0.0000000  0  8G12G10G30G05G04G25G29G02
 -35411750.31247 -27551791.74645  20874467.6804                   20874464.8204
 -41561826.74247 -31710271.74644  21780868.3674                   21780866.0044
 -11600826.93447  -8647023.14144  22163452.1644                   22163449.6724
 -31760552.53547 -24705646.66046  20637026.5474                   20637024.6174
 -55754294.43046 -41915247.07843  23597379.2974                   23597378.6914
 -11341794.49247  -8774192.98844  22431023.1414                   22431022.3594
  11387701.27046   8936799.97343  24534746.8134                   24534746.5004
 -52316008.51647 -39894526.69945  21047642.8204                   21047638.1134
 11  8 20  1 18 30.0000000  0  8G12G10G30G05G04G25G29G02
 -35500767.91847 -27621156.11745  20857528.5784                   20857525.1134
 -41583760.87947 -31727363.27744  21776694.3754                   21776692.4024
 -11741140.23046  -8756358.17244  22136750.0394                   22136748.8634
 -31888249.34047 -24805150.62146  20612726.6174                   20612724.6254
 -55761903.09046 -41921175.92643  23595931.9534                   23595930.7344
 -11493824.04347  -8892657.57444  22402091.9454                   22402092.3164
  11217712.73846   8804341.41443  24502399.1564                   24502398.6454
 -52379992.21947 -39944384.10945  21035467.1564                   21035462.6334
 11  8 20  1 19  0.0000000  0  8G12G10G30G05G04G25G29G02
 -35589173.34047 -27690043.44946  20840705.1024                   20840702.2504
 -41605187.33647 -31744059.22344  21772617.1724                   21772615.1484
 -11880878.50046  -8865245.12944  22110160.0394                   22110157.7774
 -32015363.85547 -24904200.85546  20588537.1644                   20588535.3714
 -55769511.92246 -41927104.85543  23594483.7344                   23594482.7424
 -11645360.96147  -9010738.28544  22373255.4694                   22373255.6484
  11047683.31346   8671850.98043  24470044.0084                   24470042.8204
 -52443792.96947 -39994098.97345  21023326.0234                   21023321.8284
 11  8 20  1 19 30.0000000  0  8G12G10G30G05G04G25G29G02
 -35676967.14847 -27758454.20346  20823998.7194                   20823995.9964
 -41626109.46147 -31760362.18744  21768636.2814                   21768633.5904
 -12020040.95347  -8973683.39844  22083677.7894                   22083676.3834
 -32141896.68047 -25002797.82846  20564458.8914                   20564456.6884
 -55777122.71546 -41933035.35543  23593035.5084                   23593034.9574
 -11796403.95747  -9128434.12945  22344513.2424                   22344513.4454
  10877612.25446   8539328.11743  24437680.2504                   24437679.4344
 -52507412.48047 -40043672.60545  21011219.6024                   21011215.0664
 11  8 20  1 20  0.0000000  0  8G12G10G30G05G04G25G29G02
 -35764150.75847 -27826389.48445  20807408.3134                   20807405.5474
 -41646531.14547 -31776275.20344  21764749.8674                   21764747.8914
 -12158627.23447  -9081672.70344  22057306.4064                   22057303.9224
 -32267847.86347 -25100941.57046  20540491.2734                   20540489.6414
 -55784737.48846 -41938968.98443  23591586.3364                   23591586.5004
 -11946952.27747  -9245744.51244  22315864.5944                   22315864.9384
  10707499.05946   8406772.44943  24405308.9144                   24405307.5784
 -52570853.12547 -40093106.87145  20999147.2734                   20999142.8634
 11  8 20  1 20 30.0000000  0  8G12G10G30G05G04G25G29G02
 -35850723.40247 -27893848.68745  20790934.0554                   20790931.2734
 -41666453.78947 -31791799.33644  21760958.9694                   21760956.4574
 -12296634.61347  -9189210.91044  22031043.3364                   22031042.0124
 -32393215.22347 -25198630.38746  20516634.1414                   20516632.4414
 -55792355.88746 -41944905.44943  23590136.7664                   23590136.3754
 -12097002.74247  -9362666.94544  22287311.0474                   22287310.8484
  10537345.73446   8274185.49643  24372928.4454                   24372928.6294
 -52634114.96947 -40142401.81645  20987109.1884                   20987104.6914
 11  8 20  1 21  0.0000000  0  8G12G10G30G05G04G25G29G02
 -35936687.27747 -27960833.51645  20774575.2734                   20774573.0634
 -41685882.46947 -31806938.57444  21757261.4844                   21757259.6564
 -12434063.90647  -9296298.67244  22004892.2734                   22004890.6454
 -32517999.92647 -25295865.18446  20492889.0234                   20492886.7704
 -55799981.35946 -41950847.37943  23588685.1174                   23588685.1804
 -12246555.62147  -9479201.65245  22258852.1414                   22258852.5124
  10367150.44146   8141565.82443  24340542.2424                   24340541.6994
 -52697201.44947 -40191560.09845  20975104.2114                   20975099.2974
 11  8 20  1 21 30.0000000  0  8G12G10G30G05G04G25G29G02
 -36022043.37947 -28027344.75846  20758332.9304                   20758329.8524
 -41704820.77347 -31821695.69544  21753657.6804                   21753655.4654
 -12570914.51247  -9402935.49644  21978850.1564                   21978848.5164
 -32642202.27747 -25392646.19546  20469254.2894                   20469251.7034
 -55807615.74246 -41956796.25843  23587233.3444                   23587232.1604
 -12395610.03947  -9595347.94145  22230487.8054                   22230488.0314
  10196912.70346   8008913.12143  24308146.8984                   24308146.6294
 -52760114.40247 -40240583.18045  20963131.8834                   20963127.7304
 11  8 20  1 22  0.0000000  0  8G12G10G30G05G04G25G29G02
 -36106793.23047 -28093383.60245  20742205.2274                   20742202.8444
 -41723272.53947 -31836073.69944  21750146.1414                   21750144.0234
 -12707186.21547  -9509121.22344  21952919.0554                   21952916.7734
 -32765822.68447 -25488973.75046  20445729.7034                   20445727.3794
 -55815261.06246 -41962753.65243  23585777.8914                   23585777.8754
 -12544165.23847  -9711105.23045  22202218.7274                   22202218.9494
  10026631.94145   7876226.83243  24275743.6564                   24275743.4064
 -52822856.07847 -40289472.78945  20951192.6484                   20951188.6414
 11  8 20  1 22 30.0000000  0  8G12G10G30G05G04G25G29G02
 -36190937.81247 -28158950.80545  20726193.7504                   20726190.6644
 -41741241.10247 -31850075.17244  21746726.5314                   21746724.9064
 -12842878.11747  -9614855.17244  21927097.1094                   21927095.5354
 -32888860.66447 -25584847.46546  20422316.4614                   20422314.2934
 -55822918.76246 -41968720.74643  23584320.6954                   23584320.1564
 -12692219.79347  -9826472.40245  22174044.9924                   22174044.7814
   9856308.42645   7743507.30543  24243331.8204                   24243332.5164
 -52885428.30947 -40338230.37545  20939285.7504                   20939281.3094
 11  8 20  1 23  0.0000000  0  8G12G10G30G05G04G25G29G02
 -36274477.47347 -28224046.64845  20710296.1724                   20710293.4964
 -41758729.44547 -31863702.46144  21743399.6644                   21743397.0634
 -12977989.03147  -9720136.37944  21901385.9224                   21901384.7154
 -33011315.57447 -25680266.83646  20399013.6174                   20399011.6804
 -55830590.00046 -41974698.39543  23582861.1644                   23582860.6454
 -12839772.16847  -9941448.26245  22145967.3364                   22145967.2704
   9685942.36745   7610754.65642  24210912.6804                   24210912.4104
 -52947832.53147 -40386857.04745  20927410.7424                   20927405.9844
 11  8 20  1 23 30.0000000  0  8G12G10G30G05G04G25G29G02
 -36357412.01247 -28288670.96145  20694514.4534                   20694511.4064
 -41775739.68747 -31876957.19144  21740162.5084                   21740160.1454
 -13112517.07047  -9824963.41044  21875787.0704                   21875785.0164
 -33133186.96947 -25775231.52046  20375822.6724                   20375820.3714
 -55838275.03946 -41980686.77743  23581398.8284                   23581398.1804
 -12986819.91047 -10056030.91445  22117983.9614                   22117984.9304
   9515535.00845   7477969.76242  24178483.9614                   24178484.5274
 -53010069.16847 -40435353.13745  20915567.1414                   20915562.5204
 11  8 20  1 24  0.0000000  0  8G12G10G30G05G04G25G29G02
 -36439740.78947 -28352823.25445  20678847.6564                   20678844.9184
 -41792274.18447 -31889841.22744  21737016.3364                   21737013.9844
 -13246460.06647  -9929334.57844  21850298.1024                   21850296.4104
 -33254472.78947 -25869739.92246  20352742.1484                   20352740.7344
 -55845974.09446 -41986686.05143  23579933.9924                   23579933.3324
 -13133360.41847 -10170218.30545  22090098.4774                   22090098.5944
   9345087.14845   7345153.32043  24146049.8444                   24146049.2304
 -53072138.46147 -40483718.82045  20903755.8204                   20903751.6054
 11  8 20  1 24 30.0000000  0  8G12G10G30G05G04G25G29G02
 -36521465.69947 -28416505.00445  20663296.2114                   20663293.4104
 -41808337.04747 -31902357.75044  21733959.0864                   21733957.3014
 -13379818.29347 -10033250.07444  21824920.4924                   21824918.8794
 -33375173.96547 -25963792.74646  20329774.1094                   20329771.8364
 -55853689.40246 -41992697.98843  23578464.9614                   23578464.8984
 -13279393.37547 -10284010.18445  22062310.0004                   22062309.6884
   9174598.88345   7212305.40643  24113607.0704                   24113606.2464
 -53134043.01647 -40531956.14145  20891975.7584                   20891971.3204
 11  8 20  1 25  0.0000000  0  8G12G10G30G05G04G25G29G02
 -36602586.42247 -28479715.95745  20647859.7664                   20647856.6454
 -41823929.82047 -31914507.97744  21730992.0004                   21730989.7234
 -13512589.43747 -10136708.10544  21799655.5234                   21799653.4224
 -33495288.98847 -26057388.83646  20306917.0084                   20306914.7584
 -55861421.07446 -41998722.69943  23576994.4304                   23576993.8244
 -13424916.08247 -10397404.48845  22034617.5314                   22034617.7384
   9004071.26246   7079426.78142  24081156.6484                   24081155.8674
 -53195783.08647 -40580065.28545  20880227.2584                   20880222.7624
 11  8 20  1 25 30.0000000  0  8G12G10G30G05G04G25G29G02
 -36683103.20747 -28542456.30545  20632538.3134                   20632534.9264
 -41839055.30947 -31926294.07844  21728113.6174                   21728111.3714
 -13644772.01247 -10239707.52044  21774502.0704                   21774500.2344
 -33614816.73847 -26150527.30946  20284171.5164                   20284169.1844
 -55869169.59046 -42004760.50043  23575520.0164                   23575519.2704
 -13569926.51647 -10510399.60545  22007022.4534                   22007022.9264
   8833505.17645   6946518.18842  24048698.5084                   24048698.6134
 -53257359.51647 -40628046.93045  20868509.5084                   20868505.0984
 11  8 20  1 26  0.0000000  0  8G12G10G30G05G04G25G29G02
 -36763019.38347 -28604728.65645  20617330.1644                   20617326.7194
 -41853719.59847 -31937720.80144  21725323.0634                   21725321.2774
 -13776367.98447 -10342249.83244  21749459.7194                   21749458.0474
 -33733760.09047 -26243210.41046  20261537.0944                   20261534.9654
 -55876939.18446 -42010814.73843  23574041.1804                   23574040.7074
 -13714426.07847 -10622996.65245  21979525.8364                   21979525.1054
   8662898.16045   6813577.73443  24016233.3524                   24016232.4344
 -53318776.53547 -40675904.35945  20856822.0314                   20856817.6644
 11  8 20  1 26 30.0000000  0  8G12G10G30G05G04G25G29G02
 -35266909.94147 -27438929.09845  20902029.8284                   20902027.3014
 -40292502.18447 -30721187.77344  22022412.3134                   22022411.0164
 -12331949.05947  -9216728.58244  22024323.7114                   22024321.8984
 -32276691.68747 -25107832.40246  20538808.5704                   20538805.9654
 -54309307.57046 -40789283.63342  23872352.3054                   23872350.2194
 -12282985.63347  -9507588.50845  22251919.6094                   22251919.1804
  10067679.23046   7908212.36343  24283554.1884                   24283553.2234
 -51804610.57047 -39496034.79345  21144958.4384                   21144954.1954
 11  8 20  1 27  0.0000000  0  8G12G10G30G05G04G25G29G02
 -35345620.37147 -27500261.90246  20887052.1644                   20887049.3914
 -40306246.30147 -30731897.49644  22019798.1724                   22019795.4694
 -12462361.97747  -9318349.04744  21999506.5234                   21999504.8714
 -32394458.28147 -25199598.55946  20516397.4844                   20516395.5354
 -54317115.26246 -40795367.54742  23870866.0944                   23870864.3714
 -12426452.14847  -9619380.57445  22224618.7504                   22224618.7734
   9896998.36745   7775214.33643  24251074.9534                   24251074.1134
 -51865705.75447 -39543641.43045  21133332.5234                   21133328.1764
 11  8 20  1 27 30.0000000  0  8G12G10G30G05G04G25G29G02
 -35423729.18047 -27561125.92245  20872188.4064                   20872185.5164
 -40319535.00047 -30742252.36744  22017268.6254                   22017266.7274
 -12592181.75847  -9419507.32444  21974803.4774                   21974801.1684
 -32511635.76647 -25290905.66046  20494099.7814                   20494097.0634
 -54324943.56646 -40801467.50042  23869376.9384                   23869374.7584
 -12569399.75847  -9730768.31245  22197416.7974                   22197416.8914
   9726281.48846   7642188.23443  24218587.8754                   24218587.7154
 -51926641.71547 -39591124.00845  21121736.5554                   21121732.3444
 11  8 20  1 28  0.0000000  0  8G12G10G30G05G04G25G29G02
 -35501236.79347 -27621521.46945  20857439.3364                   20857436.5784
 -40332371.00047 -30752254.46144  22014826.3834                   22014824.0124
 -12721407.35947  -9520202.59444  21950212.5864                   21950210.7344
 -32628223.63747 -25381753.32846  20471913.8594                   20471911.4224
 -54332793.73846 -40807584.54343  23867883.3914                   23867881.2194
 -12711826.85947  -9841750.45345  22170313.8054                   22170313.8094
   9555528.94946   7509134.33243  24186095.5394                   24186094.5474
 -51987420.01247 -39638483.72745  21110171.3984                   21110166.6844
 11  8 20  1 28 30.0000000  0  8G12G10G30G05G04G25G29G02
 -35578143.88347 -27681449.07445  20842804.1484                   20842801.2704
 -40344757.40247 -30761906.22344  22012469.2274                   22012467.1214
 -12850037.79347  -9620434.10944  21925734.6884                   21925732.7734
 -32744222.16047 -25472141.75846  20449840.3594                   20449837.6134
 -54340666.15246 -40813718.89843  23866384.6414                   23866383.7154
 -12853731.98447  -9952325.87145  22143310.0864                   22143309.9414
   9384741.40846   7376053.16843  24153595.3914                   24153594.2504
 -52048041.50847 -39685721.27045  21098634.8364                   21098631.0394
 11  8 20  1 29  0.0000000  0  8G12G10G30G05G04G25G29G02
 -35654451.22347 -27740909.34445  20828283.5084                   20828280.5274
 -40356697.23447 -30771210.02344  22010196.9614                   22010195.3714
 -12978072.22747  -9720201.19944  21901370.4304                   21901368.3164
 -32859630.94547 -25562070.67246  20427878.6334                   20427875.8554
 -54348562.18046 -40819871.68443  23864882.0634                   23864881.1174
 -12995113.59447 -10062493.35245  22116406.5004                   22116406.5554
   9213919.30546   7242945.08243  24121089.3284                   24121087.9384
 -52108507.50047 -39732837.62945  21087127.8754                   21087124.8444
 11  8 20  1 29 30.0000000  0  8G12G10G30G05G04G25G29G02
 -35730157.66847 -27799901.38745  20813876.8444                   20813873.9614
 -40368191.48847 -30780166.60944  22008009.9534                   22008007.7704
 -13105507.59047  -9819501.48444  21877120.4614                   21877118.5474
 -32974447.34447 -25651537.96546  20406029.7274                   20406026.9494
 -54356480.62146 -40826041.94143  23863375.4614                   23863374.0594
 -13135968.20347 -10172250.18445  22089602.1804                   22089602.0124
   9043065.42646   7109812.20743  24088576.4454                   24088575.4574
 -52168817.37947 -39779832.35245  21075652.7664                   21075648.2344
 11  8 20  1 30  0.0000000  0  8G12G10G30G05G04G25G29G02
 -35805265.17247 -27858426.71545  20799584.3914                   20799581.8404
 -40379244.38747 -30788779.27744  22005906.7894                   22005904.8324
 -13232344.17247  -9918335.17244  21852984.0234                   21852982.1764
 -33088672.43047 -25740544.51646  20384293.1484                   20384290.9694
 -54364423.46146 -40832231.16843  23861862.8834                   23861862.9384
 -13276295.49647 -10281596.11345  22062899.0394                   22062898.8984
   8872179.09046   6976654.05143  24056058.3204                   24056057.4224
 -52228972.93047 -39826706.81245  21064205.0634                   21064200.6644
 11  8 20  1 30 30.0000000  0  8G12G10G30G05G04G25G29G02
 -35879777.41447 -27916488.20345  20785405.3674                   20785402.1524
 -40389861.24647 -30797052.17644  22003886.4694                   22003884.5824
 -13358583.62547 -10016703.56244  21828961.7664                   21828959.4924
 -33202308.25047 -25829091.87946  20362668.8524                   20362666.4654
 -54372394.23046 -40838442.18043  23860347.6804                   23860346.3014
 -13416096.46547 -10390531.92245  22036295.7664                   22036296.0234
   8701258.37946   6843469.13343  24023532.4384                   24023531.7974
 -52288978.43747 -39873464.35245  21052786.8364                   21052782.1844
 11  8 20  1 31  0.0000000  0  8G12G10G30G05G04G25G29G02
 -35953692.68747 -27974084.52345  20771339.8364                   20771336.9384
 -40400042.89847 -30804985.94544  22001948.9454                   22001946.9024
 -13484222.73847 -10114604.15644  21805053.3834                   21805051.4614
 -33315352.91447 -25917178.61746  20341157.3284                   20341154.5314
 -54380391.60946 -40844673.94142  23858824.8204                   23858824.4844
 -13555367.46947 -10499054.76645  22009793.5084                   22009793.2504
   8530306.08646   6710259.60943  23991000.9924                   23991000.6174
 -52348832.87147 -39920104.18045  21041396.7584                   21041392.1134
 11  8 20  1 31 30.0000000  0  8G12G10G30G05G04G25G29G02
 -36027009.53147 -28031214.53945  20757387.8914                   20757385.4104
 -40409790.80147 -30812581.73844  22000093.9384                   22000091.5394
 -13609259.00847 -10212035.00844  21781259.2274                   21781257.5594
 -33427804.19947 -26004802.97746  20319758.4304                   20319756.0124
 -54388414.74646 -40850925.80943  23857297.3204                   23857297.6844
 -13694105.30147 -10607162.15245  21983392.8054                   21983392.5314
   8359324.60946   6577027.32843  23958465.1884                   23958464.3054
 -52408534.90247 -39966625.23445  21030035.6334                   21030031.2544
 11  8 20  1 32  0.0000000  0  8G12G10G30G05G04G25G29G02
 -36099730.85247 -28087880.51245  20743549.8364                   20743546.5824
 -40419109.57447 -30819843.13744  21998320.7344                   21998318.7464
 -13733692.89147 -10308996.46144  21757580.7974                   21757578.1214
 -33539663.23047 -26091965.84046  20298472.3364                   20298470.0704
 -54396465.67645 -40857199.32442  23855765.2584                   23855765.6954
 -13832309.88747 -10714854.01645  21957092.5314                   21957092.4534
   8188313.52046   6443771.94943  23925922.8914                   23925921.1994
 -52468087.22747 -40013029.64545  21018703.2194                   21018698.9064
 11  8 20  1 32 30.0000000  0  8G12G10G30G05G04G25G29G02
 -36171856.32447 -28144082.18445  20729824.3834                   20729821.5904
 -40428001.22747 -30826771.71944  21996628.1484                   21996626.9024
 -13857522.51647 -10405487.05544  21734016.7734                   21734014.5394
 -33650928.57447 -26178666.07846  20277299.1334                   20277297.2854
 -54404544.48046 -40863494.55543  23854229.0314                   23854228.5204
 -13969978.75047 -10822128.43745  21930895.2664                   21930895.3634
   8017274.34846   6310494.73843  23893374.7194                   23893373.8404
 -52527490.16047 -40059317.64145  21007399.8054                   21007394.3054
 11  8 20  1 33  0.0000000  0  8G12G10G30G05G04G25G29G02
 -36243389.30147 -28199822.16845  20716212.3914                   20716209.5634
 -40436470.92247 -30833371.46944  21995017.0554                   21995014.9774
 -13980749.47347 -10501508.02344  21710567.2664                   21710565.2774
 -33761602.91447 -26264905.80546  20256238.8984                   20256236.2974
 -54412654.14846 -40869813.83643  23852686.6254                   23852685.6764
 -14107112.94547 -10928986.22345  21904799.3674                   21904799.5824
   7846205.47746   6177194.31643  23860821.7194                   23860820.4184
 -52586747.10247 -40105491.88345  20996122.6174                   20996118.7664
 11  8 20  1 33 30.0000000  0  8G12G10G30G05G04G25G29G02
 -36314328.85247 -28255099.74646  20702712.8134                   20702710.3674
 -40444519.74647 -30839643.31244  21993485.3524                   21993483.4534
 -14103371.18747 -10597057.38344  21687232.8204                   21687230.7384
 -33871684.25447 -26350683.45346  20235290.7974                   20235288.1524
 -54420793.77746 -40876156.41043  23851136.3674                   23851136.8134
 -14243709.21547 -11035424.84845  21878806.2974                   21878806.3484
   7675108.91046   6043872.38743  23828261.9064                   23828262.2934
 -52645857.34047 -40151551.80145  20984874.0944                   20984870.2034
 11  8 20  1 34  0.0000000  0  8G12G10G30G05G04G25G29G02
 -36384675.89547 -28309915.62945  20689326.0474                   20689323.8204
 -40452150.89847 -30845589.66844  21992033.2734                   21992031.2424
 -14225386.96147 -10692134.58644  21664014.8834                   21664012.5784
 -33981172.25047 -26435998.74646  20214455.8984                   20214453.8404
 -54428964.19146 -40882523.04343  23849582.2114                   23849581.9964
 -14379766.20747 -11141443.26645  21852915.3914                   21852915.6294
   7503986.06346   5910529.94543  23795700.0704                   23795698.3484
 -52704822.06247 -40197498.32445  20973654.5704                   20973649.2974
 11  8 20  1 34 30.0000000  0  8G12G10G30G05G04G25G29G02
 -36454429.23447 -28364268.88745  20676052.4844                   20676049.5904
 -40459365.33647 -30851211.31644  21990660.3054                   21990658.1334
 -14346793.59047 -10786737.13344  21640911.6334                   21640909.7664
 -34090064.77347 -26520850.03146  20193734.4304                   20193731.8164
 -54437163.72346 -40888912.28542  23848021.6334                   23848020.9064
 -14515280.16847 -11247038.51645  21827127.9534                   21827128.1294
   7332839.62146   5777169.12943  23763130.7274                   23763130.4454
 -52763639.65647 -40243330.21145  20962461.7664                   20962456.8914
 11  8 20  1 35  0.0000000  0  8G12G10G30G05G04G25G29G02
 -34948169.12547 -27190559.71945  20962684.3754                   20962681.4694
 -38890747.34047 -29628911.59444  22289158.2274                   22289156.0474
 -12892167.95347  -9653262.57444  21917717.5234                   21917715.3914
 -32622939.66047 -25377635.62946  20472918.7504                   20472916.6804
 -52869974.51646 -39667725.89842  24146247.9694                   24146247.1914
 -13074826.86747 -10124607.33245  22101236.8594                   22101237.2934
   8737094.55546   6871393.77043  24030351.5394                   24030351.3284
 -51246891.18047 -39061448.28545  21251088.8364                   21251084.5554
 11  8 20  1 35 30.0000000  0  8G12G10G30G05G04G25G29G02
 -35016743.07847 -27243993.96945  20949635.0784                   20949632.6174
 -38897142.44547 -29633894.80944  22287941.3134                   22287939.1644
 -13012359.38747  -9746918.19944  21894845.9534                   21894843.8594
 -32730645.97747 -25461562.59846  20452422.8364                   20452420.8674
 -52878239.94946 -39674166.49242  24144675.7114                   24144673.7774
 -13209255.97747 -10229357.25845  22075656.0634                   22075655.8554
   8565897.97346   6737993.85943  23997774.3054                   23997773.1414
 -51305423.45747 -39107057.85545  21239951.4304                   21239946.0824
 11  8 20  1 36  0.0000000  0  8G12G10G30G05G04G25G29G02
 -35084729.26647 -27296970.23445  20936697.7974                   20936695.5084
 -38903132.61746 -29638562.48844  22286801.4144                   22286799.2304
 -13131942.44147  -9840099.77744  21872089.5554                   21872088.2734
 -32837759.41447 -25545027.58246  20432040.1094                   20432037.7344
 -52886539.59746 -39680633.80743  24143096.6954                   24143095.1524
 -13343140.81247 -10333683.07045  22050178.4384                   22050178.7934
   8394677.04346   6604574.96543  23965192.6174                   23965191.2344
 -51363814.73447 -39152557.54745  21228839.0164                   21228834.4924
 11  8 20  1 36 30.0000000  0  8G12G10G30G05G04G25G29G02
 -35152126.46947 -27349487.54345  20923872.8284                   20923870.1524
 -38908719.10547 -29642915.61344  22285738.2274                   22285736.2274
 -13250914.66847  -9932805.38745  21849449.9454                   21849448.3054
 -32944278.26247 -25628029.25046  20411770.2274                   20411767.7584
 -52894872.59446 -39687127.07043  24141510.3594                   24141510.0204
 -13476478.43747 -10437582.48845  22024804.9064                   22024805.2384
   8223434.70346   6471139.37543  23932605.9614                   23932604.6804
 -51422064.36347 -39197946.86345  21217754.5004                   21217750.4534
 11  8 20  1 37  0.0000000  0  8G12G10G30G05G04G25G29G02
 -35218937.52347 -27401548.11345  20911158.8444                   20911156.2854
 -38913905.88347 -29646957.28544  22284751.4454                   22284749.3524
 -13369276.46147 -10025035.32845  21826926.4844                   21826924.7974
 -33050203.52047 -25710568.38346  20391613.0704                   20391610.9304
 -52903240.46946 -39693647.51243  24139918.1884                   24139917.5004
 -13609268.52347 -10541055.25845  21999536.3054                   21999536.1644
   8052170.77746   6337687.02043  23900014.5864                   23900013.8714
 -51480174.03147 -39243227.10945  21206697.1024                   21206692.5394
 11  8 20  1 37 30.0000000  0  8G12G10G30G05G04G25G29G02
 -35285166.20747 -27453154.88345  20898556.1334                   20898553.2504
 -38918699.17646 -29650692.34044  22283839.2734                   22283837.3634
 -13487030.30547 -10116791.54345  21804518.6254                   21804517.3094
 -33155538.40247 -25792647.48046  20371568.7424                   20371566.1254
 -52911647.09846 -39700198.15642  24138318.5394                   24138317.5124
 -13741512.88747 -10644102.78945  21974370.8674                   21974370.7194
   7880882.84846   6204215.92643  23867420.2424                   23867419.1174
 -51538148.22347 -39288401.80145  21195664.6724                   21195660.3164
 11  8 20  1 38  0.0000000  0  8G12G10G30G05G04G25G29G02
 -35350811.23047 -27504306.85545  20886064.0394                   20886061.0594
 -38923099.76247 -29654121.39844  22283002.1484                   22282999.7154
 -13604173.03547 -10208071.58245  21782227.4224                   21782225.2344
 -33260280.32847 -25874264.54346  20351636.9534                   20351634.6804
 -52920090.56646 -39706777.47342  24136711.6174                   24136711.6484
 -13873207.77047 -10746722.14145  21949310.1804                   21949309.8984
   7709574.21546   6070728.71543  23834820.3674                   23834819.9804
 -51595985.26247 -39333469.61745  21184658.8054                   21184654.2384
 11  8 20  1 38 30.0000000  0  8G12G10G30G05G04G25G29G02
 -35415873.55947 -27555004.78145  20873683.4304                   20873680.5164
 -38927110.12147 -29657246.35944  22282239.1954                   22282236.8794
 -13720703.80547 -10298874.76245  21760052.1954                   21760050.3714
 -33364429.21147 -25955419.47746  20331817.7584                   20331815.7074
 -52928571.53946 -39713386.06642  24135097.0784                   24135097.8204
 -14004351.62547 -10848912.14145  21924354.3834                   21924353.8444
   7538246.00446   5937226.23443  23802218.7664                   23802217.2464
 -51653685.74247 -39378431.03145  21173678.7344                   21173674.1254
 11  8 20  1 39  0.0000000  0  8G12G10G30G05G04G25G29G02
 -35480354.13747 -27605249.40245  20861412.6884                   20861410.5864
 -38930733.43046 -29660069.74244  22281549.7274                   22281547.5704
 -13836622.14147 -10389200.71945  21737993.5474                   21737991.7504
 -33467985.23047 -26036112.45746  20312111.9534                   20312109.7344
 -52937090.70746 -39720024.41442  24133476.7034                   24133476.7894
 -14134943.37947 -10950671.92645  21899503.5084                   21899503.4654
   7366899.11746   5803709.20343  23769612.4844                   23769611.1054
 -51711250.63747 -39423286.79745  21162724.6174                   21162720.1134
 11  8 20  1 39 30.0000000  0  8G12G10G30G05G04G25G29G02
 -35544255.48447 -27655042.66445  20849252.8364                   20849250.2894
 -38933973.98446 -29662594.85944  22280932.4384                   22280930.6724
 -13951928.75047 -10479050.00845  21716051.4454                   21716049.6844
 -33570949.66047 -26116344.45346  20292518.6884                   20292516.1294
 -52945649.62946 -39726693.70743  24131847.7194                   24131847.7194
 -14264982.91047 -11052001.42245  21874757.5234                   21874757.2704
   7195533.14846   5670177.31643  23737001.9384                   23737001.4184
 -51768682.37147 -39468038.78945  21151794.8134                   21151790.7624
 11  8 20  1 40  0.0000000  0  8G12G10G30G05G04G25G29G02
 -35607576.89147 -27704384.02045  20837203.3754                   20837200.4264
 -38936833.06646 -29664822.73444  22280388.5784                   22280386.8984
 -14066621.30547 -10568420.81645  21694226.5784                   21694224.2894
 -33673321.02347 -26196114.32446  20273037.9064                   20273035.3404
 -52954247.35546 -39733393.32843  24130211.9694                   24130211.4454
 -14394467.29747 -11152898.33645  21850117.4064                   21850117.5234
   7024150.84046   5536632.70743  23704389.6644                   23704388.5394
 -51825979.89547 -39512686.20345  21140891.8594                   21140887.5704
 11  8 20  1 40 30.0000000  0  8G12G10G30G05G04G25G29G02
 -35670318.53947 -27753273.62145  20825264.4774                   20825261.3444
 -38939312.45746 -29666754.73844  22279916.8444                   22279914.8714
 -14180698.16047 -10657311.85945  21672517.9384                   21672516.3674
 -33775098.01247 -26275421.04746  20253670.6174                   20253667.8834
 -52962883.21146 -39740122.60543  24128568.4844                   24128568.2424
 -14523394.15647 -11253360.81245  21825583.2274                   21825583.4534
   6852754.24646   5403076.95743  23671773.2974                   23671772.7194
 -51883142.75447 -39557228.68745  21130014.4614                   21130009.8794
 11  8 20  1 41  0.0000000  0  8G12G10G30G05G04G25G29G02
 -35732481.63747 -27801712.39845  20813435.1804                   20813432.1484
 -38941415.25046 -29668393.28944  22279516.7814                   22279514.5314
 -14294158.71147 -10745722.68045  21650927.3594                   21650925.8484
 -33876280.88747 -26354264.82846  20234415.4534                   20234413.4454
 -52971557.82445 -39746882.07842  24126917.6804                   24126917.6374
 -14651762.23447 -11353387.88745  21801155.9304                   21801155.8484
   6681344.30146   5269510.80143  23639155.1644                   23639153.9494
 -51940172.24647 -39601667.23845  21119161.9064                   21119157.8834
 11  8 20  1 41 30.0000000  0  8G12G10G30G05G04G25G29G02
 -35794068.62947 -27849702.26645  20801715.1334                   20801712.2544
 -38943146.09846 -29669741.99644  22279187.2344                   22279185.3954
 -14407004.02747 -10833654.08645  21629453.6254                   21629451.4654
 -33976871.29747 -26432646.93746  20215274.3444                   20215271.8524
 -52980273.26646 -39753673.37942  24125259.6564                   24125259.3954
 -14779571.88747 -11452979.82045  21776834.8054                   21776834.6254
   6509920.82046   5135934.12143  23606534.6644                   23606533.4694
 -51997070.39547 -39646003.46145  21108334.4384                   21108330.1524
 11  8 20  1 42  0.0000000  0  8G12G10G30G05G04G25G29G02
 -35855080.25047 -27897243.78545  20790105.0784                   20790102.2234
 -38944506.74646 -29670802.27044  22278928.5944                   22278926.7424
 -14519232.64547 -10921104.94945  21608097.1254                   21608095.2934
 -34076868.88347 -26510567.12146  20196245.2584                   20196242.7504
 -52989029.13346 -39760496.14142  24123593.3594                   24123593.1334
 -14906821.01647 -11552134.98445  21752620.1484                   21752620.1294
   6338485.44146   5002348.20343  23573910.9924                   23573910.0904
 -52053837.03147 -39690237.20345  21097531.9384                   21097527.8014
 11  8 20  1 42 30.0000000  0  8G12G10G30G05G04G25G29G02
 -35915518.53947 -27944338.56645  20778603.7974                   20778601.0164
 -38945501.14546 -29671577.11744  22278739.3674                   22278737.3754
 -14630845.01247 -11008075.62145  21586858.0004                   21586856.6334
 -34176274.19147 -26588025.78946  20177328.6334                   20177326.7154
 -52997826.66046 -39767351.36342  24121919.6094                   24121918.5474
 -15033509.25847 -11650853.09845  21728511.7424                   21728511.9534
   6167038.41046   4868753.16643  23541286.1094                   23541284.6954
 -52110473.95347 -39734369.85945  21086754.4844                   21086749.8164
 11  8 20  1 43  0.0000000  0  8G12G10G30G05G04G25G29G02
 -35975383.73847 -27990986.77045  20767212.0784                   20767209.3244
 -38946131.53546 -29672068.31643  22278618.7974                   22278617.3444
 -14741839.87547 -11094565.12544  21565736.4384                   21565734.4964
 -34275087.03147 -26665022.78146  20158525.2974                   20158522.8324
 -53006665.75446 -39774238.94943  24120236.7974                   24120236.8014
 -15159634.69147 -11749132.66445  21704510.3754                   21704510.8484
   5995581.24246   4735150.23843  23508659.6414                   23508657.5234
 -52166981.57447 -39778401.77345  21076001.2734                   21075997.4024
 11  8 20  1 43 30.0000000  0  8G12G10G30G05G04G25G29G02
 -36034677.95347 -28037190.05945  20755928.8754                   20755926.1844
 -38946401.80146 -29672278.93444  22278567.4454                   22278565.5394
 -14852217.80147 -11180573.89844  21544732.5164                   21544730.3484
 -34373308.18747 -26741558.73046  20139834.3364                   20139831.6954
 -53015547.73446 -39781159.99643  24118547.2344                   24118546.9414
 -15285197.08247 -11846973.47745  21680617.4304                   21680616.9184
   5824114.46546   4601539.83243  23476029.4454                   23476028.7544
 -52223360.92247 -39822333.73045  21065272.5634                   21065268.8324
 11  8 20  1 44  0.0000000  0  9G12G26G10G30G05G04G25G29G02
 -34517980.38747 -26855347.80545  21044546.9144                   21044544.4804
  18643029.64115                  24961470.063
 -37370894.57046 -28444610.94944  22578376.1724                   22578374.0784
 -13386554.43047 -10038498.53545  21823638.6024                   21823637.0704
 -32895514.43747 -25590031.11746  20421049.6804                   20421046.9224
 -51449052.54346 -38560514.37143  24416640.5394                   24416640.7974
 -13834770.94547 -10716771.29345  21956623.8444                   21956624.3984
   7228065.10246   5695527.39843  23743192.5004                   23743190.8444
 -50704190.82847 -38638564.81645  21354361.6564                   21354356.9414
 11  8 20  1 44 30.0000000  0  9G12G26G10G30G05G04G25G29G02
 -34576138.64147 -26900665.92645  21033479.4534                   21033476.6914
  18462665.988 5                  24927146.141
 -37370454.99246 -28444268.43044  22578460.3364                   22578458.4064
 -13495698.89547 -10123546.17244  21802869.2194                   21802866.9964
 -32992554.92647 -25665647.06246  20402583.2114                   20402581.0514
 -51458023.16846 -38567504.49643  24414933.3594                   24414933.5044
 -13959205.62547 -10813733.37545  21932945.0084                   21932945.0664
   7056580.73046   5561903.28543  23710560.3054                   23710558.7504
 -50760318.12547 -38682300.37145  21343681.0864                   21343676.4344
 11  8 20  1 45  0.0000000  0  9G12G26G10G30G05G04G25G29G02
 -34633735.25847 -26945546.40645  21022519.2894                   21022516.5234
  18282177.410 5                  24892801.688
 -37369669.49246 -28443656.35544  22578609.8054                   22578608.1054
 -13604230.51647 -10208116.26245  21782216.1954                   21782214.6134
 -33089010.10247 -25740806.91846  20384228.3134                   20384226.0314
 -51467043.21946 -38574533.09843  24413218.1024                   24413217.6094
 -14083079.23447 -10910258.26645  21909373.0084                   21909372.4574
   6885084.72746   5428270.08243  23677925.9844                   23677924.2344
 -50816324.91847 -38725942.02045  21333023.0004                   21333018.6644
 11  8 20  1 45 30.0000000  0  9G12G26G10G30G05G04G25G29G02
 -34690771.21947 -26989990.01645  21011665.8134                   21011662.8284
  18101566.805 5                  24858430.414
 -37368540.77746 -28442776.85244  22578825.3134                   22578822.4804
 -13712148.52747 -10292208.22345  21761680.2274                   21761678.3914
 -33184879.73047 -25815510.49246  20365985.2584                   20365982.3524
 -51476112.78545 -38581600.32042  24411491.5634                   24411491.6174
 -14206390.29347 -11006344.80145  21885907.2274                   21885907.5744
   6713578.50446   5294628.92643  23645288.9924                   23645287.4224
 -50872211.60947 -38769490.08245  21322388.2734                   21322383.8094
 11  8 20  1 46  0.0000000  0  9G12G26G10G30G05G04G25G29G02
 -34747247.98447 -27033997.89145  21000918.4224                   21000915.8554
  17920837.164 5                  24824039.906
 -37367071.60946 -28441632.07044  22579104.3444                   22579102.5594
 -13819452.49647 -10375821.70744  21741261.2504                   21741258.8524
 -33280164.00847 -25889757.94546  20347853.0394                   20347850.4844
 -51485232.06646 -38588706.24242  24409756.1724                   24409756.4734
 -14329137.62147 -11101992.05545  21862549.7974                   21862549.1254
   6542063.44146   5160980.86743  23612650.5704                   23612649.0124
 -50927978.87147 -38812945.09445  21311775.8594                   21311771.4614
 11  8 20  1 46 30.0000000  0  9G12G26G10G30G05G04G25G29G02
 -34803166.67647 -27077570.89145  20990277.6564                   20990274.5704
  17739991.371 5                  24789624.789
 -37365264.96546 -28440224.29344  22579447.9224                   22579446.4494
 -13926142.14147 -10458956.48845  21720958.7664                   21720956.5354
 -33374863.34847 -25963549.60946  20329832.4454                   20329829.6414
 -51494401.68746 -38595851.37542  24408010.8754                   24408012.1804
 -14451320.10947 -11197199.18045  21839298.8594                   21839298.7424
   6370540.62546   5027326.74243  23580011.0944                   23580009.3874
 -50983627.23847 -38856307.44945  21301186.3594                   21301182.0394
 11  8 20  1 47  0.0000000  0  9G12G26G10G30G05G04G25G29G02
 -34858527.27347 -27120709.02345  20979742.9064                   20979739.8914
  17559033.58215                  24755190.445
 -37363122.35946 -28438554.75443  22579855.8984                   22579854.0554
 -14032215.75847 -10541611.25845  21700773.6564                   21700771.7114
 -33468976.66847 -26036884.62946  20311923.6174                   20311920.6724
 -51503620.31246 -38603034.65242  24406257.3134                   24406257.6954
 -14572935.37147 -11291964.30545  21816156.4454                   21816156.3324
   6199012.69546   4893668.66843  23547370.0084                   23547368.6564
 -51039156.04347 -38899576.64145  21290619.4384                   21290615.1724
 11  8 20  1 47 30.0000000  0  9G12G26G10G30G05G04G25G29G02
 -34913328.37547 -27163411.18445  20969314.5084                   20969311.8484
  17377969.168 5                  24720735.867
 -37360643.80946 -28436623.39843  22580327.4774                   22580325.4654
 -14137670.37547 -10623783.67645  21680706.0784                   21680703.8914
 -33562501.71147 -26109761.25046  20294125.6804                   20294123.0664
 -51512885.62545 -38610254.32042  24404493.9224                   24404494.6454
 -14693979.68447 -11386284.53945  21793122.1724                   21793122.7664
   6027483.72746   4760009.75443  23514728.8524                   23514728.0234
 -51094563.16847 -38942751.02045  21280075.8444                   21280071.6454
 11  8 20  1 48  0.0000000  0  9G12G26G10G30G05G04G25G29G02
 -34967573.14547 -27205679.82845  20958992.3204                   20958989.1884
  17196799.941 5                  24686259.289
 -37357833.76246 -28434433.75444  22580862.2584                   22580860.1764
 -14242507.22347 -10705474.73044  21660756.2504                   21660754.1884
 -33655440.06647 -26182180.70746  20276440.3594                   20276437.9574
 -51522199.29745 -38617511.72342  24402721.8834                   24402723.1914
 -14814453.46947 -11480160.21945  21770197.2344                   21770196.4774
   5855953.33646   4626349.77043  23482088.3284                   23482086.6914
 -51149850.64847 -38985832.16845  21269554.6724                   21269550.3834
 11  8 20  1 48 30.0000000  0  9G12G26G10G30G05G04G25G29G02
 -35021263.80547 -27247516.70745  20948775.2664                   20948772.5554
  17015527.383 5                  24651764.617
 -37354696.37146 -28431989.03943  22581459.0084                   22581457.0634
 -14346727.21147 -10786685.10544  21640923.6724                   21640921.7894
 -33747793.24247 -26254144.17646  20258866.5944                   20258863.3834
 -51531563.09445 -38624808.15642  24400939.7344                   24400940.8134
 -14934356.91447 -11573591.45745  21747380.1954                   21747380.4064
   5684421.71546   4492688.80143  23449447.3134                   23449445.6334
 -51205020.49247 -39028821.65645  21259056.3444                   21259052.0084
 11  8 20  1 49  0.0000000  0  9G12G26G10G30G05G04G25G29G02
 -35074399.97747 -27288921.52045  20938663.4844                   20938660.8524
  16834156.60545  14725457.73853  24617250.3054                   24617249.7154
 -37351232.12146 -28429289.60943  22582118.6884                   22582116.6054
 -14450327.96547 -10867412.97344  21621209.1724                   21621207.3524
 -33839559.82047 -26325650.56246  20241403.3754                   20241400.6174
 -51540974.746 5                  24399148.023
 -15053686.85547 -11666575.83245  21724671.8914                   21724671.8594
   5512892.31346   4359029.58243  23416805.4144                   23416804.3594
 -51260071.02047 -39071718.16845  21248580.5004                   21248576.3014
 11  8 20  1 49 30.0000000  0  9G12G26G10G30G05G04G25G29G02
 -35126982.19147 -27329894.66445  20928657.5164                   20928654.8164
  16652691.37545  14584056.49642  24582719.3444                   24582719.4454
 -37347443.27746 -28426337.27344  22582839.4454                   22582837.9264
 -14553308.35247 -10947657.42644  21601612.1644                   21601610.6764
 -33930739.13747 -26396699.34446  20224052.4384                   20224049.9844
 -51550434.148 5                  24397348.281
 -15172441.39547 -11759111.82845  21702073.7974                   21702073.3284
   5341367.18446   4225373.69943  23384164.6484                   23384163.8204
 -51315001.86347 -39114521.43045  21238127.8364                   21238123.4844
 11  8 20  1 50  0.0000000  0  9G12G26G10G30G05G04G25G29G02
 -35179012.98447 -27370438.14545  20918756.1094                   20918753.7194
  16471133.35545  14442582.89542  24548169.4454                   24548170.8164
 -37343334.03946 -28423135.27043  22583621.2274                   22583619.5864
 -14655669.51247 -11027419.35544  21582134.7114                   21582132.1094
 -34021332.93447 -26467291.87546  20206812.6414                   20206810.4264
 -51559942.359 6                  24395539.711
 -15290620.89547 -11851199.73845  21679585.0864                   21679584.8444
   5169846.50846   4091721.24643  23351526.4924                   23351524.7854
 -51369814.89847 -39157232.88745  21227697.6414                   21227692.8244
 11  8 20  1 50 30.0000000  0  9G12G26G10G30G05G04G25G29G02
 -35230494.55547 -27410553.66045  20908959.8834                   20908957.0594
  16289484.89545  14301038.68042  24513602.9614                   24513603.9224
 -37338907.42246 -28419685.93443  22584463.3594                   22584461.7274
 -14757411.97347 -11106699.20744  21562773.3984                   21562770.9884
 -34111342.39147 -26537429.08246  20189685.1334                   20189681.9924
 -51569500.67645 -38631207.87552  24393719.7584                   24393719.5234
 -15408225.03147 -11942839.32045  21657205.6644                   21657205.2894
   4998330.91446   3958072.78143  23318888.1334                   23318886.4924
 -51424511.47747 -39199853.59845  21217289.2034                   21217284.5984
 11  8 20  1 51  0.0000000  0  9G12G26G10G30G05G04G25G29G02
 -35281429.64547 -27450243.33645  20899267.2424                   20899264.3134
  16107748.40645  14159426.00842  24479019.0784                   24479021.3794
 -37334167.58646 -28415992.53143  22585366.3674                   22585363.9574
 -14858536.40247 -11185497.44945  21543529.8674                   21543527.6254
 -34200768.72747 -26607111.90246  20172666.7424                   20172664.6294
 -51579109.94546 -38638695.54342  24391891.3524                   24391891.0044
 -15525253.74647 -12034030.52045  21634936.3754                   21634936.2584
   4826820.73846   3824428.55143  23286250.1174                   23286249.2894
 -51479092.78147 -39242384.48045  21206902.3834                   21206898.1884
 11  8 20  1 51 30.0000000  0  9G12G26G10G30G05G04G25G29G02
 -35331817.49247 -27489506.59445  20889678.4384                   20889676.1644
  15925928.33245  14017748.22342  24444419.9144                   24444422.0434
 -37329115.46146 -28412055.82043  22586327.2194                   22586325.1374
 -14959040.82447 -11263812.57445  21524404.4144                   21524402.1174
 -34289610.59447 -26676339.29346  20155761.4844                   20155758.5704
 -51588768.54756 -38646221.71552  24390054.3914                   24390053.6684
 -15641704.30547 -12124771.21945  21612776.1804                   21612776.1484
   4655319.63746   3690791.38343  23253614.6174                   23253613.6644
 -51533557.42247 -39284824.45345  21196538.2584                   21196533.6254
 11  8 20  1 52  0.0000000  0  9G12G26G10G30G05G04G25G29G02
 -35381659.78147 -27528344.73845  20880194.0394                   20880191.2934
  15744027.63745  13876007.55942  24409805.4384                   24409806.8634
 -37323754.02046 -28407878.05943  22587348.0634                   22587345.6764
 -15058925.27747 -11341644.62145  21505396.8674                   21505394.9064
 -34377868.69547 -26745111.80546  20138966.4064                   20138963.6884
 -51598476.70746 -38653786.49242  24388206.8134                   24388205.7704
 -15757575.90647 -12215060.77045  21590726.4224                   21590726.2544
   4483828.62146   3557162.05944  23220981.4694                   23220979.8984
 -51587906.29347 -39327174.21545  21186196.1804                   21186191.4614
 11  8 20  1 52 30.0000000  0  9G12G26G10G30G05G04G25G29G02
 -35430958.96947 -27566759.69545  20870812.5004                   20870810.0864
  15562048.64145  13734205.89542  24375175.3984                   24375177.3794
 -37318087.00046 -28403462.19943  22588425.7424                   22588423.8714
 -15158190.48847 -11418994.14545  21486507.5784                   21486505.1294
 -34465544.32047 -26813430.44146  20122282.1334                   20122279.7274
 -51608235.46146 -38661390.70342  24386349.0164                   24386349.2974
 -15872868.47747 -12304899.12945  21568787.0784                   21568786.9344
   4312348.32846   3423541.12143  23188349.6564                   23188347.6724
 -51642140.54347 -39369434.66445  21175875.6644                   21175871.0434
 11  8 20  1 53  0.0000000  0  9G12G26G10G30G05G04G25G29G02
 -33904295.02347 -26377151.42645  21161327.1174                   21161324.4844
  16955420.25045  14819950.18442  24640324.8984                   24640326.7734
 -35736697.60946 -27171210.73843  22889354.4614                   22889352.5864
 -13681413.39547 -10268258.73844  21767528.9304                   21767526.6914
 -32977215.57047 -25653693.71946  20405501.2894                   20405499.1294
 -50042625.13346 -37441434.57842  24684275.0084                   24684275.0664
 -14412157.65247 -11166682.89145  21846751.2734                   21846751.0904
   5716305.63346   4517533.86343  23455513.8674                   23455512.5204
 -50120839.06647 -38184004.93745  21465369.7034                   21465365.0984
 11  8 20  1 53 30.0000000  0  9G12G26G10G30G05G04G25G29G02
 -33952510.64547 -26414722.04745  21152151.8754                   21152149.5904
  16773295.59045  14678035.00442  24605667.4694                   24605669.4304
 -35730426.28946 -27166324.00044  22890547.9224                   22890545.8244
 -13779438.54747 -10344641.97745  21748875.6884                   21748873.3134
 -33063726.43747 -25721104.75446  20389039.3284                   20389036.7814
 -50052484.11746 -37449116.92642  24682398.5394                   24682399.1684
 -14526288.09847 -11255615.69145  21825032.2584                   21825032.5824
   5544852.59846   4383934.12943  23422888.0314                   23422885.8014
 -50174843.97347 -38226086.67645  21455093.1254                   21455088.2114
 11  8 20  1 54  0.0000000  0  9G12G26G10G30G05G04G25G29G02
 -34000186.07447 -26451871.73445  21143079.8984                   21143077.0044
  16591103.492 5                  24570997.852
 -35723856.12946 -27161204.38343  22891797.8204                   22891795.6564
 -13876842.59447 -10420541.23845  21730339.6254                   21730338.0554
 -33149654.79747 -25788061.89146  20372687.6884                   20372684.9414
 -50062392.32445 -37456837.57042  24680512.5634                   24680513.6994
 -14639835.28947 -11344094.00445  21803425.3984                   21803425.3914
   5373416.41046   4250347.53543  23390264.0864                   23390262.8594
 -50228733.86747 -38268078.78545  21444837.6954                   21444833.0274
 11  8 20  1 54 30.0000000  0  9G12G26G10G30G05G04G25G29G02
 -34047325.46947 -26488603.73845  21134109.3364                   21134106.4064
  16408844.72745  14435699.52052  24536314.8984                   24536314.8794
 -35716992.46946 -27155856.06243  22893104.1334                   22893101.9454
 -13973628.03147 -10495958.46145  21711922.2664                   21711920.2974
 -33235003.66847 -25854567.48046  20356446.5084                   20356443.6374
 -50072352.45346 -37464598.78542  24678616.8284                   24678618.4574
 -14752800.80547 -11432119.06245  21781928.9844                   21781929.0864
   5201996.09446   4116773.29744  23357643.4224                   23357641.9804
 -50282511.60947 -38309983.50445  21434604.7274                   21434599.5664
 11  8 20  1 55  0.0000000  0  9G12G26G10G30G05G04G25G29G02
 -34093929.75847 -26524918.77345  21125241.1334                   21125238.2934
  16226523.50845  14293631.17242  24501621.0314                   24501621.7194
 -35709836.97746 -27150280.37543  22894465.8204                   22894463.7384
 -14069793.89547 -10570892.91045  21693622.1644                   21693620.7154
 -33319772.57847 -25920621.14846  20340315.2814                   20340312.4924
 -50082363.59446 -37472399.68042  24676712.8134                   24676713.3674
 -14865182.95347 -11519689.55145  21760543.2584                   21760543.1454
   5030593.99646   3983213.25843  23325026.8364                   23325025.2114
 -50336176.78947 -38351800.50445  21424392.2344                   21424387.9224
 11  8 20  1 55 30.0000000  0  9G12G26G10G30G05G04G25G29G02
 -34140003.24647 -26560820.19945  21116473.2034                   21116470.4144
  16044140.05545  14151514.32842  24466914.4144                   24466914.8324
 -35702395.55946 -27144481.87943  22895881.7344                   22895880.0864
 -14165343.29347 -10645346.98045  21675440.5784                   21675438.2344
 -33403965.38347 -25986225.91846  20324293.8134                   20324291.0044
 -50092428.86746 -37480242.78143  24674797.5314                   24674797.7304
 -14976983.99247 -11606807.22745  21739267.5084                   21739267.9574
   4859208.39146   3849666.07443  23292413.4774                   23292411.7464
 -50389732.94547 -38393532.55545  21414201.0164                   21414195.9024
 11  8 20  1 56  0.0000000  0  9G12G26G10G30G05G04G25G29G02
 -34185545.50447 -26596307.67645  21107807.1094                   21107803.9804
  15861698.82045  14009352.43842  24432196.8444                   24432196.7624
 -35694669.23446 -27138461.39543  22897351.8134                   22897350.0234
 -14260274.51647 -10719319.35945  21657375.2194                   21657372.8754
 -33487580.83647 -26051380.79346  20308382.1954                   20308379.9384
 -50102546.44945 -37488126.66842  24672871.4144                   24672872.9804
 -15088201.35947 -11693470.09445  21718104.2424                   21718103.9574
   4687842.92646   3716134.57043  23259803.5554                   23259801.9694
 -50443178.31647 -38435178.28545  21404030.1094                   21404025.1764
 11  8 20  1 56 30.0000000  0  9G12G26G10G30G05G04G25G29G02
 -34230558.60247 -26631382.82445  21099241.3204                   21099238.3984
  15679203.33246  13867148.28542  24397468.3134                   24397469.5164
 -35686660.74646 -27132221.05143  22898875.9924                   22898873.7774
 -14354587.77747 -10792810.21145  21639427.6564                   21639425.9344
 -33570619.84847 -26116086.50446  20292580.3204                   20292577.7934
 -50112716.68046 -37496051.55142  24670936.7664                   24670937.6094
 -15198834.50047 -11779677.70345  21697051.2814                   21697051.0744
   4516498.84446   3582619.73044  23227197.2734                   23227196.4414
 -50496513.70347 -38476738.31645  21393880.8674                   21393876.1214
 11  8 20  1 57  0.0000000  0  9G12G26G10G30G05G04G25G29G02
 -34275043.89147 -26666046.69945  21090775.8054                   21090773.2624
  15496657.27745  13724904.70742  24362731.1254                   24362732.1764
 -35678372.46546 -27125762.64143  22900452.6804                   22900451.1994
 -14448282.60947 -10865819.15645  21621598.1724                   21621596.4844
 -33653082.36747 -26180342.99646  20276888.5234                   20276886.0744
 -50122939.07045 -37504017.12542  24668991.5474                   24668992.3674
 -15308882.04347 -11865429.01645  21676109.8364                   21676109.9734
   4345178.53146   3449123.41843  23194596.3524                   23194594.4614
 -50549738.92647 -38518212.50045  21383752.2974                   21383748.1094
 11  8 20  1 57 30.0000000  0  8G12G26G10G30G05G25G29G02
 -34319004.44947 -26700301.68445  21082410.6094                   21082407.8244
  15314062.07445  13582622.88742  24327983.2974                   24327985.2664
 -35669808.66446 -27119089.57843  22902083.0234                   22902080.9144
 -14541360.84847 -10938347.64545  21603886.2584                   21603884.4224
 -33734970.87947 -26244152.21146  20261305.2274                   20261303.1454
 -15418345.09447 -11950724.87545  21655279.8364                   21655279.7304
   4173881.81346   3315645.45743  23161999.7894                   23161998.2704
 -50602855.98447 -38559602.40245  21373644.8914                   21373640.2504
 11  8 20  1 58  0.0000000  0  8G12G26G10G30G05G25G29G02
 -34362440.04747 -26734147.61345  21074144.9304                   21074142.2624
  15131422.64145  13440306.50042  24293228.6804                   24293230.0514
 -35660970.59446 -27112202.81243  22903764.6414                   22903762.5704
 -14633821.03147 -11010394.52345  21586291.4144                   21586289.6334
 -33816284.36347 -26307513.35246  20245832.0784                   20245829.4184
 -15527221.23047 -12035563.39845  21634561.5554                   21634561.5314
   4002611.91846   3182188.43043  23129407.6174                   23129406.7704
 -50655863.25847 -38600906.73845  21363557.3834                   21363552.8284
 11  8 20  1 58 30.0000000  0  8G12G26G10G30G05G25G29G02
 -34405351.45747 -26767585.08245  21065979.3834                   21065977.0164
  14948743.60945  13297959.39142  24258466.0084                   24258467.6214
 -35651859.58646 -27105103.37143  22905499.1414                   22905496.8134
 -14725661.87547 -11081958.81245  21568814.7664                   21568812.9574
 -33897021.80947 -26370425.63746  20230468.0084                   20230465.6294
 -15635508.39547 -12119942.96945  21613954.9844                   21613954.7274
   3831371.73846   3048754.54743  23096822.6954                   23096820.8834
 -50708759.84847 -38642124.84045  21353491.5234                   21353487.2114
 11  8 20  1 59  0.0000000  0  8G12G26G10G30G05G25G29G02
 -34447737.81247 -26800613.41045  21057913.3524                   21057910.8794
  14766030.82445  13155585.91042  24223697.6884                   24223699.5004
 -35642475.82446 -27097791.34443  22907284.2974                   22907282.4614
 -14816881.07447 -11153038.70345  21551456.5234                   21551454.9804
 -33977182.06247 -26432888.16046  20215214.5864                   20215211.8284
 -15743203.44947 -12203861.16845  21593461.2194                   21593461.2194
   3660165.41046   2915347.05543  23064242.7734                   23064241.1764
 -50761543.50447 -38683254.94545  21343447.4064                   21343442.5434
 11  8 20  1 59 30.0000000  0  8G12G26G10G30G05G25G29G02
 -34489599.57847 -26833232.97345  21049947.6644                   21049945.1994
  14583289.00045  13013189.87142  24188921.5784                   24188923.8524
 -35632821.02046 -27090268.15243  22909121.4454                   22909119.3554
 -14907477.81647 -11223633.55144  21534216.6644                   21534214.4384
 -34056764.56647 -26494900.48046  20200070.2664                   20200067.6564
 -15850304.77747 -12287316.71945  21573080.5164                   21573080.5204
   3488995.68846   2781968.06344  23031669.7814                   23031669.2384
 -50814213.68047 -38724296.63345  21333423.8674                   21333419.8284
 11  8 20  2  0  0.0000000  0  8G12G26G10G30G05G25G29G02
 -34530941.09847 -26865447.14545  21042080.4304                   21042077.8834
  14400518.67646  12870771.53542  24154143.2894                   24154143.3634
 -35622900.12146 -27082537.61743  22911009.5164                   22911007.5274
 -14997454.54347 -11293745.26645  21517093.7734                   21517092.4844
 -34135772.27747 -26556464.91046  20185035.6564                   20185033.1054
 -15956813.94147 -12370310.85245  21552812.3914                   21552812.3284
   3317862.11346   2648617.24644  22999104.1484                   22999103.1764
 -50866772.82047 -38765251.80545  21323422.6334                   21323417.8404
 11  8 20  2  0 30.0000000  0  8G12G26G10G30G05G25G29G02
 -34571766.19547 -26897258.91045  21034311.2344                   21034308.6524
  14217721.14546  12728332.07442  24119357.1484                   24119357.8984
 -35612717.83646 -27074603.39843  22912947.4304                   22912945.0434
 -15086813.75847 -11363375.80945  21500089.6564                   21500088.0314
 -34214208.18747 -26617583.78546  20170109.7344                   20170107.1214
 -16062732.54747 -12452844.80545  21532657.1024                   21532656.9614
   3146764.29746   2515294.32444  22966545.9614                   22966544.3634
 -50919223.19947 -38806122.23045  21313442.2974                   21313437.2154
 11  8 20  2  1  0.0000000  0  8G12G26G10G30G05G25G29G02
 -34612077.58647 -26928670.38345  21026640.5944                   21026638.0004
  14034898.80546  12585873.22342  24084566.8984                   24084567.4494
 -35602278.05946 -27066468.56243  22914933.5784                   22914931.6024
 -15175556.69147 -11432526.11745  21483202.6724                   21483200.9774
 -34292074.01247 -26678258.42646  20155292.4774                   20155289.6844
 -16168060.99247 -12534918.89545  21512613.6094                   21512613.6414
   2975702.65646   2381999.59044  22933993.8204                   22933992.1604
 -50971566.16047 -38846908.94945  21303481.5394                   21303476.5314
 11  8 20  2  1 30.0000000  0  8G12G26G10G30G05G25G29G02
 -34651878.92647 -26959684.41445  21019066.4454                   21019063.9964
  13852053.18846  12443396.25843  24049772.6564                   24049772.7774
 -35591585.50446 -27058136.73043  22916968.8524                   22916966.7114
 -15263685.71947 -11501198.07445  21466432.2734                   21466430.3634
 -34369372.69147 -26738491.13746  20140582.9454                   20140580.2384
 -16272800.78947 -12616534.29745  21492681.8674                   21492682.3594
   2804677.27746   2248733.10244  22901448.6724                   22901446.9844
 -51023803.83647 -38887613.61345  21293541.2194                   21293536.2464
 11  8 20  2  2  0.0000000  0  8G12G26G10G30G05G25G29G02
 -33115747.69547 -25762699.03545  21311382.9454   21311380.3054   15244616.61346
  13528510.76643                  24314769.0234                   24314768.6724
 -34005219.78346 -25822007.64443  23218843.8674                   23218842.1374
 -13775775.12547 -10341787.19945  21749572.6174                   21749570.5394
 -32870679.41847 -25570678.16046  20425774.6564                   20425771.9024
 -14801524.83247 -11470085.47345  21772656.8364                   21772656.1684
   4209118.20346   3343102.74244  23168704.7194                   23168703.5984
 -49500511.58647 -37700632.63745  21583413.3754                   21583409.1454
 11  8 20  2  2 30.0000000  0  8G12G26G10G30G05G25G29G02
 -33154531.27347 -25792920.00445  21304002.3914   21303999.7544   15061737.53946
  13386007.73843                  24279967.9614                   24279967.5704
 -33994025.82846 -25813285.14143  23220973.7504                   23220972.1334
 -13862673.86347 -10409500.48045  21733035.7734                   21733033.9064
 -32946842.87947 -25630026.28546  20411281.2734                   20411278.5514
 -14905082.39147 -11550779.65245  21752949.6094                   21752949.9414
   4038173.43846   3209899.10244  23136175.2194                   23136173.6254
 -49552536.07447 -37741171.19545  21573513.4774                   21573509.0394
 11  8 20  2  3  0.0000000  0  8G12G26G10G30G05G25G29G02
 -33192810.72347 -25822748.14545  21296718.3524   21296715.4144   14878844.97746
  13243494.15242                  24245164.8754                   24245164.4534
 -33982587.65646 -25804372.31243  23223150.5784                   23223148.7624
 -13948960.07447 -10476736.47345  21716616.2814                   21716614.5824
 -33022441.92247 -25688934.59446  20396895.0634                   20396892.2774
 -15008050.10547 -11631014.21145  21733356.2344                   21733356.1054
   3867269.53546   3076727.31644  23103652.7814                   23103651.4964
 -49604456.41047 -37781628.59445  21563633.6564                   21563629.0554
 11  8 20  2  3 30.0000000  0  8G12G26G10G30G05G25G29G02
 -33230589.27047 -25852185.97345  21289529.1884   21289526.8874   14695940.79746
  13100971.53542                  24210359.0234                   24210358.4024
 -33970908.80946 -25795271.92643  23225372.9924                   23225370.9064
 -14034635.46147 -10543496.50045  21700312.9924                   21700310.3714
 -33097478.82847 -25747404.87146  20382616.1884                   20382613.3134
 -15110428.82447 -11710789.82045  21713874.2894                   21713874.0204
   3696407.11746   2943587.86744  23071139.5004                   23071137.4064
 -49656273.76647 -37822005.73845  21553773.0864                   21553768.3554
 11  8 20  2  4  0.0000000  0  8G12G26G10G30G05G25G29G02
 -33267869.00047 -25881235.11345  21282435.5234   21282432.6844   14513028.32046
  12958442.49242                  24175551.3754                   24175551.1564
 -33958991.98046 -25785986.12943  23227640.3754                   23227638.8914
 -14119700.48447 -10609780.91045  21684125.7274                   21684123.2734
 -33171954.63347 -25805437.93746  20368443.6804                   20368440.9534
 -15212218.24247 -11790106.22745  21694504.2274                   21694504.2194
   3525587.82446   2810482.01643  23038633.1174                   23038631.2034
 -49707988.72747 -37862303.10245  21543931.6644                   21543927.3524
 11  8 20  2  4 30.0000000  0  8G12G26G10G30G05G25G29G02
 -33304652.50847 -25909897.58245  21275435.5704   21275432.8554   14330110.21146
  12815908.99642                  24140742.5004                   24140743.7734
 -33946841.02046 -25776517.86343  23229953.0234                   23229951.0664
 -14204156.66447 -10675590.91045  21668053.3594                   21668051.8984
 -33245871.58647 -25863035.52746  20354377.4774                   20354375.2344
 -15313418.88347 -11868963.85545  21675246.2734                   21675246.2624
   3354812.34046   2677410.32044  23006136.3524                   23006133.9494
 -49759602.37947 -37902521.51645  21534110.3754                   21534105.7854
 11  8 20  2  5  0.0000000  0  8G12G26G10G30G05G25G29G02
 -33340941.21147 -25938174.49245  21268529.8524   21268527.2704   14147190.31345
  12673374.10542                  24105934.7194                   24105934.4964
 -33934458.09446 -25766868.86743  23232309.4774                   23232307.8484
 -14288003.89847 -10740926.40245  21652098.4454                   21652096.2344
 -33319229.70747 -25920197.66846  20340418.4304                   20340415.3984
 -15414029.84447 -11947361.99245  21656101.3444                   21656100.5864
   3184082.96546   2544374.52044  22973646.8054                   22973644.8674
 -49811114.20747 -37942660.58645  21524307.7814                   21524303.2664
 11  8 20  2  5 30.0000000  0  8G12G26G10G30G05G25G29G02
 -33376736.60547 -25966067.00845  21261718.1724   21261715.4694   13964272.72345
  12530841.04342                  24071125.9924                   24071126.4224
 -33921845.22346 -25757040.67243  23234709.8674                   23234707.6024
 -14371242.14547 -10805787.34845  21636258.3834                   21636256.4104
 -33392029.37147 -25976924.64546  20326564.3674                   20326562.2344
 -15514050.22747 -12025299.93045  21637067.6724                   21637067.6484
   3013402.41046   2411376.78943  22941166.5784                   22941165.4654
 -49862523.97747 -37982720.12545  21514525.3524                   21514520.5004
 11  8 20  2  6  0.0000000  0  8G12G26G10G30G05G25G29G02
 -33412040.18747 -25993576.29745  21255000.4454   21254997.5944   13781361.24246
  12388312.68042                  24036318.5164                   24036320.3284
 -33909004.69946 -25747035.08643  23237153.9844                   23237151.2704
 -14453871.71147 -10870173.99645  21620534.6484                   21620532.7344
 -33464271.55547 -26033217.23446  20312817.7894                   20312815.1024
 -15613479.44947 -12102777.23045  21618146.6174                   21618146.4654
   2842772.34046   2278418.37944  22908696.8444                   22908695.5634
 -49913831.44947 -38022699.95345  21504761.8204                   21504756.9024
 11  8 20  2  6 30.0000000  0  8G12G26G10G30G05G25G29G02
 -33446856.35547 -26020705.77045  21248375.4144   21248372.3014   13598457.10546
  12245790.05942                  24001513.3364                   24001513.6174
 -33895941.21546 -25736855.78143  23239638.2664                   23239637.1094
 -14535895.23047 -10934088.40645  21604926.5784                   21604924.0824
 -33535959.33247 -26089077.81246  20299175.9144                   20299173.3444
 -15712319.28147 -12179795.25445  21599337.7504                   21599337.7384
   2672192.86346   2145499.39544  22876237.6094                   22876235.6174
 -49965038.75847 -38062601.73045  21495016.7584                   21495012.4654
 11  8 20  2  7  0.0000000  0  8G12G26G10G30G05G25G29G02
 -33481190.36347 -26047459.54745  21241841.3754   21241838.8524   13415560.62946
  12103273.43842                  23966709.6174                   23966709.4884
 -33882660.88346 -25726507.50443  23242165.8674                   23242164.3054
 -14617316.69147 -10997533.68045  21589432.0234                   21589429.9884
 -33607097.06247 -26144509.77746  20285639.0784                   20285636.2114
 -15810572.77747 -12256356.40245  21580641.3524                   21580640.2894
   2501662.40646   2012618.60544  22843786.4924                   22843784.2974
 -50016149.75847 -38102428.46945  21485290.8284                   21485286.2544
 11  8 20  2  7 30.0000000  0  8G12G26G10G30G05G25G29G02
 -33515040.02047 -26073835.90645  21235400.0164   21235397.2074   13232679.01646
  11960768.35942                  23931908.6484                   23931908.5044
 -33869162.18046 -25715989.04343  23244734.8674                   23244732.8834
 -14698132.62147 -11060507.10545  21574053.3984                   21574051.3754
 -33677681.64547 -26199510.72746  20272206.9534                   20272203.9884
 -15908235.70347 -12332457.37145  21562056.1804                   21562056.2704
   2331186.84046   1879780.58244  22811345.6484                   22811343.8714
 -50067160.25847 -38142176.89545  21475583.6334                   21475579.4344
 11  8 20  2  8  0.0000000  0  8G12G26G10G30G05G25G29G02
 -33548408.28947 -26099837.15245  21229050.3444   21229047.3014   13049815.33246
  11818277.25042                  23897110.7114                   23897110.2704
 -33855448.61746 -25705303.14543  23247344.5704                   23247342.7074
 -14778344.64847 -11123009.96545  21558789.2734                   21558787.2234
 -33747715.24247 -26254082.33246  20258879.7114                   20258877.3484
 -16005308.73447 -12408098.68045  21543584.0634                   21543583.8634
   2160767.12146   1746986.06344  22778915.5084                   22778914.0474
 -50118071.25447 -38181847.79345  21465896.0634                   21465891.2894
 11  8 20  2  8 30.0000000  0  8G12G26G10G30G05G25G29G02
 -33581299.44147 -26125466.62945  21222791.2114   21222788.7624   12866970.30546
  11675800.68443                  23862316.5474                   23862315.8134
 -33841525.14546 -25694453.72743  23249993.8594                   23249992.2154
 -14857955.72747 -11185044.55145  21543640.3524                   21543637.6604
 -33817201.12147 -26308227.14846  20245656.6564                   20245654.3984
 -16101794.00447 -12483281.98445  21525223.5944                   21525223.2384
   1990402.63346   1614234.56344  22746496.9064                   22746495.2274
 -50168885.25447 -38221443.10945  21456226.0944                   21456221.3284
 11  8 20  2  9  0.0000000  0  8G12G26G10G30G05G25G29G02
 -33613713.84847 -26150724.60945  21216622.6414   21216620.4494   12684149.50846
  11533342.99243                  23827526.8594                   23827526.0634
 -33827392.48046 -25683441.27043  23252682.8984                   23252681.5554
 -14936964.76647 -11246610.02345  21528604.8594                   21528602.8014
 -33886138.70347 -26361944.71946  20232538.6094                   20232535.9024
 -16197689.46547 -12558005.70345  21506975.1334                   21506975.0434
   1820097.23446   1481529.12144  22714088.3914                   22714086.8204
 -50219600.35947 -38260961.35245  21446575.3524                   21446571.0204
 11  8 20  2  9 30.0000000  0  8G12G26G10G30G05G25G29G02
 -33645652.52747 -26175611.88745  21210545.7894   21210542.4774   12501357.64846
  11390907.89143                  23792741.7034                   23792741.9694
 -33813052.16446 -25672266.98843  23255412.7814                   23255410.1804
 -15015371.25447 -11307705.97745  21513684.6414                   21513682.8164
 -33954527.77747 -26415234.88746  20219525.3754                   20219522.2464
 -16292993.81247 -12632268.82445  21488839.5004                   21488839.5984
   1649853.94946   1348872.07044  22681692.3284                   22681690.9454
 -50270215.71947 -38300401.87945  21436943.7504                   21436939.2934
 11  8 20  2 10  0.0000000  0  8G12G26G10G30G05G25G29G02
 -33677119.86747 -26200131.89545  21204557.5314   21204554.4804   12318595.42246
  11248495.82843                  23757964.0864                   23757963.7974
 -33798509.64846 -25660935.17243  23258180.1484                   23258177.7424
 -15093178.82447 -11368335.24645  21498878.2194                   21498876.3914
 -34022372.35247 -26468100.77046  20206614.1254                   20206611.2854
 -16387709.71547 -12706073.40645  21470815.4924                   21470814.9844
   1479671.97746   1216262.80144  22649307.7734                   22649305.9024
 -50320734.32847 -38339767.02745  21427330.3834                   21427326.2194
 11  8 20  2 10 30.0000000  0  8G12G26G10G30G05G25G29G02
 -33708117.64847 -26224286.02345  21198658.2974   21198656.0124   12135867.38746
  11106110.43043                  23723191.3054                   23723190.9494
 -33783766.60946 -25649447.11743  23260985.2584                   23260983.7584
 -15170387.29747 -11428497.68445  21484185.8134                   21484183.9414
 -34089672.98047 -26520542.79346  20193807.4534                   20193804.5474
 -16481836.26247 -12779418.75845  21452904.0944                   21452903.6294
   1309553.90246   1083703.30544  22616934.6644                   22616933.4344
 -50371155.03947 -38379055.86745  21417735.5084                   21417731.4304
 11  8 20  2 11  0.0000000  0  8G12G26G10G30G05G25G29G02
 -32163228.21547 -25020476.07445  21492641.3914   21492638.9964   13528601.40245
  12191357.79743                  23988219.9534                   23988219.6804
 -32193407.95346 -24410206.61343  23563620.5314                   23563618.9734
 -13671576.64147 -10260593.25045  21769400.0314                   21769397.7624
 -32581010.14147 -25344961.34846  20480896.6024                   20480893.4804
 -14999951.83647 -11624703.62145  21734897.3284                   21734897.1454
   2714925.91046   2178798.43044  22884368.7344                   22884367.0084
 -48846057.97747 -37190668.53945  21707951.6334                   21707947.3914
 11  8 20  2 11 30.0000000  0  8G12G26G10G30G05G25G29G02
 -32193295.93747 -25043905.48045  21486920.3364                   21486916.7074
  13345949.02346  12049031.32442  23953463.8834                   23953462.4454
 -32178274.98846 -24398414.72343  23566500.2504                   23566498.4844
 -13747592.85547 -10319826.66845  21754934.9534                   21754932.9184
 -32647229.40647 -25396560.75046  20468295.0944                   20468291.8094
 -15092902.70747 -11697132.86345  21717209.2814                   21717208.6414
   2544938.48446   2046340.75844  22852020.3754                   22852019.1604
 -48896286.68047 -37229807.78545  21698393.6094                   21698389.2154
 11  8 20  2 12  0.0000000  0  8G12G26G10G30G05G25G29G02
 -32222902.16847 -25066975.28145  21481285.6954                   21481282.5944
  13163339.79746  11906738.53142  23918713.7664                   23918712.6994
 -32162950.91446 -24386473.88343  23569416.0234                   23569414.3204
 -13823014.34047 -10378596.66045  21740582.5704                   21740580.6294
 -32712909.77347 -25447740.24646  20455797.1174                   20455793.7274
 -15185265.84047 -11769104.13345  21699632.6094                   21699632.1134
   2375019.07846   1913936.06644  22819686.1564                   22819684.5904
 -48946419.46947 -37268872.27745  21688853.7344                   21688848.8244
 11  8 20  2 12 30.0000000  0  8G12G26G10G30G05G25G29G02
 -32252049.76247 -25089687.68445  21475738.7114                   21475736.3134
  12980776.15245  11764481.13742  23883972.5234                   23883971.9184
 -32147439.53146 -24374387.10543  23572367.9614                   23572366.1134
 -13897842.90247 -10436904.63345  21726342.9144                   21726341.0204
 -32778053.95747 -25498501.92646  20443399.8524                   20443397.4104
 -15277042.22347 -11840618.18745  21682168.2814                   21682168.3524
   2205168.76646   1781585.19544  22787364.6804                   22787362.9884
 -48996457.45347 -37307862.90245  21679332.1484                   21679327.6684
 11  8 20  2 13  0.0000000  0  8G12G26G10G30G05G25G29G02
 -32280741.04347 -25112044.53945  21470279.2734                   21470276.7344
  12798261.87145  11622262.36342  23849240.5314                   23849240.7194
 -32131743.15946 -24362156.13643  23575355.0234                   23575353.0824
 -13972079.43447 -10494751.28545  21712216.7894                   21712214.2304
 -32842662.94947 -25548846.57446  20431105.4614                   20431102.5514
 -15368231.81247 -11911674.99645  21664815.4614                   21664815.2344
   2035389.66046   1649289.84844  22755057.0784                   22755055.3524
 -49046400.66447 -37346779.68445  21669827.8984                   21669823.0274
 11  8 20  2 13 30.0000000  0  8G12G26G10G30G05G25G29G02
 -32308976.28147 -25134046.02345  21464905.9924                   21464903.9534
  12615802.33646  11480086.12143  23814520.6254                   23814519.2194
 -32115862.26246 -24349781.43743  23578377.3984                   23578375.2424
 -14045722.93447 -10552135.82845  21698202.7974                   21698200.4844
 -32906736.03547 -25598773.64146  20418912.8054                   20418910.2344
 -15458832.76247 -11982273.13345  21647575.1094                   21647574.6294
   1865685.62947   1517052.99244  22722763.1884                   22722761.5984
 -49096247.57847 -37385621.41045  21660342.6094                   21660338.2424
 11  8 20  2 14  0.0000000  0  8G12G26G10G30G05G25G29G02
 -32336757.15247 -25155693.46145  21459620.1334                   21459617.3754
  12433401.86746  11337956.03943  23779810.4144                   23779810.1094
 -32099798.77746 -24337264.42243  23581434.3134                   23581431.9304
 -14118773.76647 -10609058.55945  21684301.5944                   21684299.4304
 -32970273.95347 -25648283.68446  20406821.7814                   20406819.2344
 -15548844.57047 -12052412.19945  21630445.8594                   21630445.5474
   1696058.99247   1384876.43444  22690484.5234                   22690482.6884
 -49145996.90647 -37424387.10245  21650875.2974                   21650871.0354
 11  8 20  2 14 30.0000000  0  8G12G26G10G30G05G25G29G02
 -32364089.14847 -25176991.11745  21454418.3444                   21454416.0664
  12251060.70346  11195872.12543  23745112.0314                   23745111.5984
 -32083559.10546 -24324610.16043  23584524.1804                   23584522.5664
 -14191236.48847 -10665523.02745  21670511.9614                   21670509.9924
 -33033281.35947 -25697380.35946  20394831.9064                   20394829.4774
 -15638270.87147 -12122095.02045  21613428.7424                   21613428.7464
   1526508.35547   1252759.10544  22658219.9224                   22658218.0824
 -49195652.62547 -37463079.85245  21641426.2424                   21641421.7624
 11  8 20  2 15  0.0000000  0  8G12G26G10G30G05G25G29G02
 -32390970.86747 -25197937.91445  21449303.0004                   21449300.6844
  12068786.12546  11053840.13743  23710426.2194                   23710425.4694
 -32067141.81246 -24311817.44142  23587647.7114                   23587646.6844
 -14263108.19947 -10721526.96145  21656835.7034                   21656833.7074
 -33095755.97747 -25746061.85246  20382943.6414                   20382940.6214
 -15727107.95747 -12191318.72345  21596523.4774                   21596523.1844
   1357039.84447   1120705.78144  22625971.1884                   22625969.0784
 -49245210.46547 -37501696.34045  21631995.2894                   21631991.1684
 11  8 20  2 15 30.0000000  0  9G12G26G10G30G05G15G25G29G02
 -32417410.40247 -25218540.15245  21444271.9534                   21444269.3204
  11886576.02346  10911858.32843  23675752.5634                   23675751.6024
 -32050555.36346 -24298892.91442  23590803.7034                   23590803.1414
 -14334395.97347 -10777075.88745  21643270.0704                   21643267.9494
 -33157705.22747 -25794333.97746  20371154.9774                   20371152.1374
  23369895.10555  18249658.07853  24581633.8674                   24581634.0314
 -15815361.87547 -12260087.99245  21579729.4534                   21579729.2814
   1187649.21547    988713.15644  22593736.8134                   22593735.2154
 -49294676.59047 -37540241.35545  21622582.7974                   21622578.2814
 11  8 20  2 16  0.0000000  0  9G12G26G10G30G05G15G25G29G02
 -32443410.85947 -25238800.25445  21439324.2194                   21439321.8634
  11704433.09046  10769928.85243  23641092.1564                   23641091.6374
 -32033802.88746 -24285839.01642  23593992.3834                   23593990.9924
 -14405101.62547 -10832171.20745  21629815.8524                   21629813.0984
 -33219131.30547 -25842198.43746  20359465.6644                   20359462.9184
  23189047.84045  18108738.35243  24547218.7814                   24547219.8054
 -15903033.68747 -12328403.67645  21563046.2344                   21563045.8594
   1018337.88347    856782.30544  22561518.5084                   22561516.3134
 -49344051.92647 -37578715.62545  21613186.7894                   21613181.9534
 11  8 20  2 16 30.0000000  0  9G12G26G10G30G05G15G25G29G02
 -32468977.02047 -25258721.93445  21434458.8284                   21434456.4414
  11522358.55146  10628052.70743  23606444.2344                   23606443.8324
 -32016889.32046 -24272659.62542  23597210.7344                   23597209.3524
 -14475228.72747 -10886815.70345  21616470.2664                   21616468.4264
 -33280037.92247 -25889658.11346  20347875.3524                   20347873.1214
  23008077.07045  17967722.38342  24512781.0004                   24512782.1764
 -15990126.01247 -12396267.80545  21546473.0944                   21546472.8794
    849105.53547    724913.00844  22529314.2504                   22529312.3444
 -49393338.80547 -37617120.96145  21603807.3834                   21603803.2194
 11  8 20  2 17  0.0000000  0  9G12G26G10G30G05G15G25G29G02
 -32494112.33247 -25278307.89145  21429676.1024                   21429673.5164
  11340354.84846  10486231.73843  23571809.5084                   23571809.0204
 -31999818.65646 -24259357.80943  23600459.1094                   23600457.4384
 -14544779.62947 -10941011.21145  21603235.0944                   21603233.2464
 -33340427.59447 -25936714.97346  20336384.1094                   20336381.0354
  22826983.85945  17826611.01642  24478320.7274                   24478320.9774
 -16076640.37947 -12463681.58245  21530009.7504                   21530009.7074
    679952.60247    593105.59844  22497125.4224                   22497123.4734
 -49442538.41047 -37655458.30545  21594445.3594                   21594440.4414
 11  8 20  2 17 30.0000000  0  9G12G26G10G30G05G15G25G29G02
 -32518814.93447 -25297556.67245  21424975.1954                   21424972.7624
  11158429.80546  10344472.08243  23537190.2424                   23537189.5044
 -31982589.08646 -24245932.17243  23603738.5164                   23603736.9534
 -14613751.22747 -10994755.30145  21590110.8134                   21590108.3134
 -33400297.69147 -25983366.96946  20324990.9694                   20324988.2424
  22645775.14845  17685409.61742  24443837.0784                   24443838.0354
 -16162572.87947 -12530641.94145  21513657.3834                   21513657.0634
    510885.58247    461365.15644  22464953.1484                   22464951.2384
 -49491646.76247 -37693724.53945  21585100.2664                   21585095.8984
 11  8 20  2 18  0.0000000  0  9G12G26G10G30G05G15G25G29G02
 -32543090.08247 -25316472.36345  21420356.0554                   21420353.4104
  10976584.22746  10202774.32443  23502586.4384                   23502585.2034
 -31965206.16046 -24232387.00043  23607045.8204                   23607044.6414
 -14682147.66847 -11048051.21944  21577095.2734                   21577092.7774
 -33459652.61747 -26029617.54346  20313695.8984                   20313693.1524
  22464450.86745  17544118.16442  24409332.4304                   24409333.5904
 -16247926.66847 -12597151.35545  21497415.2734                   21497414.9844
    341903.46947    329690.84844  22432796.8134                   22432795.0044
 -49540666.40247 -37731921.64145  21575772.0784                   21575767.3984
 11  8 20  2 18 30.0000000  0  9G12G26G10G30G05G15G25G29G02
 -32566938.25447 -25335055.36745  21415817.8134                   21415815.1844
  10794823.85246  10061142.98043  23467998.8754                   23467997.6804
 -31947670.31646 -24218722.69943  23610382.0944                   23610380.7234
 -14749968.20747 -11100898.38745  21564189.1094                   21564187.0314
 -33518491.98447 -26075466.37946  20302499.2504                   20302496.5434
  22283015.61746  17402740.25842  24374806.0084                   24374807.4454
 -16332700.15647 -12663208.59445  21481283.3054                   21481283.1844
    173010.45747    198085.98444  22400656.9304                   22400655.5274
 -49589595.75847 -37770048.39845  21566461.4304                   21566456.2974
 11  8 20  2 19  0.0000000  0  9G12G26G10G30G05G15G25G29G02
 -32590360.01247 -25353306.09045  21411361.1804                   21411358.5044
  10613153.73046   9919581.88343  23433427.7974                   23433427.1724
 -31929982.37546 -24204939.91442  23613748.2274                   23613746.6294
 -14817212.45347 -11153296.48445  21551393.1954                   21551390.9304
 -33576815.52047 -26120913.25846  20291401.3524                   20291397.7154
  22101473.88346  17261279.39842  24340260.2344                   24340260.8634
 -16416892.09047 -12728812.68045  21465262.3204                   21465262.0004
      4210.14547     66553.35544  22368535.3134                   22368533.6414
 -49638432.73847 -37808103.17645  21557167.7424                   21557163.0594
 11  8 20  2 19 30.0000000  0  9G12G26G10G30G05G15G25G29G02
 -32613358.34447 -25371226.86345  21406984.4534                   21406981.9454
  10431577.06346   9778093.69943  23398874.5394                   23398874.3134
 -31912145.63346 -24191041.19143  23617143.2974                   23617141.0004
 -14883882.32847 -11205247.02045  21538706.1644                   21538703.8984
 -33634625.34447 -26165959.85246  20280399.7194                   20280397.2034
  21919827.60946  17119737.00842  24305693.2894                   24305693.9694
 -16500503.48847 -12793964.40245  21449351.6804                   21449350.5864
   -164495.98047    -64905.89144  22336431.9844                   22336429.7504
 -49687177.96547 -37846086.46545  21547891.8134                   21547887.1334
 11  8 20  2 20  0.0000000  0  9G12G26G10G30G05G15G25G29G02
 -31060515.43747 -24161219.41045  21702480.9454                   21702477.8364
  11825523.37946  10864285.72743  23664134.6254                   23664132.9024
 -30318743.57846 -22949429.19943  23920357.1254                   23920355.2664
 -13374557.10247 -10029149.42645  21825921.1644                   21825919.5274
 -32116501.37147 -24983006.08246  20569289.0394                   20569286.4574
  23313505.39146  18205719.89543  24570901.7034                   24570901.4224
 -15008112.27747 -11631062.13745  21733344.2424                   21733343.7194
   1242319.51647   1031314.03544  22604139.6564                   22604137.9654
 -48160410.00847 -36656397.12545  21838425.7424                   21838421.3244
 11  8 20  2 20 30.0000000  0  9G12G26G10G30G05G15G25G29G02
 -31082675.22747 -24178486.77745  21698263.9144                   21698260.7704
                  11644144.07846  10722951.30943  23629617.8834   23629617.8484
 -30300617.41046 -22935304.95743  23923806.7974                   23923804.7074
 -13440082.78947 -10080208.37945  21813452.4534                   21813449.9024
 -32173289.31247 -25027256.40246  20558482.9614                   20558479.9184
  23131657.50046  18064020.40243  24536296.2114                   24536296.6604
 -15090564.63747 -11695310.69945  21717653.8674                   21717653.4734
   1073807.30147    900005.87944  22572072.6724                   22572070.9184
 -48208972.36347 -36694237.90245  21829185.3594                   21829180.1954
 11  8 20  2 21  0.0000000  0  9G12G26G10G30G05G15G25G29G02
 -31104419.17647 -24195430.11745  21694125.5234                   21694122.7854
                  11462869.05546  10581698.09843  23595122.9614   23595122.9144
 -30282349.75046 -22921070.38342  23927282.5474                   23927281.1454
 -13505038.22347 -10130822.98045  21801091.0314                   21801089.2424
 -32229568.70347 -25071110.45346  20547773.1884                   20547770.7584
  22949713.14146  17922245.78143  24501674.7424                   24501673.8284
 -15172438.03147 -11759108.13345  21702073.6334                   21702073.4734
    905395.25447    768775.76244  22540025.2034                   22540023.1134
 -48257443.26647 -36732007.42245  21819961.3444                   21819956.6484
 11  8 20  2 21 30.0000000  0  9G12G26G10G30G05G15G25G29G02
 -31125749.91447 -24212051.48045  21690067.1414                   21690064.3914
                  11281701.84846  10440528.93843  23560647.5864   23560647.0204
 -30263943.21546 -22906727.66842  23930784.5314                   23930784.2544
 -13569425.03547 -10180994.49245  21788839.0704                   21788836.9964
 -32285341.21147 -25114569.52746  20537159.7194                   20537156.8954
  22767674.57045  17780397.74643  24467033.1564                   24467033.0274
 -15253733.18447 -11822454.98045  21686603.1884                   21686603.2504
    737085.22347    637625.13744  22507997.1174                   22507994.9414
 -48305822.52347 -36769705.53145  21810754.9224                   21810750.2584
 11  8 20  2 22  0.0000000  0  9G12G26G10G30G05G15G25G29G02
 -31146669.66047 -24228352.58645  21686085.7734                   21686083.3794
                  11100646.50446  10299446.93443  23526194.3204   23526193.1564
 -30245400.27746 -22892278.60943  23934314.1254                   23934312.5864
 -13633244.35547 -10230723.81644  21776694.9924                   21776692.4734
 -32340608.10547 -25157634.62146  20526643.0394                   20526640.2544
  22585544.95745  17638478.69542  24432374.7504                   24432374.7734
 -15334450.37547 -11885351.48045  21671243.7424                   21671243.7344
    568879.55547    506555.84044  22475988.3364                   22475986.2464
 -48354109.92247 -36807332.07445  21801566.4454                   21801561.6564
 11  8 20  2 22 30.0000000  0  9G12G26G10G30G05G15G25G29G02
 -31167182.68747 -24244336.76645  21682182.8054                   21682180.0314
                  10919704.81646  10158453.48043  23491762.0474   23491760.6954
 -30226725.33246 -22877726.73042  23937868.3524                   23937866.0944
 -13696499.52047 -10280013.52345  21764657.2894                   21764655.2934
 -32395372.83247 -25200308.41046  20516221.8834                   20516219.1564
  22403325.35545  17496489.55542  24397699.2894                   24397699.2154
 -15414592.02747 -11947799.50445  21655993.5394                   21655993.3324
    400778.83647    375568.30544  22444000.1884                   22443997.5594
 -48402307.33647 -36844888.50045  21792394.7274                   21792390.2234
 11  8 20  2 23  0.0000000  0  9G12G26G10G30G05G15G25G29G02
 -31187291.22747 -24260005.76645  21678355.5554                   21678353.3524
                  10738880.77346  10017551.74243  23457351.8204   23457351.1484
 -30207920.68746 -22863073.77342  23941446.3054                   23941444.8054
 -13759191.62147 -10328864.48045  21752726.9064                   21752725.5394
 -32449636.97347 -25242592.14146  20505895.6954                   20505892.7424
  22221018.73845  17354432.57842  24363006.5864                   24363007.4414
 -15494158.53947 -12009799.37145  21640852.3674                   21640852.1054
    232785.35947    244664.33244  22412031.4844                   22412029.3444
 -48450414.38347 -36882374.50045  21783239.6804                   21783235.1454
 11  8 20  2 23 30.0000000  0  9G12G26G10G30G05G15G25G29G02
 -31206997.65647 -24275361.43745  21674606.2584                   21674603.2234
  10558178.47346   9876744.79743                  23422966.3054   23422965.0164
 -30188988.07446 -22848321.07042  23945049.4224                   23945047.4884
 -13821321.87947 -10377277.66445  21740904.7894                   21740902.6644
 -32503401.82847 -25284486.82046  20495663.9924                   20495661.3094
  22038628.01645  17212310.15642  24328299.1644                   24328299.9184
 -15573150.00047 -12071351.14545  21625820.7424                   21625820.6414
     64901.43847    113845.72744  22380084.8204                   22380082.3554
 -48498430.48447 -36919789.62945  21774103.4144                   21774097.9654
 11  8 20  2 24  0.0000000  0  9G12G26G10G30G05G15G25G29G02
 -31226304.30947 -24290405.58645  21670932.1954                   21670929.3444
  10377601.26646   9736035.38343                  23388602.9844   23388601.4494
 -30169930.22346 -22833470.82842  23948675.4924                   23948674.3914
 -13882892.02347 -10425254.37945  21729187.8984                   21729186.0594
 -32556669.29747 -25325993.91446  20485528.0634                   20485525.5004
  21856156.03946  17070124.30542  24293576.5554                   24293576.0824
 -15651567.47747 -12132455.67645  21610898.3284                   21610898.1334
   -102871.09447    -16886.08244  22348158.3984                   22348156.4574
 -48546356.09047 -36957134.23445  21764983.1414                   21764978.2544
 11  8 20  2 24 30.0000000  0  9G12G26G10G30G05G15G25G29G02
 -31245212.16847 -24305138.98445  21667333.7274                   21667330.7074
  10197154.90646   9595427.91043                  23354264.8204   23354263.8554
 -30150747.75046 -22818523.34042  23952326.0784                   23952324.5864
 -13943901.58647 -10472794.28945  21717578.4384                   21717576.1914
 -32609438.84847 -25367113.02746  20475485.9694                   20475482.9774
  21673607.60546  16927878.90243  24258837.9924                   24258837.9964
 -15729409.68447 -12193111.92645  21596085.7664                   21596085.1094
   -270528.32047   -147528.06244  22316254.8134                   22316252.1844
 -48594189.14547 -36994406.73845  21755880.9844                   21755876.4614
 11  8 20  2 25  0.0000000  0  9G12G26G10G30G05G15G25G29G02
 -31263726.71547 -24319565.91445  21663811.1724                   21663808.1604
  10016840.28546   9454923.09443                  23319951.8204   23319951.8754
 -30131445.95746 -22803483.03542  23955998.7664                   23955997.1564
 -14004355.12547 -10519900.93044  21706074.8364                   21706072.4574
 -32661715.51247 -25407848.08646  20465538.9224                   20465535.5084
  21490982.13346  16785573.42543  24224086.2734                   24224085.4654
 -15806680.14547 -12253322.66845  21581381.3524                   21581380.8164
   -438070.71547   -278080.53944  22284372.5314                   22284369.7384
 -48641932.12147 -37031609.04745  21746795.9384                   21746790.7974
 11  8 20  2 25 30.0000000  0  9G12G26G10G30G05G15G25G29G02
 -31281849.82447 -24333687.82845  21660362.2734                   21660359.1604
   9836661.41446   9314524.05143                  23285665.3914   23285664.6524
 -30112026.98046 -22788351.38742  23959694.4304                   23959692.1524
 -14064253.72347 -10566575.15645  21694676.1954                   21694674.2774
 -32713500.51647 -25448200.01646  20455684.1094                   20455680.9064
  21308283.23046  16643210.75443  24189319.7974                   24189318.8594
 -15883379.18447 -12313088.14845  21566786.1724                   21566785.7424
   -605495.69147   -408541.52744  22252512.3524                   22252509.7624
 -48689584.66447 -37068740.89544  21737727.7194                   21737722.4574
 11  8 20  2 26  0.0000000  0  9G12G26G10G30G05G15G25G29G02
 -31299584.94547 -24347507.41445  21656987.3754                   21656984.4534
   9656621.31646   9174233.16843                  23251405.0164   23251403.9264
 -30092494.00046 -22773130.87142  23963412.0704                   23963409.8834
 -14123599.85247 -10612818.88745  21683382.8984                   21683380.5594
 -32764796.26247 -25488170.71146  20445922.0164                   20445919.5394
  21125513.06346  16500792.55543  24154539.6254                   24154538.3284
 -15959508.43747 -12372409.64145  21552299.0234                   21552298.6804
   -772802.19147   -538910.19544  22220674.8284                   22220672.3164
 -48737147.45347 -37105802.80545  21728676.6414                   21728671.8054
 11  8 20  2 26 30.0000000  0  9G12G26G10G30G05G15G25G29G02
 -31316933.88347 -24361026.07845  21653685.3204                   21653683.2544
   9476724.41446   9034053.81343                  23217171.0164   23217170.0904
 -30072848.53146 -22757822.71942  23967149.6334                   23967148.5004
 -14182394.41847 -10658632.82844  21672194.1644                   21672192.5164
 -32815604.12947 -25527761.24646  20436254.3524                   20436250.9964
  20942674.93446  16358321.40243  24119746.4844                   24119745.1254
 -16035067.93747 -12431287.17245  21537921.0554                   21537920.3984
   -939986.99247   -669184.03144  22188860.5004                   22188858.4964
 -48784619.69547 -37142794.16045  21719642.8834                   21719638.1134
 11  8 20  2 27  0.0000000  0  9G12G26G10G30G05G15G25G29G02
 -31333898.68747 -24374245.41445  21650457.5234                   21650455.0434
   9296975.16846   8893989.55943                  23182967.8444   23182965.3134
 -30053092.46546 -22742428.38742  23970908.4614                   23970907.5904
 -14240638.44947 -10704017.77745  21661111.0634                   21661109.2974
 -32865925.01247 -25566972.31246  20426678.3984                   20426675.5204
  20759772.30545  16215799.99643  24084939.3984                   24084939.5904
 -16110057.84847 -12489720.86745  21523650.3984                   21523650.2114
  -1107047.23847   -799360.80545  22157069.9454                   22157067.6334
 -48832000.58647 -37179714.32845  21710626.9224                   21710621.9844
 11  8 20  2 27 30.0000000  0  9G12G26G10G30G05G15G25G29G02
 -31350484.14547 -24387169.16445  21647301.4454                   21647298.6214
   9117375.06646   8754041.48843                  23148791.0474   23148788.4844
 -30033230.38746 -22726951.43043  23974688.9534                   23974687.7664
 -14298335.78947 -10748976.73445  21650131.5704                   21650129.6644
 -32915762.95347 -25605807.04746  20417194.4774                   20417191.4924
  20576805.69145  16073228.81642  24050123.6334                   24050123.0274
 -16184481.27347 -12547713.14845  21509488.1884                   21509488.1604
  -1273983.09847   -929440.65644  22125303.1954                   22125300.8874
 -48879292.41447 -37216565.10945  21701627.3834                   21701623.0274
 11  8 20  2 28  0.0000000  0  9G12G26G10G30G05G15G25G29G02
 -31366691.77047 -24399798.48845  21644217.5084                   21644214.8324
   8937928.98846   8614213.43843                  23114642.9844   23114641.2464
 -30013263.52046 -22711392.87142  23978488.1644                   23978487.1174
 -14355487.21947 -10793510.31244  21639255.8134                   21639253.9654
 -32965118.93747 -25644266.23846  20407802.5864                   20407799.4534
  20393778.83645  15930610.54743  24015294.1024                   24015293.7774
 -16258338.00447 -12605263.85245  21495433.8914                   21495433.2074
  -1440791.35947  -1059421.05944  22093560.8594                   22093558.3204
 -48926493.87147 -37253345.46145  21692645.5554                   21692640.3714
 11  8 20  2 28 30.0000000  0  9G12G26G10G30G05G15G25G29G02
 -31382524.40647 -24412135.62945  21641204.5784                   21641201.5984
   8758640.30146   8474508.05543                  23080524.2894   23080522.9924
 -29993194.67646 -22695754.82442  23982306.8134                   23982305.5164
 -14412094.56647 -10837619.94145  21628484.2194                   21628482.0984
 -33013994.78547 -25682351.29346  20398502.4304                   20398498.5434
  20210694.95746  15787947.91842  23980454.6954                   23980453.8054
 -16331629.12547 -12662373.81245  21481486.7504                   21481486.7544
  -1607470.26647  -1189300.68444  22061842.4844                   22061840.7934
 -48973604.99247 -37290055.42645  21683680.1414                   21683675.4184
 11  8 20  2 29  0.0000000  0  9G12G26G10G30G05G15G25G29G02
 -29822566.38747 -23196583.93445  21938054.2664                   21938052.3244
  10154936.74646   9562531.32443                  23346231.3914   23346229.6454
 -28397608.94546 -21452441.25842  24285936.9774                   24285936.1334
 -12892739.81647  -9653707.14144  21917607.6724                   21917605.8984
 -31486972.62947 -24492463.87946  20689084.5864                   20689081.0634
  21602980.57046  16872845.90243  24245398.4144                   24245396.6994
 -14828935.21547 -11491443.50045  21767440.3524                   21767440.1334
   -198593.67647    -91474.69945  22329942.6094                   22329940.8134
 -47445205.92247 -36099095.10945  21974524.8134                   21974519.9024
 11  8 20  2 29 30.0000000  0  9G12G26G10G30G05G15G25G29G02
 -29837659.22347 -23208344.60545  21935182.3444                   21935179.8754
   9975972.48446   9423078.73043                  23312173.6414   23312173.3164
 -28377345.57446 -21436651.60942  24289793.2814                   24289791.7384
 -12948266.47347  -9696974.66045  21907041.9694                   21907039.6954
 -31534895.59447 -24529806.42646  20679964.8284                   20679961.9734
  21419788.28546  16730098.77043  24210537.6564                   24210536.8094
 -14901099.97747 -11547675.78945  21753707.8364                   21753707.6374
   -365008.67247   -221148.64844  22298274.8914                   22298272.2664
 -47492137.82847 -36135665.42244  21965594.6954                   21965589.5514
 11  8 20  2 30  0.0000000  0  9G12G26G10G30G05G15G25G29G02
 -29852384.92647 -23219819.18045  21932380.5634                   21932377.7274
   9797177.01246   9283757.68443                  23278151.2194   23278149.8754
 -28356986.89846 -21420787.77042  24293667.1174                   24293665.6484
 -13003254.12147  -9739822.17644  21896577.8754                   21896575.5904
 -31582344.06647 -24566779.23846  20670935.8284                   20670932.9964
  21236547.55146  16587313.90643  24175667.4534                   24175667.0394
 -14972701.81247 -11603469.42245  21740082.2424                   21740081.8364
   -531287.12547   -350716.19944  22266633.1094                   22266630.4494
 -47538978.75847 -36172164.85244  21956680.3364                   21956675.6764
 11  8 20  2 30 30.0000000  0  9G12G26G10G30G05G15G25G29G02
 -29866744.92247 -23231008.80545  21929647.3444                   21929644.8914
   9618555.31346   9144572.00443                  23244159.3524   23244159.3404
 -28336534.08246 -21404850.45342  24297559.2034                   24297557.8054
 -13057703.65647  -9782250.39144  21886216.4844                   21886214.1644
 -31629318.48047 -24603382.66046  20661997.0394                   20661993.7194
  21053262.30546  16444494.34043  24140789.4224                   24140788.8954
 -15043740.61347 -11658824.33645  21726564.2344                   21726563.7704
   -697426.04747   -480175.02345  22235017.7034                   22235015.4494
 -47585727.56647 -36208592.48445  21947784.3524                   21947780.0594
 11  8 20  2 31  0.0000000  0  9G12G26G10G30G05G15G25G29G02
 -29880744.12147 -23241917.28945  21926983.9304                   21926980.9454
   9440109.25046   9005523.19943                  23210204.1484   23210201.6684
 -28315991.79746 -21388843.49642  24301468.3524                   24301467.5204
 -13111618.96947  -9824262.32844  21875956.3754                   21875954.4774
 -31675823.16847 -24639620.05546  20653147.8204                   20653143.9734
  20869933.12946  16301640.56643  24105903.3674                   24105901.9064
 -15114219.48847 -11713742.93745  21713152.4534                   21713152.3134
   -863425.27747   -609525.00844  22203429.2034                   22203427.0634
 -47632385.96947 -36244949.68044  21938906.1174                   21938901.0704
 11  8 20  2 31 30.0000000  0  9G12G26G10G30G05G15G25G29G02
 -29894385.14147 -23252546.66445  21924387.1484                   21924384.8284
   9261842.49646   8866614.13743                  23176280.3594   23176279.6174
 -28295362.66446 -21372768.84042  24305394.3984                   24305393.1334
 -13165001.77347  -9865859.33644  21865798.2034                   21865796.1294
 -31721859.66047 -24675492.63346  20644386.7734                   20644383.4774
  20686562.96546  16158754.82843  24071008.6414                   24071008.3834
 -15184139.32847 -11768225.93745  21699846.7974                   21699846.6804
  -1029282.23847   -738764.14145  22171867.7274                   22171865.2344
 -47678953.83247 -36281236.32045  21930044.0784                   21930039.5434
 11  8 20  2 32  0.0000000  0  9G12G26G10G30G05G15G25G29G02
 -29907671.68447 -23262899.82045  21921859.2974                   21921856.9574
   9083757.86346   8727846.95343                  23142392.2814   23142390.7194
 -28274649.45745 -21356628.64142  24309335.4614                   24309334.5514
 -13217855.06247  -9907043.71544  21855740.2584                   21855738.4304
 -31767431.15647 -24711002.87946  20635715.0004                   20635711.6054
  20503153.99246  16015838.87943  24036107.5474                   24036106.1644
 -15253502.27047 -11822274.98845  21686647.5944                   21686647.4494
  -1194995.80547   -867891.53145  22140333.2194                   22140330.9344
 -47725432.04347 -36317453.09445  21921199.8914                   21921195.1094
 11  8 20  2 32 30.0000000  0  9G12G26G10G30G05G15G25G29G02
 -29920606.53147 -23272978.93045  21919398.4694                   21919395.7734
   8905858.83246   8589224.43443                  23108538.2584   23108537.8914
 -28253854.90245 -21340425.08242  24313292.7344                   24313292.3404
 -13270181.03547  -9947817.20744  21845782.9924                   21845781.4844
 -31812539.92247 -24746152.56246  20627130.7504                   20627127.9104
  20319708.62546  15872894.55142  24001197.6414                   24001197.6134
 -15322309.84447 -11875891.28145  21673554.1414                   21673553.8554
  -1360564.16047   -996905.76645  22108826.6644                   22108824.3324
 -47771820.53547 -36353599.95744  21912371.9774                   21912367.4694
 11  8 20  2 33  0.0000000  0  9G12G26G10G30G05G15G25G29G02
 -29933192.60247 -23282786.27345  21917003.2814                   21917000.5274
   8728149.20746   8450749.46943                  23074722.0084   23074720.2074
 -28232981.25445 -21324159.95742  24317263.6884                   24317265.4304
 -13321981.56647  -9988181.25844  21835925.7814                   21835924.1054
 -31857187.46547 -24780942.84845  20618634.6414                   20618631.6414
  20136230.05146  15729924.28542  23966283.2504                   23966282.1454
 -15390562.94547 -11929075.51645  21660566.5084                   21660565.5434
  -1525984.90647  -1125804.99245  22077347.8674                   22077345.9574
 -47818119.27047 -36389676.87545  21903561.9614                   21903557.0664
 11  8 20  2 33 30.0000000  0  9G12G26G10G30G05G15G25G29G02
 -29945432.60947 -23292323.94945  21914674.5084                   21914671.3404
   8550633.02346   8312425.23843                  23040941.1484   23040939.9654
 -28212031.02745 -21307835.06642  24321252.3674                   24321252.5944
 -13373258.48847 -10028137.30544  21826167.9224                   21826166.1414
 -31901375.77347 -24815375.29346  20610225.3134                   20610222.8634
  19952721.04746  15586930.33642  23931362.6254                   23931362.1054
 -15458262.68047 -11981828.55945  21647683.3134                   21647683.0434
  -1691255.59847  -1254587.28944  22045898.1094                   22045895.4224
 -47864327.76647 -36425683.48444  21894768.4384                   21894764.4884
 11  8 20  2 34  0.0000000  0  9G12G26G10G30G05G15G25G29G02
 -29957329.81247 -23301594.50045  21912410.3204                   21912407.2934
   8373313.01246   8174253.88743                  23007197.3444   23007196.3014
 -28191007.24245 -21291452.79742  24325251.4614                   24325252.6644
 -13424014.80947 -10067687.69144  21816509.6724                   21816507.4694
 -31945108.30547 -24849452.58245  20601904.1884                   20601901.2114
  19769183.63446  15443914.25743  23896437.0554                   23896435.3914
 -15525411.25447 -12034152.13345  21634905.1884                   21634905.1884
  -1856375.14147  -1383251.81645  22014476.7344                   22014474.2774
 -47910446.86747 -36461620.42645  21885992.2424                   21885987.5234
 11  8 20  2 34 30.0000000  0  9G12G26G10G30G05G15G25G29G02
 -29968885.75847 -23310599.15245  21910210.8914                   21910208.7274
   8196194.83646   8036239.80543                  22973493.8984   22973492.2894
 -28169910.42245 -21275013.71542  24329266.2664                   24329267.6604
 -13474250.71147 -10106832.55544  21806950.3054                   21806947.8674
 -31988384.77347 -24883174.48846  20593668.7664                   20593665.5634
  19585622.54346  15300879.75043  23861505.8054                   23861505.3054
 -15592008.06647 -12086045.74645  21622232.3054                   21622232.3164
  -2021339.37947  -1511795.33645  21983085.2424                   21983082.9064
 -47956474.60947 -36497486.17244  21877233.8594                   21877229.1764
 11  8 20  2 35  0.0000000  0  9G12G26G10G30G05G15G25G29G02
 -29980104.36747 -23319340.94945  21908076.0554                   21908073.4534
   8019280.71946   7898384.70743                  22939828.1644   22939826.9184
 -28148744.34045 -21258520.68042  24333293.7814                   24333295.3244
 -13523969.71947 -10145574.64144  21797488.7194                   21797486.8284
 -32031208.68747 -24916543.77346  20585519.4924                   20585516.2304
  19402039.10546  15157827.84443  23826571.6954                   23826570.2624
 -15658055.80947 -12137511.52045  21609663.3134                   21609663.2974
  -2186147.52747  -1640217.22345  21951722.8444                   21951720.8014
 -48002412.27747 -36533281.72745  21868492.1414                   21868487.3754
 11  8 20  2 35 30.0000000  0  9G12G26G10G30G05G15G25G29G02
 -29990989.21547 -23327822.64845  21906004.3984                   21906002.1844
   7842573.59446   7760690.92643                  22906202.3054   22906200.5084
 -28127512.24646 -21241976.14542  24337334.2894                   24337334.6174
 -13573174.54747 -10183916.06244  21788125.1954                   21788123.1884
 -32073582.91047 -24949562.63346  20577455.8914                   20577453.1524
  19218435.68046  15014760.36343  23791633.0234                   23791632.0824
 -15723556.40247 -12188550.93745  21597199.1724                   21597198.8524
  -2350797.94947  -1768516.20745  21920391.4454                   21920388.9494
 -48048260.53147 -36569007.62144  21859767.8204                   21859762.5784
 11  8 20  2 36  0.0000000  0  9G12G26G10G30G05G15G25G29G02
 -30001542.47347 -23336045.98044  21903997.1174                   21903993.8874
   7666078.27046   7623162.16443                  22872616.0004   22872614.4264
 -28106215.27046 -21225381.07442  24341387.6564                   24341386.8094
 -13621866.56247 -10221857.88744  21778859.3834                   21778857.3484
 -32115508.74647 -24982232.10546  20569477.8754                   20569474.9774
  19034816.01646  14871680.24243  23756691.1094                   23756690.1054
 -15788510.41847 -12239164.45745  21584839.4454                   21584838.5984
  -2515287.63347  -1896689.94545  21889090.2974                   21889087.7194
 -48094018.19547 -36604662.93044  21851059.9694                   21851055.4264
 11  8 20  2 36 30.0000000  0  9G12G26G10G30G05G15G25G29G02
 -30011767.16047 -23344013.27345  21902051.2274                   21902048.7464
   7489797.73446   7485800.78143                  22839071.3674   22839069.6804
 -28084856.18046 -21208737.63742  24345451.6484                   24345451.1294
 -13670048.23047 -10259402.04344  21769690.6484                   21769688.9534
 -32156988.66447 -25014554.11346  20561584.4224                   20561581.4774
  18851182.44146  14728589.29343  23721746.1254                   23721746.1804
 -15852919.62947 -12289353.43745  21572582.6414                   21572581.9184
  -2679614.75847  -2024737.01245  21857819.6954                   21857817.4224
 -48139685.38747 -36640247.71544  21842369.3754                   21842365.1804
 11  8 20  2 37  0.0000000  0  9G12G26G10G30G05G15G25G29G02
 -30021664.52347 -23351725.51245  21900167.2664                   21900164.5554
   7313737.85246   7348611.32843                  22805568.6334   22805566.2854
 -28063435.70746 -21192046.31242  24349528.2734                   24349526.9264
 -13717720.22747 -10296549.04744  21760619.1414                   21760617.1844
 -32198023.08247 -25046528.96946  20553775.8524                   20553772.6564
  18667539.55546  14585491.06643  23686801.0704                   23686799.4804
 -15916783.77047 -12339117.69945  21560429.4844                   21560429.0354
  -2843775.56247  -2152654.48445  21826580.6094                   21826578.3984
 -48185260.48047 -36675760.75844  21833697.0944                   21833692.8554
 11  8 20  2 37 30.0000000  0  9G12G26G10G30G05G15G25G29G02
 -30031238.00847 -23359185.37945  21898345.9694                   21898343.1484
   7137901.18846   7211595.79343                  22772106.6484   22772105.8324
 -28041956.80546 -21175309.49643  24353615.0704                   24353614.2544
 -13764885.30947 -10333301.05544  21751643.7584                   21751641.9414
 -32238614.91847 -25078158.96546  20546051.5004                   20546048.5664
  18483889.76646  14442387.50843  23651852.9384                   23651851.7304
 -15980104.95747 -12388458.87145  21548379.6804                   21548379.3094
  -3007768.46147  -2280441.10945  21795373.6254                   21795371.6334
 -48230744.05547 -36711202.47344  21825041.7344                   21825037.1684
 11  8 20  2 38  0.0000000  0  9G12G26G10G30G05G15G25G29G02
 -28465070.81647 -22138795.36345  22196377.2814                   22196374.5664
   8537717.01646   8302361.44943                  23038483.3204   23038481.5164
 -26445003.00446 -19930929.89143  24657506.0084                   24657504.4024
 -12236124.77347  -9142059.06644  22042556.9304                   22042555.3954
 -30703345.42647 -23881845.05545  20838203.5944                   20838200.4534
  19875661.46146  15526885.02343  23916698.2664                   23916696.3714
 -14467463.12147 -11209776.91845  21836225.8914                   21836225.5594
  -1596166.32847  -1180491.35545  22063992.3594                   22063990.6374
 -46700714.89147 -35518971.93044  22116196.2894                   22116191.8094
 11  8 20  2 38 30.0000000  0 10G12G26G10G30G05G15G25G29G02G21
 -28474009.06247 -22145760.23045  22194676.2734                   22194673.7384
   8362335.00446   8165700.19143                  23005109.6174   23005107.3834
 -26423417.60245 -19914110.14142  24661612.5944                   24661611.9574
 -12282286.35247  -9178029.12544  22033773.1334                   22033771.3134
 -30743061.90647 -23912792.95345  20830645.7814                   20830642.2504
  19692002.82046  15383774.49643  23881749.1484                   23881747.2664
 -14529706.30947 -11258278.09845  21824381.6334                   21824380.7974
  -1759820.14147  -1308013.76245  22032850.4614                   22032848.0394
 -46746018.28147 -35554273.25444  22107575.0784                   22107571.0594
  28173898.41415                  25288300.945
 11  8 20  2 39  0.0000000  0 10G12G26G10G30G05G15G25G29G02G21
 -28482635.43747 -22152482.07445  22193034.7894                   22193032.3674
   8187184.20346   8029219.10543                  22971778.8204   22971777.1564
 -26401783.94145 -19897252.76242  24665730.1254                   24665729.5314
 -12327951.09047  -9213612.03944  22025083.1724                   22025081.6644
 -30782345.67647 -23943403.68045  20823170.0554                   20823167.4884
  19508342.70346  15240662.81343  23846799.7974                   23846797.5394
 -14591414.26647 -11306362.21145  21812639.1334                   21812638.2624
  -1923302.71547  -1435402.73845  22001740.6024                   22001738.0434
 -46791232.55147 -35589505.13744  22098971.4844                   22098966.9844
  28030427.516 5                  25260999.508
 11  8 20  2 39 30.0000000  0 10G12G26G10G30G05G15G25G29G02G21
 -28490955.35947 -22158965.14144  22191451.8674                   22191449.2774
   8012266.10946   7892919.34443                  22938493.4224   22938491.0554
 -26380106.75445 -19880361.40642  24669854.7814                   24669855.6134
 -12373123.72747  -9248811.49245  22016487.2114                   22016485.6644
 -30821201.48847 -23973680.92646  20815776.4844                   20815773.1764
  19324681.36346  15097550.19143  23811850.3834                   23811848.3364
 -14652590.93747 -11354032.34045  21800997.0004                   21800996.9844
  -2086614.10247  -1562658.31645  21970662.8674                   21970661.3204
 -46836360.52747 -35624669.76644  22090383.9614                   22090379.3204
  27886967.699 5                  25233700.242
 11  8 20  2 40  0.0000000  0  9G12G26G30G05G15G25G29G02G21
 -28498973.45747 -22165213.01245  22189926.2344                   22189923.8364
   7837582.56646   7756802.35944                  22905251.9614   22905249.8444
 -12417808.13347  -9283630.50844  22007984.3674                   22007982.1564
 -30859632.58247 -24003627.22346  20808462.9384                   20808459.8754
  19141019.91846  14954437.47743  23776900.8834                   23776899.4384
 -14713239.54347 -11401290.99245  21789456.0554                   21789456.2464
  -2249753.64847  -1689779.99645  21939618.5084                   21939616.8284
 -46881403.37947 -35659768.08644  22081812.3674                   22081807.7424
  27743516.707 5                  25206401.211
 11  8 20  2 40 30.0000000  0  9G12G26G30G05G15G25G29G02G21
 -28506691.27347 -22171226.89844  22188457.5784                   22188454.7154
   7663138.47746   7620871.96943                  22872056.2344   22872054.0434
 -12462005.58247  -9318070.08644  21999573.8364                   21999571.2734
 -30897640.20747 -24033243.53945  20801230.5784                   20801227.2034
  18957362.88346  14811328.25443  23741951.5314                   23741950.0594
 -14773360.44547 -11448138.44145  21778014.3444                   21778015.3674
  -2412717.96947  -1816765.14145  21908607.6334                   21908605.4264
 -46926359.72347 -35694798.97744  22073257.7814                   22073253.5474
  27600075.313 5                  25179105.211
 11  8 20  2 41  0.0000000  0  9G12G26G30G05G15G25G29G02G21
 -28514106.90647 -22177005.32045  22187046.7424                   22187043.4614
   7488942.59446   7485134.98043                  22838907.4224   22838906.0514
 -12505713.49647  -9352128.20744  21991256.5234                   21991253.8444
 -30935222.04747 -24062528.07845  20794078.6334                   20794075.9104
  18773717.77746  14668228.32443  23707004.0314                   23707003.7854
 -14832950.41447 -11494572.17645  21766675.6334                   21766675.1644
  -2575499.91447  -1943608.16845  21877632.1024                   21877628.9184
 -46971224.59047 -35729758.59044  22064720.0314                   22064714.9534
  27456648.020 5                  25151812.344
 11  8 20  2 41 30.0000000  0  9G12G26G30G05G15G25G29G02G21
 -28521220.55547 -22182548.41044  22185691.8594                   22185689.7854
   7315001.87546   7349596.83243                  22805807.7504   22805806.3444
 -12548931.19547  -9385804.34044  21983032.7114                   21983030.4924
 -30972376.93447 -24091479.93746  20787008.7664                   20787005.3014
  18590090.72346  14525142.42643  23672061.6024                   23672060.1764
 -14892007.93047 -11540591.02745  21755437.7734                   21755437.8984
  -2738094.15647  -2070304.93745  21846690.3524                   21846688.0744
 -47015994.71147 -35764644.37544  22056200.9064                   22056195.5664
  27313236.965 5                  25124521.898
 11  8 20  2 42  0.0000000  0  9G12G26G30G05G15G25G29G02G21
 -28528035.84847 -22187859.03144  22184395.4384                   22184393.0634
   7141318.87946   7214259.52343                  22772757.2974   22772754.7114
 -12591661.89147  -9419100.98044  21974901.0474                   21974899.0704
 -31009108.18447 -24120101.68746  20780019.1094                   20780015.8714
  18406483.94546  14382072.33643  23637122.0164                   23637120.7034
 -14950535.61747 -11586197.01245  21744300.0704                   21744299.7074
  -2900499.37947  -2196854.41845  21815785.9924                   21815783.5204
 -47060670.91847 -35799456.99244  22047699.1094                   22047694.7544
  27169840.684 5                  25097235.109
 11  8 20  2 42 30.0000000  0  9G12G26G30G05G15G25G29G02G21
 -28534557.00847 -22192940.46144  22183154.4924                   22183151.6374
   6967896.18446   7079125.00843                  22739755.8984   22739754.2114
 -12633909.21547  -9452020.97345  21966862.0474                   21966859.8594
 -31045419.16047 -24148395.94145  20773108.6484                   20773105.8524
  18222898.96546  14239019.15643  23602187.2344                   23602184.7304
 -15008536.31247 -11631392.35545  21733263.2974                   21733262.5124
  -3062714.32047  -2323255.62945  21784917.4224                   21784915.1764
 -47105253.98047 -35834197.03144  22039215.2194                   22039210.5704
  27026457.535 5                  25069949.930
 11  8 20  2 43  0.0000000  0  9G12G26G30G05G15G25G29G02G21
 -28540786.98047 -22197794.98845  22181969.4454                   22181966.6094
   6794737.12546   6944195.92644                  22706804.6564   22706803.2344
 -12675675.87147  -9484566.41844  21958913.7894                   21958912.1954
 -31081312.52347 -24176364.78945  20766278.7504                   20766275.9734
  18039338.43846  14095985.02343  23567256.8204                   23567254.4494
 -15066011.94147 -11676178.55145  21722325.7504                   21722325.4454
  -3224737.17647  -2449507.16445  21754085.7424                   21754083.2154
 -47149743.98047 -35868864.56244  22030749.4064                   22030744.6724
  26883086.762 5                  25042665.734
 11  8 20  2 43 30.0000000  0  9G12G26G30G05G15G25G29G02G21
 -28546726.82447 -22202423.44544  22180838.7274                   22180836.1844
   6621847.80546   6809477.03943                  22673904.1254   22673903.0004
 -12716962.19147  -9516737.58644  21951057.3834                   21951055.2544
 -31116788.34447 -24204008.28146  20759527.8054                   20759525.0784
  17855807.61346  13952974.05143  23532332.0084                   23532330.1414
 -15122962.19147 -11720555.37545  21711488.6174                   21711487.9654
  -3386563.60947  -2575605.63745  21723291.0704                   21723288.8054
 -47194138.50447 -35903457.69544  22022301.1484                   22022296.2154
  26739730.031 5                  25015385.898
 11  8 20  2 44  0.0000000  0  9G12G26G30G05G15G25G29G02G21
 -28552381.18047 -22206829.43745  22179762.8754                   22179760.1884
   6449230.10246   6674969.80943                  22641056.1174   22641054.6954
 -12757772.21547  -9548537.59444  21943291.3984                   21943289.2854
 -31151850.42247 -24231329.36745  20752855.7894                   20752852.4264
  17672307.92646  13809987.31643  23497413.3444                   23497411.2384
 -15179390.30947 -11764525.32445  21700751.1414                   21700750.4184
  -3548192.43747  -2701550.14845  21692534.6024                   21692531.8954
 -47238439.00447 -35937977.55944  22013870.9384                   22013866.8524
  26596384.828 5                  24988109.125
 11  8 20  2 44 30.0000000  0  9G12G26G30G05G15G25G29G02G21
 -28557755.20747 -22211016.99644  22178740.3594                   22178737.4224
   6276885.67246   6540675.50044                  22608259.8444   22608258.9614
 -12798110.51647  -9579970.04344  21935615.7974                   21935613.1524
 -31186503.17247 -24258331.50445  20746261.3914                   20746258.6724
  17488839.77346  13667025.21143  23462500.1414                   23462498.7974
 -15235300.18447 -11808091.46945  21690111.5704                   21690111.1054
  -3709624.19947  -2827341.08245  21661814.3594                   21661811.7504
 -47282647.48047 -35972425.72744  22005458.2664                   22005453.9184
  26453048.910 5                  24960834.047
 11  8 20  2 45  0.0000000  0  9G12G26G30G05G15G25G29G02G21
 -28562849.90247 -22214986.90244  22177771.1954                   22177768.2234
   6104819.96146   6406598.37943                  22575517.6884   22575515.5234
 -12837977.87147  -9611035.50844  21928028.6484                   21928026.9304
 -31220747.16447 -24285015.12145  20739745.1724                   20739741.9494
  17305408.30546  13524091.72343  23427593.8594                   23427593.0744
 -15290691.91047 -11851253.84845  21679570.3444                   21679570.3094
  -3870854.66047  -2952975.16445  21631133.1094                   21631131.4494
 -47326762.15247 -36006800.79344  21997064.0394                   21997059.0274
  26309723.402 5                  24933559.102
 11  8 20  2 45 30.0000000  0  9G12G26G30G05G15G25G29G02G21
 -28567670.00047 -22218742.83644  22176853.5784                   22176850.9024
   5933035.03146   6272740.00843                  22542827.2344   22542825.9454
 -12877378.49247  -9641737.29345  21920530.8984                   21920529.0124
 -31254586.40647 -24311383.35945  20733306.0084                   20733302.4844
  17122014.57846  13381187.61743  23392695.9304                   23392694.0394
 -15345568.96947 -11894015.17245  21669128.0084                   21669127.6134
  -4031883.03947  -3078451.78945  21600490.6254                   21600488.3594
 -47370784.28547 -36041103.75844  21988686.3054                   21988681.7624
  26166405.895 5                  24906286.195
 11  8 20  2 46  0.0000000  0  9G12G26G30G05G15G25G29G02G21
 -28572218.02047 -22222286.75044  22175988.1724                   22175985.3714
   5761535.03946   6139103.69943                  22510191.8594   22510190.3794
 -12916314.36747  -9672076.92644  21913121.2194                   21913119.7894
 -31288022.73047 -24337437.61745  20726942.4454                   20726939.9654
  16938662.24246  13238315.74643  23357805.0394                   23357803.2544
 -15399932.61747 -11936376.46145  21658783.1174                   21658782.2544
  -4192706.42647  -3203768.68445  21569887.0394                   21569884.3484
 -47414712.75447 -36075333.73444  21980327.4534                   21980322.6054
  26023096.418 5                  24879015.273
 11  8 20  2 46 30.0000000  0  9G12G26G30G05G15G25G29G02G21
 -28576496.43447 -22225620.58244  22175173.8754                   22175171.3404
   5590324.27346   6005692.76244                  22477612.1484   22477610.2774
 -12954787.50047  -9702055.97744  21905800.6484                   21905798.5864
 -31321058.21547 -24363179.54745  20720656.4844                   20720653.5904
  16755354.94546  13095478.95743  23322922.7274                   23322920.3714
 -15453784.22747 -11978338.74645  21648535.0004                   21648535.0474
  -4353322.26647  -3328923.85245  21539322.5864                   21539320.4654
 -47458547.15247 -36109490.43044  21971985.7034                   21971981.2464
  25879794.969 5                  24851746.258
 11  8 20  2 47  0.0000000  0  9G12G26G30G05G15G25G29G02G21
 -27005089.12147 -21001147.35944  22474203.1094                   22474200.2624
   6994831.14146   7100113.73043                  22744881.0394   22744879.1804
 -11417380.27047  -8504076.31244  22198359.4384                   22198357.6254
 -29778274.39847 -23161010.31245  21014238.8524                   21014235.5984
  18147520.54746  14180283.37543  23587842.5234                   23587840.6484
 -13931704.90647 -10792302.90245  21938177.1564                   21938176.8634
  -2938303.80947  -2226312.03545  21808591.4614                   21808589.1994
 -45926866.88347 -34915973.35544  22263454.9534                   22263450.3134
  27311924.676 5                  25124271.391
 11  8 20  2 47 30.0000000  0  9G12G26G30G05G15G25G29G02G21
 -27008840.52047 -21004070.55544  22473489.0474                   22473486.4694
   6824206.76646   6967159.73844                  22712412.1254   22712410.1564
 -11454938.92647  -8533342.78944  22191212.5554                   22191209.9614
 -29810517.23047 -23186134.59445  21008103.0084                   21008100.1254
  17964308.57446  14037520.90243  23552977.7274                   23552976.4734
 -13984541.26247 -10833474.08245  21928122.6564                   21928122.6884
  -3098500.46147  -2351140.55545  21778107.2814                   21778104.8874
 -45970515.52747 -34949985.29744  22255148.9694                   22255144.4184
  27168634.258 5                  25097003.266
 11  8 20  2 48  0.0000000  0  9G12G26G30G05G15G25G29G02G21
 -27012332.88347 -21006791.89544  22472824.5864                   22472822.0864
   6653880.86346   6834438.28144                  22680000.7034   22679998.9844
 -11492044.29347  -8562256.04344  22184150.9924                   22184148.8914
 -29842367.46147 -23210952.94946  21002042.1414                   21002038.7624
  17781148.79346  13894799.06343  23518124.0394                   23518121.7114
 -14036872.95347 -10874252.02045  21918164.8134                   21918164.1024
  -3258484.04347  -2475803.05545  21747663.7274                   21747660.6884
 -46014070.83647 -34983924.50444  22246860.3984                   22246855.4614
  27025348.570 5                  25069737.102
 11  8 20  2 48 30.0000000  0  9G12G26G30G05G15G25G29G02G21
 -27015570.16847 -21009314.46944  22472208.3914                   22472206.1804
   6483856.69946   6701951.96944                  22647646.2894   22647643.6374
 -11528699.69947  -8590818.69544  22177176.1334                   22177173.8914
 -29873828.53547 -23235468.05145  20996054.9924                   20996052.0824
  17598043.40646  13752119.67243  23483280.3834                   23483278.7384
 -14088702.58247 -10914638.73445  21908301.6724                   21908300.7734
  -3418253.06647  -2600298.35545  21717260.5474                   21717258.0944
 -46057533.73847 -35017791.71144  22238590.1254                   22238585.1764
  26882066.30945  23260407.60252  25042471.4534                   25042470.4414
 11  8 20  2 49  0.0000000  0  9G12G26G30G05G15G25G29G02G21
 -27018553.50447 -21011639.15644  22471641.1094                   22471638.4844
   6314139.62146   6569704.94944                  22615349.5784   22615347.8634
 -11564906.08647  -8619031.45744  22170286.3284                   22170284.3674
 -29904901.06247 -23259680.39845  20990142.0704                   20990138.9534
  17414997.53146  13609486.59443  23448448.2424                   23448445.6954
 -14140030.45347 -10954634.48445  21898534.3364                   21898534.0664
  -3577803.55947  -2724623.37545  21686899.3524                   21686896.3324
 -46100901.87547 -35051585.07844  22230337.4304                   22230332.5474
  26738788.46545  23148762.60542  25015207.0164                   25015205.7894
 11  8 20  2 49 30.0000000  0  9G12G26G30G05G15G25G29G02G21
 -27021288.52347 -21013770.36344  22471120.0084                   22471117.3164
   6144730.65246   6437698.02044                  22583112.3204   22583110.1724
 -11600668.66447  -8646898.39144  22163480.2114                   22163478.4924
 -29935589.49647 -23283593.45746  20984302.2274                   20984298.8794
  17232011.41046  13466900.10243  23413626.4774                   23413624.9304
 -14190861.07447 -10994242.75045  21888861.5634                   21888861.1804
  -3737135.49647  -2848778.09845  21656579.2034                   21656576.2974
 -46144177.74647 -35085306.55144  22222101.6644                   22222097.1134
  26595512.07446  23037118.73842  24987941.1804                   24987941.1724
 11  8 20  2 50  0.0000000  0  9G12G26G30G05G15G25G29G02G21
 -27023778.38347 -21015710.52744  22470645.7424                   22470643.7464
   5975633.26246   6305933.87143                  22550933.5394   22550931.7774
 -11635990.18447  -8674421.65644  22156759.1024                   22156757.1374
 -29965896.42247 -23307209.23045  20978535.3284                   20978532.7854
  17049087.58246  13324362.14143  23378817.6094                   23378815.4804
 -14241196.62147 -11033465.26245  21879282.7734                   21879282.4614
  -3896246.94547  -2972761.00445  21626301.2814                   21626298.4024
 -46187361.07847 -35118955.89844  22213884.5864                   22213879.5394
  26452236.39846  22925475.46142  24960677.2194                   24960677.0124
 11  8 20  2 50 30.0000000  0  9G12G26G30G05G15G25G29G02G21
 -27026024.73047 -21017460.93044  22470218.2274                   22470216.3094
   5806852.81346   6174416.68843                  22518816.0944   22518814.1524
 -11670871.84047  -8701602.15644  22150121.1564                   22150119.5084
 -29995823.01247 -23330528.64845  20972840.2734                   20972837.3984
  16866230.85946  13181876.48443  23344020.6174                   23344018.6764
 -14291037.57047 -11072302.36345  21869798.7584                   21869798.6174
  -4055134.19147  -3096569.21545  21596065.9844                   21596062.9844
 -46230450.01247 -35152531.71144  22205685.1414                   22205679.8284
  26308962.53546  22813833.54742  24933412.8524                   24933412.5474
 11  8 20  2 51  0.0000000  0  9G12G26G30G05G15G25G29G02G21
 -27028030.82847 -21019024.12944  22469837.0234                   22469834.8054
   5638392.59446   6043149.03144                  22486759.6174   22486756.8674
 -11705316.75047  -8728442.34444  22143566.8984                   22143564.3054
 -30025371.97747 -23353553.81245  20967217.4384                   20967214.1294
  16683443.89846  13039445.18043  23309237.5084                   23309235.5434
 -14340386.35247 -11110755.97345  21860407.5634                   21860407.3444
  -4213795.11347  -3220201.05945  21565873.4614                   21565871.0234
 -46273444.75847 -35186034.10544  22197503.1884                   22197498.5124
  26165689.39546  22702192.20342  24906149.8444                   24906148.8284
 11  8 20  2 51 30.0000000  0  9G12G26G30G05G15G25G29G02G21
 -27029798.93747 -21020401.87944  22469500.1414                   22469498.0784
   5470256.93047   5912134.28544                  22454763.6884   22454761.8754
 -11739326.53947  -8754943.48044  22137095.1804                   22137092.9304
 -30054544.57447 -23376285.70745  20961665.9614                   20961663.1684
  16500730.62146  12897071.28543  23274468.9924                   23274465.9384
 -14389244.03947 -11148826.90245  21851110.7114                   21851110.0124
  -4372226.31247  -3343653.91045  21535725.1334                   21535722.3364
 -46316343.83647 -35219461.95744  22189339.8834                   22189335.0394
  26022417.68046  22590552.01642  24878885.9064                   24878884.9344
 11  8 20  2 52  0.0000000  0  9G12G26G30G05G15G25G29G02G21
 -27031332.49247 -21021596.85944  22469208.8204                   22469205.9884
   5302449.26246   5781375.12144                  22422830.8054   22422829.3054
 -11772904.64847  -8781108.24644  22130704.4614                   22130703.2504
 -30083343.82047 -23398726.68045  20956185.7894                   20956182.4144
  16318093.61746  12754756.84043  23239714.1804                   23239711.6484
 -14437613.40647 -11186517.32045  21841906.1094                   21841905.7974
  -4530426.12547  -3466926.45745  21505621.0314                   21505617.9144
 -46359148.14547 -35252815.96544  22181194.7734                   22181189.7934
  25879146.12946  22478911.90242  24851621.6644                   24851621.4104
 11  8 20  2 52 30.0000000  0  9G12G26G30G05G15G25G29G02G21
 -27032634.34847 -21022611.28144  22468961.4694                   22468958.5474
   5134973.23047   5650874.37144                  22390961.6804   22390959.4224
 -11806053.52347  -8806938.54744  22124397.0704                   22124395.0984
 -30111771.81647 -23420878.35945  20950776.0234                   20950773.1024
  16135535.95746  12612504.18443  23204974.0634                   23204971.9264
 -14485496.16447 -11223828.57845  21832794.1884                   21832794.3164
  -4688391.95747  -3590016.68445  21475560.8054                   21475558.4654
 -46401856.83247 -35286095.46144  22173067.4304                   22173062.5864
  25735874.53946  22367271.81342  24824357.9614                   24824358.4614
 11  8 20  2 53  0.0000000  0  9G12G26G30G05G15G25G29G02G21
 -27033707.68047 -21023447.66044  22468757.1564                   22468754.4734
   4967832.57846   5520634.96144                  22359155.6564   22359153.6844
 -11838776.01647  -8832436.59444  22118170.3364                   22118168.3554
 -30139831.21547 -23442742.82446  20945436.2584                   20945433.4964
  15953060.69946  12470315.72343  23170250.2974                   23170247.8324
 -14532894.61747 -11260762.43745  21823774.9224                   21823774.7464
  -4846121.27747  -3712922.60945  21445545.9534                   21445543.3554
 -46444469.48847 -35319300.13744  22164958.4224                   22164953.1254
  25592602.08246  22255631.05142  24797093.9304                   24797094.4454
 11  8 20  2 53 30.0000000  0  9G12G26G30G05G15G25G29G02G21
 -27034556.71147 -21024109.23844  22468595.7814                   22468593.1684
   4801029.85246   5390658.87544                  22327412.9774   22327412.4734
 -11871075.82447  -8857605.28544  22112023.9304                   22112022.1644
 -30167525.39147 -23464322.69545  20940166.8524                   20940163.3484
  15770669.67246  12328192.92243  23135542.2734                   23135540.1884
 -14579811.94147 -11297321.41045  21814846.9614                   21814846.1644
  -5003613.08647  -3835643.47745  21415576.1484                   21415573.5744
 -46486987.09447 -35352430.72344  22156867.2734                   22156863.1214
  25449327.31646  22143988.52342  24769829.5704                   24769830.1684
 11  8 20  2 54  0.0000000  0  9G12G26G30G05G15G25G29G02G21
 -27035184.50047 -21024598.43444  22468476.2424                   22468473.4774
   4634568.62546   5260948.87544                  22295736.5164   22295735.6564
 -11902955.98047  -8882446.96944  22105957.2034                   22105955.7934
 -30194856.85247 -23485619.94145  20934965.7344                   20934962.4924
  15588366.15646  12186138.30544  23100850.6564                   23100848.4144
 -14626250.43047 -11333507.26645  21806009.9924                   21806009.5314
  -5160865.39147  -3958177.71545  21385651.6334                   21385649.6024
 -46529409.47347 -35385487.12144  22148795.0784                   22148790.1174
  25306049.42246  22032343.49642  24742565.5784                   24742564.7894
 11  8 20  2 54 30.0000000  0  9G12G26G30G05G15G25G29G02G21
 -27035591.41447 -21024915.52044  22468399.3984                   22468396.1724
   4468454.80146   5131509.59044                  22264126.9694   22264124.4964
 -11934416.77347  -8906961.87544  22099970.2894                   22099968.5984
 -30221825.64847 -23506634.59845  20929833.4144                   20929830.2304
  15406155.44546  12044156.02043  23066176.4454                   23066175.4384
 -14672209.74647 -11369319.73445  21797263.8594                   21797263.7934
  -5317872.95347  -4080521.23045  21355774.3984                   21355771.6254
 -46571733.66047 -35418467.00844  22140740.8914                   22140735.9574
  25162770.67245  21920697.85542  24715300.0704                   24715299.9184
 11  8 20  2 55  0.0000000  0  9G12G26G30G05G15G25G29G02G21
 -27035781.81246 -21025063.87144  22468362.6484                   22468360.0394
   4302691.12546   5002343.13343                  22232582.6954   22232580.6764
 -11965462.20747  -8931153.15644  22094062.9384                   22094060.5084
 -30248435.54347 -23527369.57845  20924769.6644                   20924766.8794
  15224039.38746  11902247.50443  23031521.6334                   23031519.8244
 -14717693.34847 -11404761.52045  21788608.8754                   21788608.3244
  -5474634.59047  -4202673.14145  21325943.9774                   21325941.4534
 -46613960.85547 -35451371.30944  22132705.1884                   22132700.7894
  25019488.85245  21809049.81342  24688034.6254                   24688034.6094
 11  8 20  2 55 30.0000000  0  9G12G26G30G05G15G25G29G02G21
 -27035761.52747 -21025048.06244  22468365.5084                   22468363.1914
   4137278.50046   4873450.22344                  22201106.2664   22201103.6054
 -11996097.62947  -8955024.91844  22088232.0474                   22088231.1844
 -30274691.21147 -23547828.54345  20919772.9454                   20919770.4574
  15042018.56346  11760413.18043  22996883.5944                   22996882.1644
 -14762705.94947 -11439836.29345  21780043.0394                   21780042.9104
  -5631150.64147  -4324633.66845  21296159.4774                   21296157.1914
 -46656093.08646 -35484201.62144  22124687.6724                   22124682.7154
  24876201.348 5                  24660766.969
 11  8 20  2 56  0.0000000  0  9G12G26G30G05G15G25G29G02G21
 -25460110.32447 -19797267.90644  22768202.7664                   22768200.1094
   5547649.04346   5972440.30144                  22469490.3984   22469488.3054
 -10450902.00847  -7750976.39144  22382274.5394                   22382271.9344
 -28725171.32447 -22340410.44545  21214637.7504                   21214634.2464
  16435525.25846  12846262.61343  23262059.7584                   23262057.6134
 -13231825.41847 -10246942.37945  22071360.3754                   22071359.7304
  -4211990.79347  -3218794.80145  21566216.9694                   21566214.6374
 -45122705.68447 -34289354.28544  22416481.4694                   22416476.8364
                                  26308334.992 5                  24933292.758
 11  8 20  2 56 30.0000000  0  9G12G26G30G05G15G25G29G02G21
 -25459672.11747 -19796926.45344  22768286.2194                   22768283.6804
   5382954.87946   5844107.25444                  22438150.4304   22438148.3754
 -10480720.41847  -7774211.52344  22376599.1644                   22376598.2194
 -28750720.55947 -22360318.93745  21209775.6884                   21209772.6294
  16253709.74646  12704588.26243  23227461.1254                   23227458.9384
 -13275897.28147 -10281284.10945  22062973.4614                   22062973.1724
  -4368003.32447  -3340362.97745  21536528.6174                   21536526.0824
 -45164641.56247 -34322031.59044  22408501.7894                   22408496.6134
                                  26165039.355 5                  24906023.836
 11  8 20  2 57  0.0000000  0  9G12G26G30G05G15G25G29G02G21
 -25459030.70746 -19796426.64544  22768408.3364                   22768405.3954
   5218624.21146   5716057.45344                  22406878.8284   22406877.4614
 -10510135.80547  -7797132.61344  22371002.5084                   22371000.1684
 -28775921.17647 -22379955.77745  21204979.9614                   21204976.8634
  16072000.19946  12562996.43443  23192882.6954                   23192880.3874
 -13319503.35547 -10315262.89145  22054675.5474                   22054675.0744
  -4523761.78147  -3461733.17645  21506888.8834                   21506886.0434
 -45206480.04747 -34354633.02344  22400540.1884                   22400535.2274
                                  26021737.938 5                  24878754.531
 11  8 20  2 57 30.0000000  0  9G12G26G30G05G15G25G29G02G21
 -25458189.31246 -19795770.99644  22768568.5314                   22768565.6334
   5054660.48846   5588293.58244                  22375678.1564   22375676.2774
 -10539151.17247  -7819742.00444  22365480.7114                   22365479.1994
 -28800776.07447 -22399323.22745  21200250.3444                   21200247.3284
  15890399.56346  12421489.52044  23158325.3754                   23158323.8554
 -13362646.09847 -10348880.64145  22046464.9454                   22046465.2114
  -4679263.68747  -3582903.46545  21477297.7504                   21477295.2234
 -45248221.01247 -34387158.45344  22392597.1884                   22392592.2814
                                  25878429.855 5                  24851485.438
 11  8 20  2 58  0.0000000  0  9G12G26G30G05G15G25G29G02G21
 -25457149.57846 -19794960.81644  22768766.1414                   22768763.4384
   4891068.68046   5460819.50444                  22344547.2814   22344545.2194
 -10567767.94147  -7842040.80144  22360035.2114                   22360032.9384
 -28825285.98847 -22418421.85945  21195586.3134                   21195583.0004
  15708912.46546  12280071.06644  23123789.4384                   23123787.5164
 -13405326.30947 -10382137.94945  22038344.1644                   22038343.4494
  -4834504.99247  -3703870.69145  21447756.2034                   21447753.7934
 -45289862.65647 -34419606.49644  22384672.5084                   22384667.7584
                                  25735116.281 5                  24824212.195
 11  8 20  2 58 30.0000000  0  9G12G26G30G05G15G25G29G02G21
 -25455914.79347 -19793998.64144  22769000.6804                   22768998.3984
   4727852.37147   5333638.01644                  22313488.1484   22313486.0234
 -10595989.12547  -7864031.35944  22354665.4144                   22354663.0394
 -28849453.74647 -22437253.86345  21190987.1564                   21190984.0354
  15527541.65646  12138743.25444  23089276.0164                   23089274.0124
 -13447546.48847 -10415036.80145  22030309.7194                   22030309.0664
  -4989483.95347  -3824633.49645  21418264.9924                   21418261.7934
 -45331404.60547 -34451976.85244  22376767.5474                   22376763.0124
                                  25591796.215 5                  24796939.820
 11  8 20  2 59  0.0000000  0  9G12G26G30G05G15G25G29G02G21
 -25454489.01247 -19792887.64544  22769271.8594                   22769269.9344
   4565013.81346   5206750.85944                  22282501.7344   22282499.0004
 -10623818.93047  -7885716.92644  22349369.5004                   22349366.5514
 -28873283.12947 -22455822.21545  21186452.6174                   21186449.2814
  15346289.08646  11997507.55544  23054784.6174                   23054782.9574
 -13489310.28547 -10447580.03545  22022362.2504                   22022361.8444
  -5144199.44147  -3945190.98445  21388823.8284                   21388820.5204
 -45372847.68747 -34484270.16044  22368881.3444                   22368876.8554
                                  25448467.996 5                  24769664.617
 11  8 20  2 59 30.0000000  0  9G12G26G30G05G15G25G29G02G21
 -25452874.55546 -19791629.62944  22769579.5164                   22769577.3634
   4402557.48446   5080161.55944                  22251586.9144   22251584.3364
 -10651259.13747  -7907098.92244  22344147.5634                   22344145.0704
 -28896775.19547 -22474127.71145  21181982.3984                   21181978.7194
  15165159.05546  11856367.33244  23020317.3364                   23020314.9344
 -13530618.89847 -10479768.57045  22014501.2584                   22014501.0394
  -5298647.75447  -4065540.29745  21359433.3674                   21359429.7504
 -45414190.55147 -34516485.37544  22361014.3834                   22361008.8244
  25305132.19145                  22942100.64152  24742388.4304   24742388.0164
 11  8 20  3  0  0.0000000  0  9G12G26G30G05G15G25G29G02G21
 -25451076.43047 -19790228.49244  22769921.4694                   22769918.9734
   4240485.12946   4953871.46144                  22220745.0084   22220742.9614
 -10678314.80947  -7928181.27744  22338998.9064                   22338996.7384
 -28919934.63747 -22492174.02045  21177575.3054                   21177571.7704
  14984152.24646  11715323.10944  22985872.7894                   22985869.4924
 -13571476.88347 -10511605.97345  22006726.5474                   22006726.3444
  -5452828.73047  -4185681.28145  21330093.0474                   21330089.9344
 -45455435.30147 -34548624.15244  22353165.6334                   22353160.3594
  25161786.19945                  22830402.56342  24715112.2584   24715109.9304
 11  8 20  3  0 30.0000000  0  9G12G26G30G05G15G25G29G02G21
 -25449096.70347 -19788685.84444  22770298.2734                   22770296.4024
   4078801.07446   4827883.93044                  22189976.8754   22189975.7664
 -10704987.93747  -7948965.55544  22333923.7034                   22333921.4344
 -28942763.01247 -22509962.35545  21173231.0164                   21173228.0164
  14803272.94546  11574378.24243  22951451.5784                   22951448.8954
 -13611885.62947 -10543093.30945  21999037.1254                   21999036.4494
  -5606739.02747  -4305611.34845  21300805.3134                   21300802.0274
 -45496580.47347 -34580685.32444  22345335.9224                   22345330.7464
  25018430.46145                  22718696.92642  24687831.5944   24687830.1884
 11  8 20  3  1  0.0000000  0 10G12G26G18G30G05G15G25G29G02G21
 -25446938.27047 -19787003.94144  22770708.6564                   22770706.6564
   3917509.46146   4702202.21944                  22159284.5554   22159282.9574
  31291675.42215                  24634897.688
 -10731280.92647  -7969453.60944  22328919.9144                   22328917.7344
 -28965262.34847 -22527494.30145  21168949.6484                   21168946.6914
  14622524.75846  11433535.53944  22917055.9534                   22917053.9264
 -13651847.06247 -10574232.09445  21991432.9224                   21991432.1414
  -5760375.77347  -4425328.25845  21271568.6804                   21271566.2424
 -45537624.89847 -34612668.00844  22337524.9064                   22337520.5984
  24875065.04746                  22606983.71143  24660549.1724   24660547.6844
 11  8 20  3  1 30.0000000  0 10G12G26G18G30G05G15G25G29G02G21
 -25444606.44546 -19785186.93044  22771153.2424                   22771150.1134
   3756611.12547   4576826.94144                  22128666.3984   22128664.8404
  31115181.313 5                  24601311.977
 -10757199.34847  -7989649.78944  22323988.3524                   22323985.2704
 -28987437.52347 -22544773.64145  21164729.7194                   21164726.9024
  14441908.04746  11292795.30544  22882685.9144                   22882684.1564
 -13691366.15647 -10605026.19945  21983912.8444                   21983912.4614
  -5913739.21147  -4544832.18745  21242384.5864                   21242381.4224
 -45578571.32847 -34644574.32044  22329733.8984                   22329728.4454
  24731686.87945                  22495260.53542  24633265.2194   24633263.9694
 11  8 20  3  2  0.0000000  0 10G12G26G18G30G05G15G25G29G02G21
 -25442107.03946 -19783239.33244  22771628.0784                   22771625.7734
   3596106.86747   4451758.73044                  22098124.2344   22098121.9144
  30938852.980 5                  24567756.914
 -10782748.96947  -8009558.58644  22319125.9844                   22319123.6024
 -29009294.01247 -22561804.66845  21160570.5234                   21160567.2934
  14261423.23846  11152157.84844  22848341.5084                   22848339.2464
 -13730448.27347 -10635479.78945  21976475.3284                   21976474.9734
  -6066829.80547  -4664123.52045  21213252.0164                   21213249.4414
 -45619421.93047 -34676405.97344  22321959.9774                   22321954.7584
  24588292.43046                  22383524.70342  24605977.5784   24605976.7194
 11  8 20  3  2 30.0000000  0 10G12G26G18G30G05G15G25G29G02G21
 -25439442.38746 -19781162.97744  22772135.8364                   22772132.7734
   3436001.18047   4327001.09444                  22067657.1804   22067654.9734
  30762692.742 5                  24534234.406
 -10807931.85246  -8029181.61344  22314333.6024                   22314332.0044
 -29030833.18447 -22578588.43445  21156471.7974                   21156468.6374
  14081074.28146  11011626.25444  22814022.2034                   22814019.7814
 -13769094.85247 -10665594.00845  21969121.0084                   21969120.9024
  -6219644.12947  -4783199.57445  21184172.7344                   21184170.2274
 -45660175.42647 -34708161.93444  22314204.6564                   22314199.6884
  24444882.30945                  22271776.66042  24578688.8284   24578686.7934
 11  8 20  3  3  0.0000000  0 10G12G26G18G30G05G15G25G29G02G21
 -25436615.59446 -19778960.27744  22772673.6644                   22772670.8134
   3276297.47346   4202556.66444                  22037266.2114   22037263.9264
  30586701.770 5                  24500744.484
 -10832750.98447  -8048521.20344  22309610.6484                   22309608.4804
 -29052057.54347 -22595126.89545  21152432.9454                   21152429.8094
  13900864.28946  10871202.93444  22779728.6804                   22779727.0434
 -13807308.42247 -10695370.81645  21961848.8364                   21961849.0004
  -6372179.87947  -4902058.57445  21155145.7894                   21155143.3364
 -45700831.66046 -34739842.10544  22306467.9534                   22306463.4304
  24301455.86746                  22160015.87943  24551394.6724   24551393.4414
 11  8 20  3  3 30.0000000  0 10G12G26G18G30G05G15G25G29G02G21
 -25433627.19146 -19776631.65244  22773242.0634                   22773239.4454
   3117001.87946   4078430.28144                  22006953.3674   22006950.5474
  30410884.191 5                  24467287.539
 -10857206.75047  -8067577.65244  22304957.1724                   22304954.9064
 -29072966.89147 -22611419.88345  21148453.9924                   21148450.9104
  13720799.14846  10730892.48044  22745463.4534                   22745461.5394
 -13845088.81647 -10724810.08245  21954660.0634                   21954659.7624
  -6524431.96947  -5020696.52745  21126173.7344                   21126170.9844
 -45741387.21947 -34771443.83244  22298750.7344                   22298746.1054
  24158015.19146                  22048244.01242  24524097.9384   24524097.4694
 11  8 20  3  4  0.0000000  0 10G12G26G18G30G05G15G25G29G02G21
 -25430478.70746 -19774178.28944  22773841.2974                   22773839.2274
   2958119.26646   3954625.66844                  21976718.9844   21976716.5514
  30235242.449 5                  24433863.781
 -10881300.90647  -8086352.32444  22300372.2734                   22300370.3324
 -29093562.57847 -22627468.47345  21144534.9774                   21144531.5434
  13540883.01646  10590698.14843  22711226.3834                   22711224.1484
 -13882437.33247 -10753912.82045  21947553.1094                   21947552.5314
  -6676396.96147  -5139110.77345  21097255.8754                   21097253.0234
 -45781840.61347 -34802965.95744  22291052.2424                   22291048.1764
  24014561.13346                  21936461.73043  24496801.0474   24496799.1524
 11  8 20  3  4 30.0000000  0 10G12G26G18G30G05G15G25G29G02G21
 -25427175.54746 -19771604.38344  22774470.1024                   22774467.1334
   2799650.54746   3831143.58644                  21946563.6954   21946561.2504
  30059775.531 5                  24400472.641
 -10905038.91446  -8104849.46144  22295854.8984                   22295853.0864
 -29113849.58247 -22643276.53145  21140674.5164                   21140670.8634
  13361116.52746  10450620.41444  22677017.9614                   22677016.3754
 -13919358.91447 -10782682.87545  21940526.9774                   21940526.6564
  -6828074.72347  -5257301.20745  21068392.6484                   21068389.5044
 -45822194.01246 -34834410.16444  22283373.9454                   22283368.5784
  23871091.02746                  21824666.94543  24469498.7194   24469497.1374
 11  8 20  3  5  0.0000000  0 10G12G26G18G30G05G15G25G29G02G21
 -23848297.76646 -18541310.00044  23074920.1254                   23074917.2384
   4217028.33246   4935593.84844                  22216281.1024   22216279.0664
  31459914.086 5                  24666912.438
  -9352999.26247  -6895467.91444  22591197.3204                   22591196.0824
 -27558405.71147 -21431242.34045  21436665.2344                   21436662.0554
  14756932.70346  11538269.44144  22942634.0394                   22942631.1564
 -12380431.13347  -9583518.36745  22233374.9224                   22233374.7424
  -5404034.10247  -4147659.14145  21339378.2114                   21339375.7584
 -44287022.21146 -33638172.39144  22575506.8914                   22575502.4654
  25303032.75446                  22940465.77343  24741988.7194   24741986.5984
 11  8 20  3  5 30.0000000  0 10G12G26G18G30G05G15G25G29G02G21
 -23844689.93046 -18538498.69944  23075606.0554                   23075603.9734
   4059403.44147   4812769.28944                  22186286.0164   22186284.2194
  31284805.76245                  25690584.54753  24633589.6804   24633587.1174
  -9376028.62547  -6913412.85544  22586816.2034                   22586813.7774
 -27578077.10947 -21446570.71545  21432921.8834                   21432918.4734
  14577480.34046  11398436.51244  22908484.0864                   22908482.1174
 -12416501.04347  -9611624.78545  22226511.3834                   22226511.0234
  -5555124.82047  -4265392.14545  21310625.8444                   21310623.5124
 -44327169.22346 -33669455.77344  22567867.2974                   22567862.6454
  25159533.94146                  22828648.58243  24714681.7734   24714679.7854
 11  8 20  3  6  0.0000000  0 10G12G26G18G30G05G15G25G29G02G21
 -23840934.33646 -18535572.24644  23076321.8674                   23076318.5274
   3902205.16047   4690277.14844                  22156372.2664   22156370.3754
  31109878.406 5                                                  24600300.992
  -9398708.41046  -6931085.42644  22582499.8134                   22582497.9694
 -27597444.76647 -21461662.40245  21429236.6724                   21429233.1764
  14398189.57446  11258729.48044  22874366.5864                   22874365.1174
 -12452149.21147  -9639402.57445  22219727.4534                   22219727.3594
  -5705918.82847  -4382893.94145  21281931.4774                   21281928.2664
 -44367212.60247 -33700658.40244  22560247.4144                   22560242.7114
  25016019.94146                  22716819.62143  24687371.8674   24687369.6254
 11  8 20  3  6 30.0000000  0 10G12G26G18G30G05G15G25G29G02G21
 -23837035.08646 -18532533.85944  23077063.9144                   23077060.9924
   3745436.27747   4568119.62144                  22126540.2424   22126538.0394
  30935132.10946                  25461705.92252  24567047.8524   24567046.6374
  -9421042.74247  -6948488.80544  22578249.4224                   22578247.5474
 -27616511.72747 -21476519.77745  21425608.0394                   21425604.5044
  14219062.55946  11119150.05144  22840279.4694                   22840277.8324
 -12487379.13347  -9666854.44545  22213023.6644                   22213023.4104
  -5856414.87547  -4500163.57845  21253293.0394                   21253290.2934
 -44407152.96147 -33731780.76244  22552646.7194                   22552642.1884
  24872489.33646                  22604977.69542  24660059.2734   24660056.8674
 11  8 20  3  7  0.0000000  0 10G12G26G18G30G05G15G25G29G02G21
 -23832995.69946 -18529386.27744  23077832.2504                   23077829.6844
   3589099.49647   4446298.78944                  22096790.6724   22096787.6884
  30760567.86346                  25325682.01242  24533830.2664   24533828.2114
  -9443035.10246  -6965625.70344  22574064.7814                   22574062.6604
 -27635280.94147 -21491145.14845  21422036.4534                   21422033.2854
  14040102.08246  10979700.37944  22806224.1804                   22806222.5474
 -12522193.95347  -9693982.87945  22206398.1644                   22206397.7624
  -6006610.68047  -4617199.25445  21224711.5164                   21224708.6914
 -44446990.39147 -33762822.91844  22545066.6024                   22545061.7154
  24728941.04345                  22493122.01642  24632741.2274   24632739.7854
 11  8 20  3  7 30.0000000  0 10G12G26G18G30G05G15G25G29G02G21
 -23828816.90246 -18526130.06244  23078627.6024                   23078624.8164
   3433200.94147   4324819.42244                  22067123.5234   22067121.1454
  30586189.39845                  25189802.80542  24500646.0704   24500645.5744
  -9464686.17646  -6982496.65244  22569944.9694                   22569942.8204
 -27653753.05147 -21505539.00445  21418521.4844                   21418518.1174
  13861313.30946  10840384.48844  22772202.6954                   22772199.0434
 -12556593.87147  -9720788.00045  22199852.4454                   22199852.3794
  -6156501.47347  -4733997.25445  21196188.6644                   21196185.1884
 -44486722.19147 -33793782.76644  22537505.6334                   22537500.5044
  24585376.92246                  22381253.94142  24605422.7274   24605420.4614
 11  8 20  3  8  0.0000000  0 10G12G26G18G30G05G15G25G29G02G21
 -23824499.42246 -18522765.77344  23079448.8524                   23079446.0554
   3277746.28147   4203685.95744                  22037541.9614   22037538.9884
  30412000.00845                  25054071.03142  24467499.3524   24467498.5704
  -9485996.48446  -6999102.10244  22565889.4144                   22565887.5314
 -27671927.67247 -21519701.05545  21415062.6484                   21415059.4494
  13682702.00046  10701206.84044  22738213.9454                   22738210.9224
 -12590578.93747  -9747269.87545  22193385.5394                   22193385.4494
  -6306082.68747  -4850554.03145  21167724.0164                   21167720.9264
 -44526345.34847 -33824657.94544  22529965.6724                   22529960.7934
  24441799.28946                  22269375.34042  24578100.5784   24578098.6524
 11  8 20  3  8 30.0000000  0 10G12G26G18G30G05G15G25G29G02G21
 -23820048.06246 -18519297.15644  23080295.9844                   23080293.5984
   3122736.92647   4082899.46944                  22008044.2504   22008042.1174
  30237999.04345                  24918486.05542  24434387.0944   24434387.7584
  -9506971.11747  -7015445.95744  22561898.8524                   22561896.3794
 -27689809.30947 -21533634.79745  21411660.2114                   21411656.7584
  13504269.04746  10562168.23844  22704258.6644                   22704256.7384
 -12624153.86347  -9773432.15645  22186996.0394                   22186995.9414
  -6455353.90247  -4966869.24645  21139319.1334                   21139315.3874
 -44565861.59446 -33855449.84844  22522445.4924                   22522441.2734
  24298205.43046                  22157484.12942  24550776.4304   24550774.1454
 11  8 20  3  9  0.0000000  0 10G12G26G18G30G05G15G25G29G02G21
 -23815467.49646 -18515727.87544  23081167.2034                   23081165.0434
   2968174.63747   3962461.35944                  21978632.0164   21978629.9104
  30064186.39845                  24783047.78142  24401312.4454   24401312.4574
  -9527614.78146  -7031531.92244  22557970.1644                   22557967.9774
 -27707402.12947 -21547343.48845  21408312.5784                   21408309.3094
  13326016.27346  10423270.03944  22670338.1954                   22670336.8554
 -12657322.83647  -9799278.09845  22180683.5084                   22180683.8284
  -6604314.18047  -5082942.17245  21110971.8594                   21110969.6994
 -44605271.89147 -33886159.18444  22514946.4384                   22514941.6884
  24154593.29346                  22045578.63342  24523447.3754   24523445.4414
 11  8 20  3  9 30.0000000  0 10G12G26G18G30G05G15G25G29G02G21
 -23810757.89546 -18512058.05943  23082064.2114                   23082061.1564
   2814065.73447   3842376.52744                  21949306.6024   21949303.7384
  29890566.07846                  24647759.37542  24368272.4384   24368273.9024
  -9547927.72347  -7047360.18444  22554104.8594                   22554102.5594
 -27724705.68047 -21560826.77345  21405019.3054                   21405016.6844
  13147949.77046  10284516.98044  22636453.0634                   22636451.4064
 -12690085.72347  -9824807.63345  22174449.4144                   22174449.5084
  -6752958.39147  -5198768.82045  21082686.1174                   21082683.3954
 -44644572.93047 -33916783.35544  22507467.5634                   22507462.7424
  24010965.52045                  21933660.97342  24496116.2194   24496113.9104
 11  8 20  3 10  0.0000000  0 10G12G26G18G30G05G15G25G29G02G21
 -23805923.82046 -18508291.23444  23082983.7664                   23082980.7464
   2660412.27047   3722646.59844                  21920067.2734   21920064.9304
  29717137.66845                  24512620.52742  24335270.2664   24335271.6564
  -9567914.40646  -7062934.21944  22550301.0944                   22550299.2344
 -27741723.88747 -21574087.71945  21401781.2424                   21401777.6484
  12970071.13346  10145910.28144  22602604.5784                   22602601.5474
 -12722446.53947  -9850023.85545  22168291.7274                   22168291.4734
  -6901285.51247  -5314348.36745  21054460.6094                   21054457.8554
 -44683765.94947 -33947323.37544  22500009.1804                   22500004.2304
  23867320.01245                  21821729.54742  24468780.3444   24468779.0044
 11  8 20  3 10 30.0000000  0 10G12G26G18G30G05G15G25G29G02G21
 -23800966.26646 -18504428.19944  23083927.0234                   23083924.7274
   2507219.56347   3603275.68844                  21890915.0554   21890912.6454
  29543904.65645                  24377634.01242  24302304.9844   24302306.3244
  -9587575.89546  -7078254.84044  22546559.3834                   22546558.2114
 -27758456.99247 -21587126.50845  21398596.9454                   21398593.6094
  12792385.40646  10007453.88344  22568791.8914                   22568789.0634
 -12754405.93447  -9874927.28545  22162209.5634                   22162209.9184
  -7049291.09447  -5429677.38345  21026295.8134                   21026293.2664
 -44722848.50847 -33977777.32844  22492571.7504                   22492567.2854
  23723658.62545                  21709785.62542  24441443.6484   24441441.3714
 11  8 20  3 11  0.0000000  0 10G12G26G18G30G05G15G25G29G02G21
 -23795891.51646 -18500473.82843  23084892.9774                   23084890.5864
   2354487.61747   3484263.81344                  21861851.5084   21861849.0554
  29370864.77045                  24242797.79342  24269376.3674   24269377.5784
  -9606918.58247  -7093327.06644  22542879.3444                   22542876.9654
 -27774910.81647 -21599947.67645  21395465.8674                   21395462.7304
  12614892.67246   9869147.87144  22535016.8914                   22535013.2274
 -12785969.86747  -9899522.56245  22156203.6954                   22156203.5234
  -7196975.69547  -5544756.28145  20998192.5394                   20998189.6524
 -44761823.42646 -34008147.40644  22485155.1484                   22485150.3054
  23579977.23845                  21597826.21542  24414101.4694   24414099.2934
 11  8 20  3 11 30.0000000  0 10G12G26G18G30G05G15G25G29G02G21
 -23790705.31246 -18496432.62144  23085879.3364                   23085877.1994
   2202216.93447   3365611.37544                  21832875.2034   21832872.9924
  29198016.46546                  24108110.89842  24236484.3594   24236484.9964
  -9625948.37546  -7108155.45744  22539257.8834                   22539255.3364
 -27791090.47747 -21612555.20745  21392387.0314                   21392383.9184
  12437593.18846   9730992.46944  22501277.1954                   22501275.0634
 -12817143.83247  -9923813.96545  22150271.4614                   22150271.0434
  -7344340.23447  -5659585.77745  20970149.9694                   20970147.4144
 -44800693.09847 -34038435.46944  22477758.4774                   22477753.2814
  23436273.00845                  21485848.95742  24386754.6564   24386753.2074
 11  8 20  3 12  0.0000000  0 10G12G26G18G30G05G15G25G29G02G21
 -23785408.14846 -18492304.95343  23086887.9064                   23086885.5704
   2050413.44147   3247322.97344                  21803987.6334   21803985.7274
  29025363.76646                  23973576.52742  24203629.9774   24203630.4574
  -9644665.85247  -7122740.50044  22535695.6644                   22535693.8834
 -27806996.14547 -21624949.24245  21389359.8444                   21389357.0164
  12260492.53546   9592992.04344  22467576.1724                   22467574.0164
 -12847927.99247  -9947801.62945  22144413.3834                   22144412.8444
  -7491379.74647  -5774161.99645  20942168.9454                   20942166.5204
 -44839454.21546 -34068638.96544  22470382.3444                   22470377.7734
  23292547.87145                  21373855.50842  24359404.7814   24359403.5044
 11  8 20  3 12 30.0000000  0 10G12G26G18G30G05G15G25G29G02G21
 -23780002.12146 -18488092.44944  23087917.0554                   23087914.3134
   1899081.50847   3129402.01644                  21775189.9534   21775187.7934
  28852908.40246                  23839195.88342  24170811.7344   24170812.5824
  -9663073.04347  -7137083.74644  22532192.9144                   22532191.3714
 -27822629.11347 -21637130.78145  21386385.0634                   21386382.4804
  12083595.08646   9455149.93444  22433913.7664                   22433911.2424
 -12878324.02047  -9971486.84445  22138630.1094                   22138628.8134
  -7638090.53547  -5888482.08245  20914250.5004                   20914248.1724
 -44878105.41447 -34098756.77744  22463027.3914                   22463022.9884
  23148802.54346                  21261846.21142  24332050.9454   24332049.3914
 11  8 20  3 13  0.0000000  0 10G12G26G18G30G05G15G25G29G02G21
 -23774491.07846 -18483798.11744  23088964.9304                   23088962.9614
   1748223.71147   3011850.51244                  21746483.1564   21746480.6954
  28680650.52746                  23704969.12542  24138032.6484   24138032.3554
  -9681173.97746  -7151188.36744  22528748.1254                   22528746.1214
 -27837992.55547 -21649102.29345  21383461.5704                   21383458.6684
  11906902.67647   9317467.57044  22400290.1174                   22400287.2974
 -12908335.48847  -9994872.41045  22132918.1334                   22132917.6604
  -7784471.38747  -6002545.06646  20886395.7734                   20886392.4064
 -44916647.60246 -34128789.66444  22455693.6094                   22455688.4964
  23005036.02746                  21149820.46142  24304693.7424   24304691.2664
 11  8 20  3 13 30.0000000  0 10G12G26G18G30G05G15G25G29G02G21
 -23768876.30146 -18479422.97744  23090034.0314                   23090031.4924
   1597844.86747   2894672.24244                  21717866.5314   21717864.4184
  28508593.39846                  23570898.72742  24105292.2734   24105289.9304
  -9698970.05946  -7165055.43444  22525362.4064                   22525360.2664
 -27853087.43047 -21660864.53945  21380589.0864                   21380586.2304
  11730420.63346   9179949.11744  22366706.5314                   22366703.8834
 -12937963.51247 -10017959.18045  22127280.1414                   22127279.7774
  -7930518.00447  -6116347.60945  20858603.5944                   20858600.9694
 -44955078.02746 -34158735.43044  22448379.9144                   22448375.3524
  22861249.03546                  21037778.75442  24277332.0234   24277329.4264
 11  8 20  3 14  0.0000000  0 10G12G26G18G30G05G15G25G29G02G21
 -22187743.75046 -17247371.61343  23390913.1094                   23390910.2854
   3023370.36347   4005471.36344                  21989135.5864   21989132.9064
  29912161.03146                  24664587.94542  24372382.2734   24372380.2934
  -8141046.67246  -5951089.14844  22821825.5164                   22821823.2384
 -26292498.36747 -20444821.13345  21677559.9304                   21677556.2274
  13129574.98446  10270199.27744  22632956.8984                   22632954.0864
 -11391792.60247  -8813150.68745  22421507.3444                   22421506.4774
  -6500806.26647  -5002286.49645  21130669.1024                   21130666.1254
 -43417977.93747 -32960995.11344  22740880.3134
  22740875.6764   24292863.34846  22153322.48442  24549759.3364   24549756.2384
 11  8 20  3 14 30.0000000  0 10G12G26G18G30G05G15G25G29G02G21
 -22181934.28146 -17242844.74243  23392018.5004                   23392015.7154
   2873955.24247   3889044.03144                  21960702.0234   21960700.2664
  29740504.81646                  24530830.02042  24339716.8524   24339714.6414
  -8158246.39147  -5964491.52744  22818551.9694                   22818550.3954
 -26307067.22747 -20456173.48845  21674786.9694                   21674783.9574
  12953518.91846  10133012.78944  22599454.2974                   22599451.9064
 -11420665.82447  -8835649.31245  22416012.1724                   22416011.6094
  -6646181.18447  -5115565.63746  21103005.2664                   21103002.2114
 -43456187.81647 -32990769.04744  22733610.1334
  22733604.6954   24149030.86746  22041245.30542  24522387.6254   24522385.6214
 11  8 20  3 15  0.0000000  0 10G12G26G18G30G05G15G25G29G02G21
 -22176032.86346 -17238246.22343  23393141.6024                   23393138.5044
   2725026.51246   3772995.70344                  21932362.8754   21932359.9494
  29569050.26646                  24397229.20342  24307089.8444   24307087.8874
  -8175153.12947  -5977665.59044  22815334.5704                   22815332.9804
 -26321377.10947 -20467324.05545  21672063.8364                   21672060.9344
  12777680.19546   9995995.65644  22565993.6804                   22565991.2894
 -11449166.25847  -8857857.42645  22410588.8524                   22410588.7504
  -6791217.23447  -5228580.71945  21075405.4224                   21075402.9144
 -43494287.48046 -33020457.10944  22726359.4774
  22726354.9534   24005174.52346  21929149.52742  24495012.7664   24495010.5594
 11  8 20  3 15 30.0000000  0 10G12G26G18G30G05G15G25G29G02G21
 -22170040.30946 -17233576.68443  23394282.2114                   23394279.3914
   2576588.86746   3657330.03544                  21904115.5784   21904113.1804
  29397800.01646                  24263787.59043  24274501.2194   24274499.6214
  -8191768.36747  -5990612.52744  22812172.9534                   22812170.7034
 -26335428.83247 -20478273.44545  21669390.6484                   21669386.5004
  12602063.28947   9859151.35944  22532575.2034                   22532572.2934
 -11477295.13747  -8879776.03144  22405235.9774                   22405235.9344
  -6935910.67247  -5341328.83246  21047871.6564                   21047868.8554
 -43532274.69146 -33050057.54344  22719130.5394
  22719126.1994   23861295.64146  21817036.27342  24467634.0004   24467631.3094
 11  8 20  3 16  0.0000000  0 10G12G26G18G30G05G15G25G29G02G21
 -22163960.46946 -17228839.12143  23395439.3134                   23395436.6994
   2428644.71947   3542048.91844                  21875962.6884   21875960.2584
  29226754.55546                  24130505.58242  24241952.5704   24241950.9344
  -8208096.06646  -6003335.41044  22809066.3204                   22809063.8714
 -26349225.62147 -20489024.19945  21666765.2894                   21666761.5514
  12426670.54346   9722481.73844  22499197.9844                   22499195.8134
 -11505055.92647  -8901407.82045  22399953.2424                   22399952.7854
  -7080259.55147  -5453808.45345  21020402.7194                   21020400.0824
 -43570149.52047 -33079570.38744  22711923.3054
  22711918.5904   23717392.93446  21704904.36343  24440249.5634   24440247.0824
 11  8 20  3 16 30.0000000  0 10G12G26G18G30G05G15G25G29G02G21
 -22157798.59846 -17224037.64143  23396611.0394                   23396608.4264
   2281195.38747   3427153.35944                  21847903.2274   21847901.3874
  29055912.79346                  23997382.26642  24209442.4454   24209440.8094
  -8224141.19546  -6015838.08244  22806012.7734                   22806010.4654
 -26362771.72347 -20499579.60545  21664186.8754                   21664183.5944
  12251503.59846   9585988.04744  22465865.2504                   22465862.6024
 -11532453.39147  -8922756.49644  22394739.8914                   22394739.6054
  -7224263.58247  -5566019.36345  20992999.7894                   20992996.7384
 -43607913.62947 -33108996.96544  22704736.9844
  22704732.5084   23573464.18046  21592752.16842  24412861.8054   24412858.4184
 11  8 20  3 17  0.0000000  0 10G12G26G18G30G05G15G25G29G02G21
 -22151556.45346 -17219173.61743  23397798.9064                   23397796.4264
   2134245.65647   3312647.11744                  21819940.3834   21819937.6524
  28885277.52045                  23864419.82842  24176970.8054   24176969.8634
  -8239905.73046  -6028122.12544  22803012.4304                   22803010.7974
 -26376068.35947 -20509940.63345  21661657.0944                   21661653.4924
  12076566.54746   9449673.49244  22432575.6484                   22432572.7304
 -11559489.03947  -8943823.23844  22389595.0944                   22389594.9024
  -7367918.94947  -5677958.59445  20965662.9844                   20965659.8164
 -43645565.14547 -33138335.81244  22697572.4534
  22697567.1804   23429510.27046  21480580.39543  24385467.6024   24385464.8244
 11  8 20  3 17 30.0000000  0 10G12G26G18G30G05G15G25G29G02G21
 -22145237.57046 -17214249.75843  23399001.2194                   23398998.8444
   1987797.59047   3198531.76244                  21792071.9534   21792069.2074
  28714848.35946                  23731617.98042  24144538.9304   24144537.4534
  -8255393.72346  -6040190.68044  22800065.4774                   22800063.6094
 -26389118.92647 -20520109.89545  21659173.3364                   21659170.2154
  11901861.58246   9313539.78544  22399330.7034                   22399327.4924
 -11586166.64547  -8964610.98044  22384518.4144                   22384517.9734
  -7511224.38347  -5789625.14545  20938392.9454                   20938389.8244
 -43683104.61746 -33167587.36344  22690428.8834
  22690424.1954   23285529.98046  21368388.02043  24358068.2034   24358066.2664
 11  8 20  3 18  0.0000000  0 10G12G26G18G30G05G15G25G29G02G21
 -22138843.92246 -17209267.65243  23400218.3984                   23400215.7194
   1841855.21147   3084810.45744                  21764299.8914   21764297.3554
  28544628.01645                  23598978.93043  24112147.5784   24112145.4264
  -8270607.23446  -6052045.37144  22797170.7344                   22797168.1484
 -26401924.39847 -20530088.18745  21656736.4144                   21656733.5824
  11727393.16046   9177590.39144  22366130.1414                   22366127.9264
 -11612487.93747  -8985121.07844  22379509.5474                   22379509.3164
  -7654176.53547  -5901016.43045  20911190.2344                   20911187.0594
 -43720530.49246 -33196750.39144  22683307.0004
  22683302.5354   23141524.00446  21256175.61342  24330665.5164   24330662.5434
